[[{"header":{"parameterUnit":"m.s-1","parameterCategory":1,"la1":31.0,"la2":29.5877,"lo1":-88.7671,"lo2":-86.6584,"dy":0.0162,"dx":0.0185,"nx":115,"ny":88,"refTime":"2024-08-13T06:00:00:Z","depth":0,"parameterNumber":2,"parameterNumberName":"U-component_of_WINDS"},"data":[0.0,0.0,0.0,0.0,0.0,0.0,0.0,0.0,0.0,0.0,0.0,0.0,0.0,0.0,0.0,0.0,0.0,0.0,0.0,0.0,0.0,0.0,0.0,0.0,0.0,0.0,0.0,0.0,0.0,0.0,0.0,0.0,0.0,0.0,0.0,0.0,0.0,0.0,0.0,0.0,0.0,0.0,0.0,0.0,0.0,0.0,0.0,0.0,0.0,0.0,0.0,0.0,0.0,0.0,0.0,0.0,0.0,0.0,0.0,0.0,0.0,0.0,0.0,0.0,0.0,0.0,0.0,0.0,0.0,0.0,0.0,0.0,0.0,0.0,0.0,0.0,0.0,0.0,0.0,0.0,0.0,0.0,0.0,0.0,0.0,0.0,0.0,0.0,0.0,0.0,0.0,0.0,0.0,0.0,0.0,0.0,0.0,0.0,0.0,0.0,0.0,0.0,0.0,0.0,0.0,0.0,0.0,0.0,0.0,0.0,0.0,0.0,0.0,0.0,0.0,0.0,0.0,0.0,0.0,0.0,0.0,0.0,0.0,0.0,0.0,0.0,0.0,0.0,0.0,0.0,0.0,0.0,0.0,0.0,0.0,0.0,0.0,0.0,0.0,0.0,0.0,0.0,0.0,0.0,0.0,0.0,0.0,0.0,0.0,0.0,0.0,0.0,0.0,0.0,0.0,0.0,0.0,0.0,0.0,0.0,0.0,0.0,0.0,0.0,0.0,0.0,0.0,0.0,0.0,0.0,0.0,0.0,0.0,0.0,0.0,0.0,0.0,0.0,0.0,0.0,0.0,0.0,0.0,0.0,0.0,0.0,0.0,0.0,0.0,0.0,0.0,0.0,0.0,0.0,0.0,0.0,0.0,0.0,0.0,0.0,0.0,0.0,0.0,0.0,0.0,0.0,0.0,0.0,0.0,0.0,0.0,0.0,0.0,0.0,0.0,0.0,0.0,0.0,0.0,0.0,0.0,0.0,0.0,0.0,0.0,0.0,0.0,0.0,0.0,0.0,0.0,0.0,0.0,0.0,0.0,0.0,0.0,0.0,0.0,0.0,0.0,0.0,0.0,0.0,0.0,0.0,0.0,0.0,0.0,0.0,0.0,0.0,0.0,0.0,0.0,0.0,0.0,0.0,0.0,0.0,0.0,0.0,0.0,0.0,0.0,0.0,0.0,0.0,0.0,0.0,0.0,0.0,0.0,0.0,0.0,0.0,0.0,0.0,0.0,0.0,0.0,0.0,0.0,0.0,0.0,0.0,0.0,0.0,0.0,0.0,0.0,0.0,0.0,0.0,0.0,0.0,0.0,0.0,0.0,0.0,0.0,0.0,0.0,0.0,0.0,0.0,0.0,0.0,0.0,0.0,0.0,0.0,0.0,0.0,0.0,0.0,0.0,0.0,0.0,0.0,0.0,0.0,0.0,0.0,0.0,0.0,0.0,0.0,0.0,0.0,0.0,0.0,0.0,0.0,0.0,0.0,0.0,0.0,0.0,0.0,0.0,0.0,0.0,0.0,0.0,0.0,0.0,0.0,0.0,0.0,0.0,0.0,0.0,0.0,0.0,0.0,0.0,0.0,0.0,0.0,0.0,0.0,0.0,0.0,0.0,0.0,0.0,0.0,0.0,0.0,0.0,0.0,0.0,0.0,0.0,0.0,0.0,0.0,0.0,0.0,0.0,0.0,0.0,0.0,0.0,0.0,0.0,0.0,0.0,0.0,0.0,0.0,0.0,0.0,0.0,0.0,0.0,0.0,0.0,0.0,0.0,0.0,0.0,0.0,0.0,0.0,0.0,0.0,0.0,0.0,0.0,0.0,0.0,0.0,0.0,0.0,0.0,0.0,0.0,0.0,0.0,0.0,0.0,0.0,0.0,0.0,0.0,0.0,0.0,0.0,0.0,0.0,0.0,0.0,0.0,0.0,0.0,0.0,0.0,0.0,0.0,0.0,0.0,0.0,0.0,0.0,0.0,0.0,0.0,0.0,0.0,0.0,0.0,0.0,0.0,0.0,0.0,0.0,0.0,0.0,0.0,0.0,0.0,0.0,0.0,0.0,0.0,0.0,0.0,0.0,0.0,0.0,0.0,0.0,0.0,0.0,0.0,0.0,0.0,0.0,0.0,0.0,0.0,0.0,0.0,0.0,0.0,0.0,0.0,0.0,0.0,0.0,0.0,0.0,0.0,0.0,0.0,0.0,0.0,0.0,0.0,0.0,0.0,0.0,0.0,0.0,0.0,0.0,0.0,0.0,0.0,0.0,0.0,0.0,0.0,0.0,0.0,0.0,0.0,0.0,0.0,0.0,0.0,0.0,0.0,0.0,0.0,0.0,0.0,0.0,0.0,0.0,0.0,0.0,0.0,0.0,0.0,0.0,0.0,0.0,0.0,0.0,0.0,0.0,0.0,0.0,0.0,0.0,0.0,0.0,0.0,0.0,0.0,0.0,0.0,0.0,0.0,0.0,0.0,0.0,0.0,0.0,0.0,0.0,0.0,0.0,0.0,0.0,0.0,0.0,0.0,0.0,0.0,0.0,0.0,0.0,0.0,0.0,0.0,0.0,0.0,0.0,0.0,0.0,0.0,0.0,0.0,0.0,0.0,0.0,0.0,0.0,0.0,0.0,0.0,0.0,0.0,0.0,0.0,0.0,0.0,0.0,0.0,0.0,0.0,0.0,0.0,0.0,0.0,0.0,0.0,0.0,0.0,0.0,0.0,0.0,0.0,0.0,0.0,0.0,0.0,0.0,0.0,0.0,0.0,0.0,0.0,0.0,0.0,0.0,0.0,0.0,0.0,0.0,0.0,0.0,0.0,0.0,0.0,0.0,0.0,0.0,0.0,0.0,0.0,0.0,0.0,0.0,0.0,0.0,0.0,0.0,0.0,0.0,0.0,0.0,0.0,0.0,0.0,0.0,0.0,0.0,0.0,0.0,0.0,0.0,0.0,0.0,0.0,0.0,0.0,0.0,0.0,0.0,0.0,0.0,0.0,0.0,0.0,0.0,0.0,0.0,0.0,0.0,0.0,0.0,0.0,0.0,0.0,0.0,0.0,0.0,0.0,0.0,0.0,0.0,0.0,0.0,0.0,0.0,0.0,0.0,0.0,0.0,0.0,0.0,0.0,0.0,0.0,0.0,0.0,0.0,0.0,0.0,0.0,0.0,0.0,0.0,0.0,0.0,0.0,0.0,0.0,0.0,0.0,0.0,0.0,0.0,0.0,0.0,0.0,0.0,0.0,0.0,0.0,0.0,0.0,0.0,0.0,0.0,0.0,0.0,0.0,0.0,0.0,0.0,0.0,0.0,0.0,0.0,0.0,0.0,0.0,0.0,0.0,0.0,0.0,0.0,0.0,0.0,0.0,0.0,0.0,0.0,0.0,0.0,0.0,0.0,0.0,0.0,0.0,0.0,0.0,0.0,0.0,0.0,0.0,0.0,0.0,0.0,0.0,0.0,0.0,0.0,0.0,0.0,0.0,0.0,0.0,0.0,0.0,0.0,0.0,0.0,0.0,0.0,0.0,0.0,0.0,0.0,0.0,0.0,0.0,0.0,0.0,0.0,0.0,0.0,0.0,0.0,0.0,0.0,0.0,0.0,0.0,0.0,0.0,0.0,0.0,0.0,0.0,0.0,0.0,0.0,0.0,0.0,0.0,0.0,0.0,0.0,0.0,0.0,0.0,0.0,0.0,0.0,0.0,0.0,0.0,0.0,0.0,0.0,0.0,0.0,0.0,0.0,0.0,0.0,0.0,0.0,0.0,0.0,0.0,0.0,0.0,0.0,0.0,0.0,0.0,0.0,0.0,0.0,0.0,0.0,0.0,0.0,0.0,0.0,0.0,0.0,0.0,0.0,0.0,0.0,0.0,0.0,0.0,0.0,0.0,0.0,0.0,0.0,0.0,0.0,0.0,0.0,0.0,0.0,0.0,0.0,0.0,0.0,0.0,0.0,0.0,0.0,0.0,0.0,0.0,0.0,0.0,0.0,0.0,0.0,0.0,0.0,0.0,0.0,0.0,0.0,0.0,0.0,0.0,0.0,0.0,0.0,0.0,0.0,0.0,0.0,0.0,0.0,0.0,0.0,0.0,0.0,0.0,0.0,0.0,0.0,0.0,0.0,0.0,0.0,0.0,0.0,0.0,0.0,0.0,0.0,0.0,0.0,0.0,0.0,0.0,0.0,0.0,0.0,0.0,0.0,0.0,0.0,0.0,0.0,0.0,0.0,0.0,0.0,0.0,0.0,0.0,0.0,0.0,0.0,0.0,0.0,-0.4489,0.0,0.0,0.0,0.0,0.0,0.0,0.0,0.0,0.0,0.0,0.0,0.0,0.0,0.0,0.0,0.0,0.0,0.0,0.0,0.0,0.0,0.0,0.0,0.0,0.0,0.0,0.0,0.0,0.0,0.0,0.0,0.0,0.0,0.0,0.0,0.0,0.0,0.0,0.0,0.0,0.0,0.0,0.0,0.0,0.0,0.0,0.0,0.0,0.0,0.0,0.0,0.0,0.0,0.0,0.0,0.0,0.0,0.0,0.0,0.0,0.0,0.0,0.0,0.0,0.0,0.0,0.0,0.0,0.0,0.0,0.0,0.0,0.0,0.0,0.0,0.0,0.0,0.0,0.0,0.0,0.0,0.0,0.0,0.0,0.0,0.0,0.0,0.0,0.0,0.0,0.0,0.0,0.0,0.0,0.0,0.0,0.0,0.0,0.0,0.0,0.0,0.0,0.0,0.0,0.0,0.0,0.0,0.0,0.0,0.0,0.4082,0.3236,0.0332,-0.2287,-0.4501,0.0,0.0,0.0,0.0,0.0,0.0,0.0,0.0,0.0,0.0,0.0,0.0,0.0,0.0,0.0,0.0,0.0,0.0,0.0,0.0,0.0,0.0,0.0,0.0,0.0,0.0,0.0,0.0,0.0,0.0,0.0,0.0,0.0,0.0,0.0,0.0,0.0,0.0,0.0,0.0,0.0,0.0,0.0,0.0,0.0,0.0,0.0,0.0,0.0,0.0,0.0,0.0,0.0,0.0,0.0,0.0,0.0,0.0,0.0,0.0,0.0,0.0,0.0,0.0,0.0,0.0,0.0,0.0,0.0,0.0,0.0,0.0,0.0,0.0,0.0,0.0,0.0,0.0,0.0,0.0,0.0,0.0,0.0,0.0,0.0,0.0,0.0,0.0,0.0,0.0,0.0,0.0,0.0,0.0,0.0,0.0,0.0,0.0,0.0,0.0,0.0,0.0,0.0,0.0,0.0,0.0,0.0,0.0,0.0,0.0,0.0,0.0,-0.168,-0.4028,-0.5664,0.0,0.0,0.0,0.0,0.0,0.0,0.0,0.0,0.0,0.0,0.0,0.0,0.0,0.0,0.0,0.0,0.0,0.0,0.0,0.0,0.0,0.0,0.0,0.0,0.0,0.0,0.0,0.0,0.0,0.0,0.0,0.0,0.0,0.0,0.0,0.0,0.0,0.0,0.0,0.0,0.0,0.0,0.0,0.0,0.0,0.0,0.0,0.0,0.0,0.0,0.0,0.0,0.0,0.0,0.0,0.0,0.0,0.0,0.0,0.0,0.0,0.0,0.0,0.0,0.0,0.0,0.0,0.0,0.0,0.0,0.0,0.0,0.0,0.0,0.0,0.0,0.0,0.0,0.0,0.0,0.0,0.0,0.0,0.0,0.0,0.0,0.0,0.0,0.0,0.0,0.0,0.0,0.0,0.0,0.0,0.0,0.0,0.0,0.0,0.0,0.0,0.0,0.0,0.0,0.0,0.0,0.0,0.0,0.0,0.0,-0.0283,-0.1802,-0.4718,0.0,-0.9992,0.0,0.0,0.0,0.0,0.0,0.0,0.0,0.0,0.0,0.0,0.0,0.0,0.0,0.0,0.0,0.0,0.0,0.0,0.0,0.0,0.0,0.0,0.0,0.0,0.0,0.0,0.0,0.0,0.0,0.0,0.0,0.0,0.0,0.0,0.0,0.0,0.0,0.0,0.0,0.0,0.0,0.0,0.0,0.0,0.0,0.0,0.0,0.0,0.0,0.0,0.0,0.0,0.0,0.0,0.0,0.0,0.0,0.0,0.0,0.0,0.0,0.0,0.0,0.0,0.0,0.0,0.0,0.0,0.0,0.0,0.0,0.0,0.0,0.0,0.0,0.0,0.0,0.0,0.0,0.0,0.0,0.0,0.0,0.0,0.0,0.0,0.0,0.0,0.0,0.0,0.0,0.0,0.0,0.0,0.0,0.0,0.0,0.0,0.0,0.0,0.0,0.0,0.0,0.0,0.0,0.0,0.0,0.0,0.0,0.0,0.0,-0.557,-0.8951,-1.1005,0.0,0.0,0.0,0.0,0.0,0.0,0.0,0.0,0.0,0.0,0.0,0.0,0.0,0.0,0.0,0.0,0.0,0.0,0.0,0.0,0.0,0.0,0.0,0.0,0.0,0.0,0.0,0.0,0.0,0.0,0.0,0.0,0.0,0.0,0.0,0.0,0.0,0.0,0.0,0.0,0.0,0.0,0.0,0.0,0.0,0.0,0.0,0.0,0.0,0.0,0.0,0.0,0.0,0.0,0.0,0.0,0.0,0.0,0.0,0.0,0.0,0.0,0.0,0.0,0.0,0.0,0.0,0.0,0.0,0.0,0.0,0.0,0.0,0.0,0.0,0.0,0.0,0.0,0.0,0.0,0.0,0.0,0.0,0.0,0.0,0.0,0.0,0.0,0.0,0.0,0.0,0.0,0.0,0.0,0.0,0.0,0.0,0.0,0.0,0.0,0.0,0.0,0.0,0.0,0.0,0.0,0.0,0.0,0.0,0.0,-0.9329,0.0,-1.118,-1.3439,-1.4211,-1.3146,0.0,0.0,0.0,0.0,0.0,0.0,0.0,0.0,0.0,0.0,0.0,0.0,0.0,0.0,0.0,0.0,0.0,0.0,0.0,0.0,0.0,0.0,0.0,0.0,0.0,0.0,0.0,0.0,0.0,0.0,0.0,0.0,0.0,0.0,0.0,0.0,0.0,0.0,0.0,0.0,0.0,0.0,0.0,0.0,0.0,0.0,0.0,0.0,0.0,0.0,0.0,0.0,0.0,0.0,0.0,0.0,0.0,0.0,0.0,0.0,0.0,0.0,0.0,0.0,0.0,0.0,0.0,0.0,0.0,0.0,0.0,0.0,0.0,0.0,0.0,0.0,0.0,0.0,0.0,0.0,0.0,0.0,0.0,0.0,0.0,0.0,0.0,0.0,0.0,0.0,0.0,0.0,0.0,0.0,0.0,0.0,0.0,0.0,0.0,0.0,0.0,0.0,0.0,0.0,0.0,0.0,0.0,0.0,0.0,-1.8452,-1.9157,-1.882,-1.8176,-1.6979,0.0,0.0,0.0,0.0,0.0,0.0,0.0,0.0,0.0,0.0,0.0,0.0,0.0,0.0,0.0,0.0,0.0,0.0,0.0,0.0,0.0,0.0,0.0,0.0,0.0,0.0,0.0,0.0,0.0,0.0,0.0,0.0,0.0,0.0,0.0,0.0,0.0,0.0,0.0,0.0,0.0,0.0,0.0,0.0,0.0,0.0,0.0,0.0,0.0,0.0,0.0,0.0,0.0,0.0,0.0,0.0,0.0,0.0,0.0,0.0,0.0,0.0,0.0,0.0,0.0,0.0,0.0,0.0,0.0,0.0,0.0,0.0,0.0,0.0,0.0,0.0,0.0,0.0,0.0,0.0,0.0,0.0,0.0,0.0,0.0,0.0,0.0,0.0,0.0,0.0,0.0,0.0,0.0,0.0,0.0,0.0,0.0,0.0,0.0,0.0,0.0,0.0,0.0,0.0,0.0,0.0,0.0,0.0,0.0,-1.5928,-1.8735,-2.0864,0.0,-2.0274,-1.8531,0.0,0.0,0.0,0.0,0.0,0.0,0.0,0.0,0.0,0.0,0.0,0.0,0.0,0.0,0.0,0.0,0.0,0.0,0.0,0.0,0.0,0.0,0.0,0.0,0.0,0.0,0.0,0.0,0.0,0.0,0.0,0.0,0.0,0.0,0.0,0.0,0.0,0.0,0.0,0.0,0.0,0.0,0.0,0.0,0.0,0.0,0.0,0.0,0.0,0.0,0.0,0.0,0.0,0.0,0.0,0.0,0.0,0.0,0.0,0.0,0.0,0.0,0.0,0.0,0.0,0.0,0.0,0.0,0.0,0.0,0.0,0.0,0.0,0.0,0.0,0.0,0.0,0.0,0.0,0.0,0.0,0.0,0.0,0.0,0.0,0.0,0.0,0.0,0.0,0.0,0.0,0.0,0.0,0.0,0.0,0.0,0.0,0.0,0.0,0.0,0.0,0.0,0.0,0.0,0.0,0.0,0.0,0.0,0.0,-1.9955,0.0,-2.3883,0.0,-2.2765,-2.0481,0.0,0.0,0.0,0.0,0.0,0.0,0.0,0.0,0.0,0.0,0.0,0.0,0.0,0.0,0.0,0.0,0.0,0.0,0.0,0.0,0.0,0.0,0.0,0.0,0.0,0.0,0.0,0.0,0.0,0.0,0.0,0.0,0.0,0.0,0.0,0.0,0.0,0.0,0.0,0.0,0.0,0.0,0.0,0.0,0.0,0.0,0.0,0.0,0.0,0.0,0.0,0.0,0.0,0.0,0.0,0.0,0.0,0.0,0.0,0.0,0.0,0.0,0.0,0.0,0.0,0.0,0.0,0.0,0.0,0.0,0.0,0.0,0.0,0.0,0.0,0.0,0.0,0.0,0.0,0.0,0.0,0.0,0.0,0.0,0.0,0.0,0.0,0.0,0.0,0.0,0.0,0.0,0.0,0.0,0.0,0.0,0.0,0.0,0.0,0.0,0.0,0.0,0.0,0.0,0.0,0.0,0.0,0.0,-1.9818,-2.9549,-2.9544,-2.8667,-2.7628,-2.5726,-2.2912,0.0,0.0,0.0,0.0,0.0,0.0,0.0,0.0,0.0,0.0,0.0,0.0,0.0,0.0,0.0,0.0,0.0,0.0,0.0,0.0,0.0,0.0,0.0,0.0,0.0,0.0,0.0,0.0,0.0,0.0,0.0,0.0,0.0,0.0,0.0,0.0,0.0,0.0,0.0,0.0,0.0,0.0,0.0,0.0,0.0,0.0,0.0,0.0,0.0,0.0,0.0,0.0,0.0,0.0,0.0,0.0,0.0,0.0,0.0,0.0,0.0,0.0,0.0,0.0,0.0,0.0,0.0,0.0,0.0,0.0,0.0,0.0,0.0,0.0,0.0,0.0,0.0,0.0,0.0,0.0,0.0,0.0,0.0,0.0,0.0,0.0,0.0,0.0,0.0,0.0,0.0,0.0,0.0,0.0,0.0,0.0,0.0,0.0,0.0,0.0,0.0,0.0,0.0,0.0,0.0,0.0,0.0,0.0,0.0,-2.8421,-2.8971,-2.9337,-2.9475,-2.6364,-2.426,0.0,0.0,0.0,0.0,0.0,0.0,0.0,0.0,0.0,0.0,0.0,0.0,0.0,0.0,0.0,0.0,0.0,0.0,0.0,0.0,0.0,0.0,0.0,0.0,0.0,0.0,0.0,0.0,0.0,0.0,0.0,0.0,0.0,0.0,0.0,0.0,0.0,0.0,0.0,0.0,0.0,0.0,0.0,0.0,0.0,0.0,0.0,0.0,0.0,0.0,0.0,0.0,0.0,0.0,0.0,0.0,0.0,0.0,0.0,0.0,0.0,0.0,0.0,0.0,0.0,0.0,0.0,0.0,0.0,0.0,0.0,0.0,0.0,0.0,0.0,0.0,0.0,0.0,0.0,0.0,0.0,0.0,0.0,0.0,0.0,0.0,0.0,0.0,0.0,0.0,0.0,0.0,0.0,0.0,0.0,0.0,0.0,0.0,0.0,0.0,0.0,0.0,0.0,0.0,0.0,0.0,0.0,0.0,0.0,-2.8717,-3.005,-3.063,-3.0354,-2.7507,-2.5589,-2.4724,0.0,0.0,0.0,0.0,0.0,0.0,0.0,0.0,0.0,0.0,0.0,0.0,0.0,0.0,0.0,0.0,0.0,0.0,0.0,0.0,0.0,0.0,0.0,0.0,0.0,0.0,0.0,0.0,0.0,0.0,0.0,0.0,0.0,0.0,0.0,0.0,0.0,0.0,0.0,0.0,0.0,0.0,0.0,0.0,0.0,0.0,0.0,0.0,0.0,0.0,0.0,0.0,0.0,0.0,0.0,0.0,0.0,0.0,0.0,0.0,0.0,0.0,0.0,0.0,0.0,0.0,0.0,0.0,0.0,0.0,0.0,0.0,0.0,0.0,0.0,0.0,0.0,0.0,0.0,0.0,0.0,0.0,0.0,0.0,0.0,0.0,0.0,0.0,0.0,0.0,0.0,0.0,0.0,0.0,0.0,0.0,0.0,0.0,0.0,0.0,0.0,0.0,0.0,0.0,0.0,0.0,0.0,0.0,-3.0143,-3.2543,-3.2661,-3.0386,-2.9112,-2.6925,0.0,0.0,0.0,0.0,0.0,0.0,0.0,0.0,0.0,0.0,0.0,0.0,0.0,0.0,0.0,0.0,0.0,0.0,0.0,0.0,0.0,0.0,0.0,0.0,0.0,0.0,0.0,0.0,0.0,0.0,0.0,0.0,0.0,0.0,0.0,0.0,0.0,0.0,0.0,0.0,0.0,0.0,0.0,0.0,0.0,0.0,0.0,0.0,0.0,0.0,0.0,0.0,0.0,0.0,0.0,0.0,0.0,0.0,0.0,0.0,0.0,0.0,0.0,0.0,0.0,0.0,0.0,0.0,0.0,0.0,0.0,0.0,0.0,0.0,0.0,0.0,0.0,0.0,0.0,0.0,0.0,0.0,0.0,0.0,0.0,0.0,0.0,0.0,0.0,0.0,0.0,0.0,0.0,0.0,0.0,0.0,0.0,0.0,0.0,0.0,0.0,0.0,0.0,0.0,0.0,0.0,0.0,0.0,0.0,-2.9454,-3.2179,-3.3234,-3.2371,-2.987,-2.8017,0.0,0.0,0.0,0.0,0.0,0.0,0.0,0.0,0.0,0.0,0.0,0.0,0.0,0.0,0.0,0.0,0.0,0.0,0.0,0.0,0.0,0.0,0.0,0.0,0.0,0.0,0.0,0.0,0.0,0.0,0.0,0.0,0.0,0.0,0.0,0.0,0.0,0.0,0.0,0.0,0.0,0.0,0.0,0.0,0.0,0.0,0.0,0.0,0.0,0.0,0.0,0.0,0.0,0.0,0.0,0.0,0.0,0.0,0.0,0.0,0.0,0.0,0.0,0.0,0.0,0.0,0.0,0.0,0.0,0.0,0.0,0.0,0.0,0.0,0.0,0.0,0.0,0.0,0.0,0.0,0.0,0.0,0.0,0.0,0.0,0.0,0.0,0.0,0.0,0.0,0.0,0.0,0.0,0.0,0.0,0.0,0.0,0.0,0.0,0.0,0.0,0.0,0.0,0.0,0.0,0.0,0.0,0.0,-2.9185,-3.0004,-3.1876,-3.279,-3.2598,-3.0381,-2.8675,0.0,0.0,0.0,0.0,0.0,0.0,0.0,0.0,0.0,0.0,0.0,0.0,0.0,0.0,0.0,0.0,0.0,0.0,0.0,0.0,0.0,0.0,0.0,0.0,0.0,0.0,0.0,0.0,0.0,0.0,0.0,0.0,0.0,0.0,0.0,0.0,0.0,0.0,0.0,0.0,0.0,0.0,0.0,0.0,0.0,0.0,0.0,0.0,0.0,0.0,0.0,0.0,0.0,0.0,0.0,0.0,0.0,0.0,0.0,0.0,0.0,0.0,0.0,0.0,0.0,0.0,0.0,0.0,0.0,0.0,0.0,0.0,0.0,0.0,0.0,0.0,0.0,0.0,0.0,0.0,0.0,0.0,0.0,0.0,0.0,0.0,0.0,0.0,0.0,0.0,0.0,0.0,0.0,0.0,0.0,0.0,0.0,0.0,0.0,0.0,0.0,0.0,0.0,0.0,0.0,0.0,0.0,0.0,-2.9836,-3.1029,-3.1515,-3.1711,-3.1627,-3.0626,-2.9031,0.0,0.0,0.0,0.0,0.0,0.0,0.0,0.0,0.0,0.0,0.0,0.0,0.0,0.0,0.0,0.0,0.0,0.0,0.0,0.0,0.0,0.0,0.0,0.0,0.0,0.0,0.0,0.0,0.0,0.0,0.0,0.0,0.0,0.0,0.0,0.0,0.0,0.0,0.0,0.0,0.0,0.0,0.0,0.0,0.0,0.0,0.0,0.0,0.0,0.0,0.0,0.0,0.0,0.0,0.0,0.0,0.0,0.0,0.0,0.0,0.0,0.0,0.0,0.0,0.0,0.0,0.0,0.0,0.0,0.0,0.0,0.0,0.0,0.0,0.0,0.0,0.0,0.0,0.0,0.0,0.0,0.0,0.0,0.0,0.0,0.0,0.0,0.0,0.0,0.0,0.0,0.0,0.0,0.0,0.0,0.0,0.0,0.0,0.0,0.0,0.0,0.0,0.0,0.0,0.0,0.0,0.0,0.0,-3.0075,-2.952,-3.0774,-3.1216,-3.0666,-3.026,-2.9145,0.0,0.0,0.0,0.0,0.0,0.0,0.0,0.0,0.0,0.0,0.0,0.0,0.0,0.0,0.0,0.0,0.0,0.0,0.0,0.0,0.0,0.0,0.0,0.0,0.0,0.0,0.0,0.0,0.0,0.0,0.0,0.0,0.0,0.0,0.0,0.0,0.0,0.0,0.0,0.0,0.0,0.0,0.0,0.0,0.0,0.0,0.0,0.0,-1.9245,0.0,0.0,0.0,0.0,0.0,0.0,0.0,0.0,0.0,0.0,0.0,0.0,0.0,0.0,0.0,0.0,0.0,0.0,0.0,0.0,0.0,0.0,0.0,0.0,0.0,0.0,0.0,0.0,0.0,0.0,0.0,0.0,0.0,0.0,0.0,0.0,0.0,0.0,0.0,0.0,0.0,0.0,0.0,0.0,0.0,0.0,0.0,0.0,0.0,0.0,0.0,0.0,0.0,0.0,0.0,0.0,0.0,0.0,0.0,-3.0664,-3.0078,-3.0567,-3.0688,-3.0309,-2.9947,-2.8749,0.0,0.0,0.0,0.0,0.0,0.0,0.0,0.0,0.0,0.0,0.0,0.0,0.0,0.0,0.0,0.0,0.0,0.0,0.0,0.0,0.0,0.0,0.0,0.0,0.0,0.0,0.0,0.0,0.0,0.0,0.0,0.0,0.0,0.0,0.0,0.0,0.0,0.0,0.0,0.0,0.0,0.0,0.0,0.0,0.0,0.0,0.0,0.0,0.0,0.0,0.0,0.0,0.0,0.0,0.0,0.0,0.0,0.0,0.0,0.0,0.0,0.0,0.0,0.0,0.0,0.0,0.0,0.0,0.0,0.0,0.0,0.0,0.0,0.0,0.0,0.0,0.0,0.0,0.0,0.0,0.0,0.0,0.0,0.0,0.0,0.0,0.0,0.0,0.0,0.0,0.0,0.0,0.0,0.0,0.0,0.0,0.0,0.0,0.0,0.0,0.0,0.0,0.0,0.0,0.0,0.0,0.0,-2.993,-3.1132,-3.1145,-3.0402,-2.9946,-2.9876,-2.9162,-2.7636,-2.5211,0.0,0.0,0.0,0.0,0.0,0.0,0.0,0.0,0.0,0.0,0.0,0.0,0.0,0.0,0.0,0.0,0.0,0.0,0.0,0.0,0.0,0.0,0.0,0.0,0.0,0.0,0.0,0.0,0.0,0.0,0.0,0.0,0.0,0.0,0.0,0.0,0.0,0.0,-1.6113,-2.0359,0.0,0.0,0.0,0.0,0.0,0.0,0.0,0.0,-2.3617,0.0,0.0,0.0,0.0,0.0,0.0,0.0,0.0,0.0,0.0,0.0,0.0,0.0,0.0,0.0,0.0,0.0,0.0,0.0,0.0,0.0,0.0,0.0,0.0,0.0,0.0,0.0,0.0,0.0,0.0,0.0,0.0,0.0,0.0,0.0,0.0,0.0,0.0,0.0,0.0,0.0,0.0,0.0,0.0,0.0,0.0,0.0,0.0,0.0,0.0,0.0,0.0,0.0,0.0,0.0,0.0,-2.9589,-3.0074,-3.0506,-3.092,-2.9436,-2.8372,-2.7875,-2.6695,-2.491,-2.2632,0.0,0.0,0.0,0.0,0.0,0.0,0.0,0.0,0.0,0.0,0.0,0.0,0.0,0.0,0.0,0.0,0.0,0.0,0.0,0.0,0.0,0.0,0.0,0.0,0.0,0.0,0.0,0.0,0.0,0.0,0.0,0.0,0.0,0.0,0.0,0.0,0.0,0.0,0.0,-2.3578,-2.5834,0.0,0.0,0.0,0.0,0.0,0.0,0.0,0.0,-2.5786,0.0,0.0,0.0,0.0,0.0,0.0,0.0,0.0,0.0,0.0,0.0,0.0,0.0,0.0,0.0,0.0,0.0,0.0,0.0,0.0,0.0,0.0,0.0,0.0,0.0,0.0,0.0,0.0,0.0,0.0,0.0,0.0,0.0,0.0,0.0,0.0,0.0,0.0,0.0,0.0,0.0,0.0,0.0,0.0,0.0,0.0,0.0,0.0,0.0,0.0,0.0,0.0,0.0,0.0,0.0,-2.8631,-3.0099,-3.0604,-3.0029,-2.8607,-2.729,-2.6179,-2.5107,-2.3275,0.0,0.0,0.0,0.0,0.0,0.0,0.0,0.0,0.0,0.0,0.0,0.0,0.0,0.0,0.0,0.0,0.0,0.0,0.0,0.0,0.0,0.0,0.0,0.0,0.0,0.0,0.0,0.0,0.0,0.0,0.0,0.0,0.0,0.0,0.0,0.0,0.0,0.0,0.0,0.0,-2.4599,-2.6862,-2.7952,0.0,0.0,0.0,0.0,0.0,0.0,-2.6179,-2.6609,0.0,0.0,0.0,0.0,0.0,0.0,0.0,0.0,0.0,0.0,0.0,0.0,0.0,0.0,0.0,0.0,0.0,0.0,0.0,0.0,0.0,0.0,0.0,0.0,0.0,0.0,0.0,0.0,0.0,0.0,0.0,0.0,0.0,0.0,0.0,0.0,0.0,0.0,0.0,0.0,0.0,0.0,0.0,0.0,0.0,0.0,0.0,0.0,0.0,0.0,0.0,0.0,0.0,0.0,0.0,-2.7227,-2.9523,-3.0084,-2.8754,-2.7364,-2.593,-2.439,-2.3433,-2.1747,0.0,0.0,0.0,0.0,0.0,0.0,0.0,0.0,0.0,0.0,0.0,0.0,0.0,0.0,0.0,0.0,0.0,0.0,0.0,0.0,0.0,0.0,0.0,0.0,0.0,0.0,0.0,0.0,0.0,0.0,0.0,0.0,0.0,0.0,0.0,0.0,0.0,0.0,0.0,0.0,0.0,-2.7771,-2.9858,-2.8835,0.0,0.0,0.0,0.0,-2.641,-2.7011,0.0,0.0,0.0,0.0,0.0,0.0,0.0,0.0,0.0,0.0,0.0,0.0,0.0,0.0,0.0,0.0,0.0,0.0,0.0,0.0,0.0,0.0,0.0,0.0,0.0,0.0,0.0,0.0,0.0,0.0,0.0,0.0,0.0,0.0,0.0,0.0,0.0,0.0,0.0,0.0,0.0,0.0,0.0,0.0,0.0,0.0,0.0,0.0,0.0,0.0,0.0,0.0,0.0,0.0,0.0,0.0,-2.6957,-2.7604,-2.764,-2.7043,-2.5264,-2.3592,-2.2092,-2.0946,-1.9539,0.0,0.0,0.0,0.0,0.0,0.0,0.0,0.0,0.0,0.0,0.0,0.0,0.0,0.0,0.0,0.0,0.0,0.0,0.0,0.0,0.0,0.0,0.0,0.0,0.0,0.0,0.0,0.0,0.0,0.0,0.0,0.0,0.0,0.0,0.0,0.0,0.0,0.0,0.0,0.0,0.0,-2.9271,-2.9404,-2.8904,-2.8472,0.0,0.0,0.0,-2.8827,-2.7982,0.0,0.0,0.0,0.0,0.0,0.0,0.0,0.0,0.0,0.0,0.0,0.0,0.0,0.0,0.0,0.0,0.0,0.0,0.0,0.0,0.0,0.0,0.0,0.0,0.0,0.0,0.0,0.0,0.0,0.0,0.0,0.0,0.0,0.0,0.0,0.0,0.0,0.0,0.0,0.0,0.0,0.0,0.0,0.0,0.0,0.0,0.0,0.0,0.0,0.0,0.0,0.0,0.0,0.0,0.0,-2.3787,-2.4155,-2.4798,-2.4679,-2.3617,-2.1893,-2.0387,-1.919,-1.8534,-1.7477,0.0,0.0,0.0,0.0,0.0,0.0,0.0,0.0,0.0,0.0,0.0,0.0,0.0,0.0,0.0,0.0,0.0,0.0,0.0,0.0,0.0,0.0,0.0,0.0,0.0,0.0,0.0,0.0,0.0,0.0,0.0,0.0,0.0,0.0,0.0,0.0,0.0,0.0,0.0,0.0,0.0,0.0,-3.0291,-2.9981,0.0,0.0,0.0,-2.7453,-2.8026,0.0,0.0,0.0,0.0,0.0,0.0,0.0,0.0,0.0,0.0,0.0,0.0,0.0,0.0,0.0,0.0,0.0,0.0,0.0,0.0,0.0,0.0,0.0,0.0,0.0,0.0,0.0,0.0,0.0,0.0,0.0,0.0,0.0,0.0,0.0,0.0,0.0,0.0,0.0,0.0,0.0,0.0,0.0,0.0,0.0,0.0,0.0,0.0,0.0,0.0,0.0,0.0,0.0,0.0,0.0,0.0,0.0,-2.1236,-2.2309,-2.215,-2.065,-1.9318,-1.8198,-1.7468,-1.7071,0.0,0.0,0.0,0.0,0.0,0.0,0.0,0.0,0.0,0.0,0.0,0.0,0.0,0.0,0.0,0.0,0.0,0.0,0.0,0.0,0.0,0.0,0.0,0.0,0.0,0.0,0.0,-0.8975,0.0,0.0,0.0,0.0,0.0,0.0,0.0,0.0,0.0,0.0,0.0,0.0,0.0,0.0,-2.8742,-3.0563,-3.0357,-2.9853,0.0,0.0,-2.7612,-2.7542,-2.721,-2.6674,0.0,0.0,0.0,0.0,0.0,0.0,0.0,0.0,0.0,0.0,0.0,0.0,0.0,0.0,0.0,0.0,0.0,0.0,0.0,0.0,0.0,0.0,0.0,0.0,0.0,0.0,0.0,0.0,0.0,0.0,0.0,0.0,0.0,0.0,0.0,0.0,0.0,0.0,0.0,0.0,0.0,0.0,0.0,0.0,0.0,0.0,0.0,0.0,0.0,0.0,0.0,0.0,0.0,0.0,0.0,-1.9121,-2.056,-2.0603,-1.9157,-1.8364,-1.7939,-1.7939,-1.7119,-1.6311,0.0,0.0,0.0,0.0,0.0,0.0,0.0,0.0,0.0,0.0,0.0,0.0,0.0,0.0,0.0,0.0,0.0,0.0,0.0,0.0,0.0,0.0,0.0,0.0,0.0,0.0,0.0,0.0,0.0,0.0,0.0,0.0,0.0,0.0,0.0,0.0,0.0,0.0,0.0,0.0,0.0,-2.9439,-2.9277,-2.9329,-2.9268,0.0,0.0,-2.7253,-2.8656,-2.7538,-2.6432,-2.6077,0.0,0.0,0.0,0.0,0.0,0.0,0.0,0.0,0.0,0.0,0.0,0.0,0.0,0.0,0.0,0.0,0.0,0.0,0.0,0.0,0.0,0.0,0.0,0.0,0.0,0.0,0.0,0.0,0.0,0.0,0.0,0.0,0.0,0.0,0.0,0.0,0.0,0.0,0.0,0.0,0.0,0.0,0.0,0.0,0.0,0.0,0.0,0.0,0.0,0.0,0.0,0.0,0.0,-1.6407,-1.5827,-1.6375,-1.6664,-1.6592,-1.5847,-1.5641,-1.6318,-1.6186,-1.5673,0.0,0.0,0.0,0.0,0.0,0.0,0.0,0.0,0.0,0.0,0.0,0.0,0.0,0.0,0.0,0.0,0.0,0.0,0.0,0.0,0.0,0.0,0.0,0.0,0.0,0.0,0.0,0.0,-1.2862,-1.5303,-1.6459,0.0,0.0,0.0,0.0,0.0,0.0,0.0,0.0,0.0,0.0,-2.8837,-2.8985,-2.8629,0.0,0.0,-2.7288,-2.6771,-2.7378,-2.633,-2.5542,-2.5742,-2.4798,0.0,0.0,0.0,0.0,0.0,0.0,0.0,0.0,0.0,0.0,0.0,0.0,0.0,0.0,0.0,0.0,0.0,0.0,0.0,0.0,0.0,0.0,0.0,0.0,0.0,0.0,0.0,0.0,0.0,0.0,0.0,0.0,0.0,0.0,0.0,0.0,0.0,0.0,0.0,0.0,0.0,0.0,0.0,0.0,0.0,0.0,0.0,0.0,0.0,0.0,0.0,0.0,-1.3115,-1.2901,-1.3162,-1.3894,-1.4981,-1.4538,-1.4746,-1.5643,-1.5861,-1.5459,0.0,0.0,0.0,0.0,0.0,0.0,0.0,0.0,0.0,0.0,0.0,0.0,0.0,0.0,0.0,0.0,0.0,0.0,0.0,0.0,0.0,0.0,0.0,0.0,0.0,0.0,0.0,0.0,-1.3993,-1.6502,-1.733,0.0,0.0,0.0,0.0,0.0,0.0,0.0,0.0,0.0,0.0,-2.8457,-2.854,-2.8052,-2.7617,-2.7351,-2.685,-2.6521,-2.6521,-2.595,-2.5624,-2.5824,0.0,0.0,0.0,0.0,0.0,0.0,0.0,0.0,0.0,0.0,0.0,0.0,0.0,0.0,0.0,0.0,0.0,0.0,0.0,0.0,0.0,0.0,0.0,0.0,0.0,0.0,0.0,0.0,0.0,0.0,0.0,0.0,0.0,0.0,0.0,0.0,0.0,0.0,0.0,0.0,0.0,0.0,0.0,0.0,0.0,0.0,0.0,0.0,0.0,0.0,0.0,0.0,0.0,0.0,-1.0557,-1.1628,-1.2943,-1.4421,-1.5007,-1.5669,-1.6583,-1.6279,-1.584,-1.5361,0.0,0.0,0.0,0.0,0.0,0.0,0.0,0.0,0.0,0.0,0.0,0.0,0.0,0.0,0.0,0.0,0.0,0.0,0.0,0.0,0.0,0.0,0.0,0.0,0.0,0.0,-1.2107,-1.5683,-1.79,0.0,0.0,0.0,0.0,0.0,0.0,0.0,0.0,0.0,0.0,-2.8037,-2.8538,-2.7815,-2.7723,-2.7443,-2.6671,-2.6559,-2.6546,-2.649,-2.6892,-2.7067,0.0,0.0,0.0,0.0,0.0,0.0,0.0,0.0,0.0,0.0,0.0,0.0,0.0,0.0,0.0,0.0,0.0,0.0,0.0,0.0,0.0,0.0,0.0,0.0,0.0,0.0,0.0,-2.1911,-2.081,0.0,0.0,0.0,0.0,0.0,0.0,0.0,0.0,0.0,0.0,0.0,-1.8386,-1.9044,0.0,0.0,0.0,0.0,0.0,0.0,0.0,0.0,0.0,0.0,0.0,0.0,-0.8851,-0.9041,-1.0057,-1.161,-1.3424,-1.4162,-1.5053,-1.6269,-1.6326,-1.5941,-1.501,0.0,0.0,0.0,0.0,0.0,0.0,0.0,0.0,0.0,0.0,0.0,0.0,0.0,0.0,0.0,0.0,0.0,0.0,0.0,0.0,0.0,0.0,0.0,0.0,0.0,-1.4216,0.0,0.0,0.0,0.0,0.0,0.0,0.0,0.0,0.0,0.0,0.0,-2.7264,-2.7384,-2.8105,-2.8199,-2.7092,-2.7237,-2.7341,0.0,0.0,0.0,0.0,0.0,0.0,0.0,0.0,0.0,0.0,0.0,0.0,0.0,0.0,-2.7795,-2.5937,-2.531,-2.5059,-2.5059,0.0,0.0,0.0,0.0,0.0,0.0,0.0,0.0,0.0,0.0,0.0,0.0,0.0,0.0,0.0,0.0,-2.0129,0.0,0.0,0.0,0.0,0.0,0.0,0.0,0.0,-1.9598,-1.9542,-1.9084,-1.9372,-1.9145,0.0,-1.7354,-1.5833,0.0,0.0,0.0,0.0,0.0,0.0,0.0,0.0,-0.7311,-0.7784,-0.8664,-1.0137,-1.2173,-1.338,-1.445,-1.5381,-1.5898,-1.5719,-1.4851,-1.4512,-1.4267,0.0,0.0,0.0,0.0,0.0,0.0,0.0,0.0,0.0,0.0,0.0,0.0,0.0,0.0,0.0,0.0,0.0,0.0,0.0,0.0,0.0,0.0,0.0,-1.5947,0.0,0.0,0.0,0.0,0.0,0.0,0.0,0.0,0.0,-2.6317,-2.7476,-2.8132,-2.7828,-2.8278,-2.8222,-2.7175,0.0,0.0,0.0,0.0,0.0,0.0,0.0,-2.7971,-2.8335,-2.826,-2.821,-2.836,-2.885,-2.9164,-2.8976,0.0,0.0,-2.7394,-2.6892,-2.6753,-2.6766,-2.6897,-2.7017,-2.7071,-2.7341,-2.7385,0.0,0.0,0.0,0.0,0.0,0.0,0.0,0.0,-2.4589,-2.332,0.0,-2.1033,0.0,0.0,0.0,0.0,0.0,0.0,0.0,0.0,-2.0449,-2.0117,-1.9288,-1.8462,-1.8008,-1.7949,-1.7055,-1.5913,-1.4653,-1.2292,0.0,0.0,0.0,0.0,0.0,0.0,-0.5885,-0.6881,-0.744,-0.873,-1.0856,-1.275,-1.3891,-1.4282,-1.5001,-1.5225,-1.4844,-1.4814,-1.4884,-1.507,-1.4081,0.0,0.0,0.0,0.0,0.0,0.0,0.0,0.0,0.0,0.0,0.0,0.0,0.0,0.0,0.0,0.0,0.0,0.0,0.0,0.0,-1.6519,0.0,0.0,0.0,0.0,0.0,0.0,0.0,0.0,0.0,0.0,-2.64,-2.8095,-2.8938,-2.8268,0.0,0.0,0.0,0.0,-2.8122,-2.8134,-2.816,-2.8172,-2.8172,-2.8599,-2.895,-2.895,0.0,0.0,-2.9051,-2.9415,-2.9603,-2.9076,-2.9428,-2.9779,-2.9716,-2.9214,-2.8888,-2.8875,-2.8487,-2.8188,-2.8189,-2.8197,-2.8176,-3.0906,0.0,0.0,0.0,0.0,-2.7438,-2.7147,-2.7254,-2.5223,-2.3932,-2.3073,-2.2374,0.0,0.0,0.0,0.0,0.0,0.0,-2.1124,-2.0724,-2.025,-1.9746,-1.9309,-1.8677,-1.8281,-1.7949,-1.6652,-1.5723,-1.5006,-1.2969,-1.1013,-0.9165,0.0,0.0,0.0,0.0,-0.5874,-0.6852,-0.7292,-0.8518,-1.0732,-1.2017,-1.3442,-1.505,-1.5294,-1.5352,-1.5234,-1.5234,-1.5153,-1.4894,-1.4582,0.0,0.0,0.0,0.0,0.0,0.0,0.0,0.0,0.0,0.0,0.0,0.0,0.0,0.0,0.0,0.0,0.0,0.0,0.0,-1.9571,-1.9567,-1.9842,0.0,0.0,0.0,0.0,0.0,0.0,0.0,0.0,0.0,-2.5849,-2.7717,-2.8897,0.0,0.0,-2.8737,-2.8185,-2.8436,-2.8687,-2.8699,0.0,0.0,0.0,-2.944,-2.9553,-2.9541,-2.9679,-2.9729,-2.9566,-2.9679,-2.9741,-2.9566,-2.9679,-2.9779,-2.9779,-2.9666,-2.9541,-2.9541,-2.9389,-2.9301,-2.9328,-2.9327,-2.9188,-3.1891,-3.0585,-2.9985,-2.9644,-2.9388,-2.8199,-2.7937,-2.8213,-2.6156,-2.505,-2.4751,-2.4013,-2.2831,-2.134,-2.0887,0.0,0.0,0.0,-2.1807,-2.1813,-2.0641,-1.9993,-1.9748,-1.8792,-1.8271,-1.794,-1.6738,-1.5803,-1.5163,-1.3593,-1.2107,-1.0592,0.0,0.0,-0.7544,-0.6873,-0.6894,-0.7468,-0.8005,-0.8898,-1.012,-1.1685,-1.3425,-1.5294,-1.542,-1.542,-1.542,-1.542,-1.5293,-1.5049,-1.5189,-1.5165,0.0,0.0,0.0,0.0,0.0,0.0,0.0,0.0,0.0,0.0,0.0,-1.7696,0.0,0.0,0.0,0.0,-2.0352,-2.0997,-2.1652,-2.2031,0.0,0.0,0.0,0.0,0.0,0.0,0.0,-2.5188,-2.5113,-2.5183,-2.5585,-2.6939,-2.8125,-2.8525,-2.859,-2.8645,-2.875,0.0,-2.9277,-2.9277,-2.9566,-2.9779,-2.9779,-2.9779,-2.9779,-2.9779,-2.9779,-2.9779,-2.9779,-2.9779,-2.9779,-2.9779,-2.9779,-2.9779,-2.9779,-2.9779,-2.9779,-2.9779,-2.9779,-2.9779,-2.9779,-2.9779,-2.9654,-3.2313,-3.2195,-3.0768,-3.0218,-3.0168,-2.892,-2.8442,-2.8415,-2.7071,-2.6496,-2.6443,-2.5797,-2.487,-2.3775,-2.2558,0.0,0.0,-2.2385,-2.2589,-2.2944,-2.1353,-2.059,-2.0409,-1.8787,-1.8008,-1.7949,-1.7075,-1.607,-1.5163,-1.4163,-1.31,-1.1911,-1.1103,-1.0159,-0.8964,-0.8601,-0.8435,-0.8518,-0.9254,-0.9748,-0.9796,-1.2026,-1.3925,-1.541,-1.5459,-1.5459,-1.542,-1.542,-1.542,-1.5517,-1.5797,-1.5976,-1.6074,0.0,0.0,0.0,0.0,0.0,0.0,0.0,0.0,0.0,0.0,0.0,0.0,0.0,0.0,0.0,-2.3483,0.0,-2.321,-2.3841,0.0,0.0,0.0,-2.4815,-2.3472,-2.4513,-2.5172,-2.487,0.0,0.0,0.0,0.0,-2.6637,-2.7683,-2.7912,-2.8347,-2.9378,-2.9509,-2.9624,-2.9586,-2.9702,-2.9779,-2.9779,-2.9779,-2.9779,-2.9779,-2.9714,-2.9611,-2.9702,-2.9611,-2.9624,-2.9779,-2.9779,-2.9779,-2.9779,-2.9779,-2.9779,-2.9779,-2.9779,-2.9779,-2.9779,-2.9779,-2.9779,-3.2313,-3.2229,-3.1309,-3.0687,-3.0251,-2.9496,-2.89,-2.84,-2.7056,-2.6496,-2.651,-2.6351,-2.5776,-2.4956,-2.4104,-2.343,-2.2877,-2.2937,-2.2627,-2.2125,-2.1101,-2.0268,-1.9562,-1.8529,-1.8008,-1.794,-1.7019,-1.6097,-1.5163,-1.4171,-1.3208,-1.2198,-1.1978,-1.1213,-0.9823,-0.8879,-0.8853,-0.9662,-0.953,-1.0916,-1.3762,-1.4585,-1.5221,-1.5908,-1.5908,-1.5752,-1.543,-1.542,-1.5642,-1.6208,-1.6331,-1.6699,-1.7376,-1.7338,0.0,0.0,0.0,0.0,0.0,0.0,0.0,0.0,0.0,-2.2367,-2.1584,0.0,-2.3051,0.0,-2.3619,-2.3826,-2.3852,-2.3996,0.0,0.0,-2.4344,-2.4706,-2.5541,-2.4996,-2.4594,-2.4815,-2.4127,-2.3673,-2.3695,-2.3816,-2.4296,-2.5452,-2.6367,-2.6964,-2.7302,-2.8039,-2.8505,-2.8597,-2.9275,-2.9792,-2.9779,-2.9779,-2.9779,-2.9779,-2.9106,-2.8767,-2.9611,-2.904,-2.8767,-2.9546,-2.9779,-2.9779,-2.9779,-2.9779,-2.9779,-2.9779,-2.9779,-2.9779,-2.9779,-2.9779,-2.9779,-3.2313,-3.2205,-3.1221,-3.0435,-2.9865,-2.954,-2.8904,-2.8042,-2.7276,-2.6997,-2.6997,-2.6982,-2.639,-2.5398,-2.4951,-2.4163,-2.3125,-2.3125,-2.2689,-2.1877,-2.0985,-2.0139,-1.9299,-1.8395,-1.8008,-1.794,-1.707,-1.614,-1.5163,-1.4171,-1.3237,-1.2305,-1.2305,-1.1913,-1.1093,-1.0323,-1.0263,-1.0905,-1.097,-1.2439,-1.5415,-1.5521,-1.5722,-1.6084,-1.6125,-1.5859,-1.543,-1.569,-1.6093,-1.6492,-1.7146,-1.7829,-1.859,-1.8678,-1.8781,0.0,0.0,0.0,0.0,0.0,0.0,0.0,0.0,0.0,0.0,0.0,-2.4002,0.0,0.0,0.0,-2.516,-2.4894,-2.4729,-2.4799,-2.4508,-2.453,-2.4988,-2.4284,-2.3865,-2.3998,-2.3467,-2.3093,-2.3115,-2.3144,-2.3299,-2.3963,-2.4553,-2.54,-2.6307,-2.7046,-2.7533,-2.8016,-2.8676,-2.9287,-2.9702,-2.9365,-2.9028,-2.8937,-2.8119,-2.7775,-2.8858,-2.8518,-2.8426,-2.9534,-2.9779,-2.9779,-2.9779,-2.9779,-2.9779,-2.9779,-2.9779,-2.9779,-2.9779,-2.9779,-2.9779,-3.2201,-3.2029,-3.0825,-2.9951,-2.9406,-2.9316,-2.8638,-2.756,-2.756,-2.756,-2.756,-2.7524,-2.6692,-2.5398,-2.5287,-2.4496,-2.3125,-2.3017,-2.2506,-2.1678,-2.0846,-1.9944,-1.911,-1.8345,-1.793,-1.7852,-1.6995,-1.6,-1.5097,-1.4148,-1.3222,-1.2251,-1.2245,-1.2245,-1.2238,-1.2101,-1.2036,-1.2077,-1.2944,-1.4244,-1.5959,-1.5851,-1.5916,-1.6182,-1.6255,-1.6088,-1.5604,-1.6316,-1.6793,-1.6906,-1.8176,-1.9197,-1.9805,-1.9957,-2.02,0.0,-2.0188,0.0,0.0,0.0,0.0,0.0,0.0,0.0,0.0,-2.4532,-2.4945,-2.5702,-2.592,-2.6033,-2.6183,-2.5769,-2.5245,-2.465,-2.4628,-2.4211,-2.3222,-2.3144,-2.3144,-2.3144,-2.3144,-2.3144,-2.3144,-2.3144,-2.3144,-2.3135,-2.3222,-2.3887,-2.5557,-2.6141,-2.6625,-2.7591,-2.7924,-2.8518,-2.9197,-2.8767,-2.8096,-2.7844,-2.6953,-2.6719,-2.7936,-2.8004,-2.8267,-2.9443,-2.9704,-2.9641,-2.9666,-2.9603,-2.9528,-2.9517,-2.9453,-2.9541,-2.9729,-2.9779,-2.9779,-3.1713,-3.1337,-3.0626,-2.9935,-2.9361,-2.8873,-2.8271,-2.756,-2.756,-2.756,-2.756,-2.6982,-2.6215,-2.5398,-2.4794,-2.3989,-2.3078,-2.2445,-2.1678,-2.0782,-1.9955,-1.911,-1.825,-1.7723,-1.75,-1.7434,-1.6501,-1.5538,-1.4657,-1.3961,-1.3107,-1.2029,-1.1951,-1.1957,0.0,0.0,0.0,0.0,-1.4902,-1.6094,-1.645,-1.7166,-1.7251,-1.6641,-1.7194,0.0,-1.6384,-1.7481,-1.8419,-1.8992,-1.9717,0.0,0.0,0.0,0.0,0.0,0.0,0.0,0.0,0.0,0.0,0.0,-2.3726,-2.3943,-2.4912,-2.6176,-2.6567,-2.5754,-2.6476,-2.6314,-2.4632,-2.4732,-2.4534,-2.3531,-2.3377,-2.3299,-2.3135,-2.3144,-2.3144,-2.3144,-2.3144,-2.3144,-2.3144,-2.3144,-2.3144,-2.3144,-2.3135,-2.3222,-2.3714,-2.4542,-2.521,-2.5535,-2.6873,-2.8072,-2.8426,-2.814,-2.7589,-2.6953,-2.588,-2.5931,-2.7487,-2.7325,-2.7522,-2.9316,-2.9402,-2.9063,-2.9063,-2.8761,-2.8522,-2.8417,-2.847,-2.8699,-2.9578,-2.9779,-2.9779,-3.1565,0.0,-3.0208,-2.9673,0.0,-2.8448,-2.7894,-2.756,-2.756,-2.7408,-2.7034,-2.6669,-2.5906,-2.4851,-2.4465,-2.3636,-2.2506,-2.2063,-2.1239,-1.9933,-1.9253,-1.8516,-1.7686,-1.7266,-1.7051,-1.6986,-1.5635,-1.4756,-1.4295,-1.3108,-1.2284,-1.165,-1.165,-1.1859,-1.2338,-1.3447,-1.4188,-1.4618,-1.5938,-1.6853,-1.7285,-1.7725,-1.7705,-1.708,0.0,0.0,0.0,0.0,0.0,0.0,0.0,0.0,0.0,0.0,0.0,-2.1882,-2.1895,-2.2133,-2.2686,-2.2736,-2.3314,-2.4669,-2.5059,-2.5281,-2.5354,-2.6413,-2.6806,-2.6083,-2.6062,-2.559,-2.4545,-2.4173,-2.3724,-2.3135,-2.3144,-2.3144,-2.3144,-2.3144,-2.3144,-2.3144,-2.3144,-2.3144,-2.3144,-2.3144,-2.3144,-2.3125,-2.2949,-2.2832,-2.2852,-2.3421,-2.4063,-2.4493,-2.6086,-2.7155,-2.6776,-2.6618,-2.6246,-2.5153,-2.4085,-2.4314,-2.6197,-2.6131,-2.6472,-2.8459,-2.8712,-2.8511,-2.8448,-2.8247,-2.8072,-2.8116,-2.8094,-2.8247,-2.8863,-2.8963,-2.8963,-3.164,-3.1112,-2.9892,-2.9342,-2.9125,-2.7941,-2.7345,-2.7229,0.0,0.0,0.0,-2.6229,-2.5467,-2.4292,-2.3989,-2.3148,-2.1877,-2.1553,-2.0655,-1.9267,-1.8697,-1.8049,-1.7363,-1.6855,-1.6611,-1.6486,-1.4836,-1.3983,-1.3934,-1.2265,-1.1396,-1.1356,-1.1479,-1.2052,-1.3006,-1.4538,-1.5512,-1.5962,-1.6355,-1.703,-1.7891,-1.79,-1.7801,-1.7579,-1.835,-1.8699,-1.8423,-1.9924,-2.0752,-2.074,-2.1423,-2.1983,-2.2422,-2.246,-2.2661,-2.3088,-2.3125,-2.3389,-2.3954,-2.4079,-2.4607,-2.5674,-2.6189,-2.6302,-2.5912,-2.6202,-2.6316,-2.6259,-2.5249,-2.4493,-2.4418,-2.3604,-2.3057,-2.3125,-2.3144,-2.3144,-2.3144,-2.3144,-2.3144,-2.3135,-2.3066,-2.293,-2.2901,-2.2833,-2.292,-2.2871,-2.2598,-2.2402,-2.2441,-2.2646,-2.3218,-2.4042,-2.5149,-2.5735,-2.5105,-2.4904,-2.4342,-2.3441,-2.2551,-2.2644,-2.4379,-2.5025,-2.58,-2.7817,-2.8047,-2.7971,-2.7959,-2.7833,-2.7833,-2.7821,-2.7663,-2.7591,-2.7518,-2.7432,-2.7348,-3.1914,-3.1112,-2.9908,-2.9083,-2.8462,-2.7254,-2.6347,-2.5857,-2.6408,-2.6549,-2.6457,-2.5175,-2.4509,-2.4221,-2.2847,-2.2125,-2.1815,-2.0333,-1.9552,0.0,-1.8087,-1.7514,-1.7334,-1.6543,-1.6152,-1.603,-1.4379,-1.3484,-1.3332,-1.2083,-1.1303,-1.1208,-1.1753,-1.2758,-1.397,-1.4853,-1.5569,-1.6075,-1.649,-1.696,-1.7461,-1.7471,-1.7815,-1.8425,-1.9154,-1.9727,-2.01,-2.1345,-2.201,-2.2023,-2.2589,-2.2949,-2.3012,-2.3,-2.305,-2.3065,-2.3125,-2.3389,-2.3966,-2.4443,-2.5172,-2.6214,-2.6427,-2.6615,-2.7017,-2.6335,-2.5742,-2.5258,-2.4281,-2.3463,-2.2934,-2.2683,-2.2744,-2.3076,-2.3135,-2.3135,-2.3115,-2.3115,-2.3105,-2.3086,-2.2812,-2.2502,-2.2359,-2.2211,-2.2139,-2.209,-2.2051,-2.1973,-2.1943,-2.2021,-2.2509,-2.3306,-2.3785,-2.3891,-2.3716,-2.3722,-2.3262,-2.2276,-2.2016,-2.2432,-2.4399,-2.4715,-2.5497,-2.7594,-2.7441,-2.7276,-2.7239,-2.7005,-2.6702,-2.6594,-2.6088,-2.5541,-2.5565,-2.4952,-2.4858,-3.1759,-3.0521,-2.9365,-2.8458,-2.7657,-2.621,-2.5374,-2.5027,-2.4581,-2.4736,-2.5204,-2.458,-2.38,-2.2942,-2.1946,-2.1008,-2.005,-1.904,-1.8373,-1.7839,-1.7046,-1.667,-1.6664,-1.6006,-1.5703,-1.5644,-1.4475,-1.3865,-1.3759,-1.279,-1.221,-1.2138,-1.2867,-1.3578,-1.4189,-1.4939,-1.5467,-1.5732,-1.6387,-1.6943,-1.7363,-1.7516,-1.8045,-1.8963,-1.9923,-2.067,-2.1224,-2.2196,-2.2761,-2.2749,-2.3,-2.3125,-2.3125,-2.3125,-2.3125,-2.3125,-2.3125,-2.3389,-2.3966,-2.4782,-2.5598,-2.6445,-2.6521,-2.6634,-2.6873,-2.613,-2.5405,-2.4655,-2.381,-2.3032,-2.2306,-2.2168,-2.2344,-2.2754,-2.2793,-2.2793,-2.2793,-2.2793,-2.284,-2.2968,-2.2532,-2.1952,-2.1408,-2.1665,-2.1885,-2.1865,-2.1709,-2.1465,-2.123,-2.1182,-2.142,-2.213,-2.2463,-2.2455,-2.2073,-2.2366,-2.2183,-2.1369,-2.123,-2.1768,-2.3099,-2.3406,-2.4047,-2.5242,-2.5419,-2.5289,-2.5277,-2.5087,-2.4933,-2.4838,-2.4552,-2.4192,-2.4036,-2.3368,-2.34,-3.1324,-2.9762,-2.8632,-2.7583,-2.6549,-2.4936,-2.4235,-2.4105,-2.2943,-2.2852,-2.3589,-2.3668,-2.3022,-2.1958,-2.1092,-1.9988,-1.8762,-1.803,-1.7326,-1.668,-1.6269,-1.6125,-1.6076,-1.5625,-1.542,-1.5294,-1.4569,-1.4213,-1.4094,-1.3364,-1.3122,-1.3304,-1.3906,-1.4264,-1.451,-1.5108,-1.542,-1.5459,-1.6084,-1.665,-1.7125,-1.7461,-1.8207,-1.9415,-2.03,-2.1212,-2.197,-2.2577,-2.289,-2.2902,-2.3002,-2.3125,-2.3125,-2.3125,-2.3125,-2.3125,-2.3125,-2.3389,-2.3991,-2.487,-2.5674,-2.6294,-2.6458,-2.6521,-2.649,-2.6088,-2.5441,-2.4442,-2.3567,-2.2732,-2.2169,-2.1892,-2.1904,-2.2305,-2.2373,-2.2373,-2.2373,-2.2373,-2.2389,-2.2609,-2.2132,-2.1424,-2.0961,-2.1207,-2.1543,-2.1484,-2.1289,-2.0947,-2.0644,-2.0576,-2.0732,-2.1046,-2.1454,-2.1436,-2.0789,-2.1185,-2.1349,-2.0644,-2.0605,-2.1128,-2.1876,-2.2081,-2.2489,-2.3446,-2.3644,-2.3706,-2.361,-2.3599,-2.3661,-2.3661,-2.3452,-2.3073,-2.2776,-2.2264,-2.2132,-3.054,-2.9036,-2.7859,-2.6401,-2.4777,-2.3476,-2.2885,-2.2754,-2.199,-2.1677,-2.18,-2.1744,-2.1977,-2.1968,-2.0181,-1.9179,-1.8879,-1.7461,-1.6762,-1.665,-1.6269,-1.6125,-1.6066,-1.5615,-1.542,-1.5294,-1.4628,-1.4273,-1.4213,-1.3485,-1.3425,-1.4034,-1.4154,-1.4569,-1.5225,-1.5352,-1.542,-1.542,-1.5488,-1.5742,-1.6213,-1.6908,-1.8109,-1.98,-2.0145,-2.0909,-2.2138,-2.2339,-2.2397,-2.2435,-2.2874,-2.3125,-2.3125,-2.3125,-2.3125,-2.3125,-2.3125,-2.3389,-2.3966,-2.4569,-2.5121,-2.5636,-2.6163,-2.6508,-2.6521,-2.6433,-2.6029,-2.4968,-2.3279,-2.2471,-2.2507,-2.1899,-2.1627,-2.204,-2.2099,-2.1943,-2.1943,-2.1943,-2.1904,-2.1569,-2.1393,-2.1089,-2.0732,-2.0709,-2.0762,-2.083,-2.0791,-2.0684,-2.0596,-2.0576,-2.0576,-2.0644,-2.0722,-2.0722,-2.0644,-2.0644,-2.0789,-2.0644,-2.0576,-2.0981,-2.1597,-2.1899,-2.2242,-2.2572,-2.3227,-2.3143,-2.3194,-2.3514,-2.3312,-2.29,-2.2477,-2.1855,-2.1145,-2.0787,-2.1181,-2.9369,-2.7827,-2.7048,-2.5639,-2.3955,-2.2629,-2.2099,-2.1987,-2.0974,-2.0716,-2.097,-2.0639,-2.0692,-2.0919,-1.9425,-1.8452,-1.7911,-1.6538,-1.5947,-1.5937,-1.5752,-1.5674,-1.5654,-1.5508,-1.542,-1.541,-1.505,-1.4923,-1.4874,-1.4569,-1.4569,-1.4864,-1.4923,-1.505,-1.541,-1.542,-1.542,-1.542,-1.542,-1.5508,-1.5831,-1.6812,-1.806,-1.9355,-2.0106,-2.107,-2.2151,-2.2322,-2.246,-2.2761,-2.2965,-2.3125,-2.3125,-2.3125,-2.3125,-2.3125,-2.3125,-2.3389,-2.3954,-2.4205,-2.4695,-2.5536,-2.5812,-2.6076,-2.6496,-2.6521,-2.6314,-2.5804,-2.4624,-2.3689,-2.3198,-2.2788,-2.2531,-2.2388,-2.241,-2.21,-2.1575,-2.1504,-2.1325,-2.1033,-2.0858,-2.083,-2.0614,-2.0586,-2.0576,-2.0576,-2.0576,-2.0576,-2.0576,-2.0576,-2.0576,-2.0576,-2.0576,-2.0576,-2.0566,-2.0576,-2.0566,-2.0566,-2.0576,-2.0837,-2.1008,-2.1191,-2.1303,-2.1393,-2.149,-2.1439,-2.0938,-2.1053,-2.1073,-2.1197,-2.1267,-2.0581,-1.9963,-1.9827,-2.0078,-2.8391,-2.6985,-2.6264,-2.5102,-2.3508,-2.2423,-2.1852,-2.1554,-2.0521,-2.0193,-2.0416,-1.9974,-1.9908,-1.9905,-1.9018,-1.8125,-1.7233,-1.6178,-1.5584,-1.542,-1.542,-1.542,-1.542,-1.542,-1.542,-1.542,-1.541,-1.541,-1.542,-1.542,-1.542,-1.542,-1.542,-1.542,-1.542,-1.542,-1.542,-1.542,-1.542,-1.542,-1.5584,-1.6856,-1.8047,-1.8962,-1.9915,-2.0891,-2.1807,-2.1857,-2.2108,-2.2661,-2.2836,-2.2987,-2.3125,-2.3125,-2.3125,-2.3125,-2.3125,-2.3314,-2.374,-2.3904,-2.4318,-2.5059,-2.5272,-2.5624,-2.6076,-2.6214,-2.637,-2.6452,-2.5804,-2.4992,-2.412,-2.3441,-2.3014,-2.2873,-2.2541,-2.1873,-2.15,-2.1283,-2.0928,-2.0625,-2.0625,-2.0576,-2.0576,-2.0576,-2.0576,-2.0576,-2.0576,-2.0576,-2.0576,-2.0576,-2.0576,-2.0557,-2.0478,-2.0439,-2.0518,-2.0458,-2.0468,-2.0342,-2.0283,-2.0137,-2.0215,-2.0281,-2.0262,-2.034,-1.9895,-1.9781,-1.9919,-1.9644,-1.9404,-1.9632,-1.9749,-1.971,-1.9447,-1.936,-1.9316,-2.7822,-2.664,-2.5647,-2.4655,-2.3551,-2.292,-2.23,-2.171,-2.1015,-2.0435,-1.9977,-1.9836,-1.9836,-1.978,-1.9047,-1.8278,-1.7567,-1.6786,-1.6036,-1.5468,-1.542,-1.542,-1.542,-1.542,-1.541,-1.5517,-1.5575,-1.5526,-1.5468,-1.542,-1.542,-1.542,-1.542,-1.542,-1.542,-1.542,-1.542,-1.542,-1.542,-1.542,-1.5633,-1.6845,-1.7879,-1.8612,-1.9383,-2.0188,-2.0715,-2.0819,-2.1029,-2.1568,-2.2121,-2.2598,-2.3002,-2.3125,-2.3125,-2.3125,-2.3125,-2.3078,-2.3263,-2.3665,-2.4029,-2.4167,-2.4607,-2.5084,-2.5573,-2.5699,-2.5912,-2.6458,-2.6358,-2.5873,-2.4921,-2.3661,-2.2861,-2.3213,-2.1883,-2.1359,-2.1797,-2.1111,-2.0683,-2.0576,-2.0576,-2.0576,-2.0576,-2.0576,-2.0576,-2.0576,-2.0576,-2.0576,-2.0557,-2.0566,-2.0518,-2.0439,-2.0254,-2.0088,-2.0391,-2.0223,-1.9997,-1.9883,-1.9736,-1.9453,-1.9365,-1.9336,-1.9346,-1.9336,-1.9316,-1.9316,-1.9263,-1.9228,-1.9194,-1.9309,-1.9319,-1.9216,-1.9039,-1.9223,-1.9157,-2.6928,-2.6139,-2.5128,-2.4471,-2.4032,-2.3084,-2.2543,-2.2267,-2.1272,-2.0646,-2.0396,-2.0003,-1.9798,-1.9747,-1.9527,-1.8768,-1.7578,-1.681,-1.6093,-1.5468,-1.542,-1.542,-1.5468,-1.5874,-1.612,-1.6193,-1.6553,-1.6528,-1.6093,-1.5633,-1.542,-1.542,-1.542,-1.542,-1.542,-1.542,-1.542,-1.542,-1.542,-1.5642,-1.6083,-1.7079,-1.7954,-1.8596,-1.9377,-2.0075,-2.0693,-2.0718,-2.1079,-2.1983,-2.2221,-2.2573,-2.299,-2.3125,-2.3125,-2.3125,-2.3125,-2.3125,-2.315,-2.3314,-2.3615,-2.3979,-2.4167,-2.4531,-2.5034,-2.5398,-2.5686,-2.5912,-2.6289,-2.6233,-2.6013,-2.5264,-2.4469,-2.3599,-2.2861,-2.1973,-2.1298,-2.0789,-2.0576,-2.0576,-2.0576,-2.0576,-2.0576,-2.0576,-2.0576,-2.0576,-2.0566,-2.0547,-2.0508,-2.0342,-2.0146,-2.0107,-1.9771,-1.9577,-1.9697,-1.9619,-1.9482,-1.9473,-1.9375,-1.9326,-1.9248,-1.9189,-1.9199,-1.8916,-1.8867,-1.8789,-1.8708,-1.8776,-1.8749,-1.8666,-1.8715,-1.8749,-1.8511,-1.8674,-1.8626,-2.6436,-2.5888,-2.5028,-2.4536,-2.4307,-2.3391,-2.2889,-2.2603,-2.1799,-2.1175,-2.0746,-2.0308,-2.0003,-1.985,-1.9798,-1.915,-1.8004,-1.7413,-1.68,-1.614,-1.614,-1.613,-1.6187,-1.6652,-1.6834,-1.6847,-1.7058,-1.6968,-1.6482,-1.5748,-1.542,-1.542,-1.542,-1.542,-1.542,-1.542,-1.542,-1.541,-1.5642,-1.6036,-1.6539,-1.7468,-1.8167,-1.8715,-1.9411,-1.9974,-2.0376,-2.0401,-2.0803,-2.1644,-2.1945,-2.2372,-2.2977,-2.3125,-2.3125,-2.3125,-2.3125,-2.3125,-2.3125,-2.3125,-2.3301,-2.3665,-2.374,-2.3954,-2.4494,-2.487,-2.5197,-2.5561,-2.5912,-2.6226,-2.6483,-2.6452,-2.5791,-2.4181,-2.3441,-2.2553,-2.1231,-2.0779,-2.0644,-2.0576,-2.0576,-2.0576,-2.0566,-2.0576,-2.0498,-2.0391,-2.0409,-2.037,-2.0203,-1.9922,-1.9707,-1.9687,-1.9306,-1.9102,-1.9039,-1.8965,-1.8984,-1.8994,-1.8877,-1.8926,-1.8975,-1.8945,-1.8857,-1.8564,-1.8379,-1.8262,-1.8252,-1.832,-1.8232,-1.8076,-1.8163,-1.8317,-1.8183,-1.8105,-1.8115,-2.6436,-2.5997,-2.5411,-2.4894,-2.4415,-2.3794,-2.3231,-2.2785,-2.2649,-2.1894,-2.0993,-2.0795,-2.0359,-1.9901,-1.9798,-1.9371,-1.8768,-1.8608,-1.8112,-1.7413,-1.7413,-1.7413,-1.7413,-1.7523,-1.7633,-1.7556,-1.6922,-1.6595,-1.6492,-1.5864,-1.5526,-1.541,-1.542,-1.542,-1.542,-1.542,-1.541,-1.5584,-1.6093,-1.6492,-1.6708,-1.7961,-1.8661,-1.8821,-1.9475,-1.9823,-1.9861,-1.9849,-2.0162,-2.0781,-2.123,-2.1995,-2.2887,-2.3062,-2.304,-2.3125,-2.3125,-2.3125,-2.3125,-2.3125,-2.3138,-2.3226,-2.3175,-2.3452,-2.3891,-2.4104,-2.4531,-2.5322,-2.5624,-2.5837,-2.6339,-2.6521,-2.6013,-2.4992,-2.3345,-2.2146,-2.1704,-2.1155,-2.0576,-2.0576,-2.0576,-2.0634,-2.0557,-2.0537,-2.0391,-2.0019,-1.9909,-1.9791,-1.9595,-1.9375,-1.9297,-1.9209,-1.8893,-1.863,-1.8506,-1.834,-1.8428,-1.8477,-1.832,-1.8262,-1.834,-1.8359,-1.8398,-1.8193,-1.8203,-1.8096,-1.8105,-1.8154,-1.8135,-1.8027,-1.8096,-1.8056,-1.8066,-1.8008,-1.8008,-2.6624,-2.6367,-2.5561,-2.5105,-2.4816,-2.3991,-2.3465,-2.3231,-2.2875,-2.2207,-2.1438,-2.0979,-2.0396,-1.9901,-1.9798,-1.9695,-1.9488,-1.9423,-1.8821,-1.7797,-1.7633,-1.7633,-1.7743,-1.8112,-1.8328,-1.834,-1.8124,-1.7468,-1.6595,-1.6265,-1.5921,-1.5526,-1.542,-1.542,-1.542,-1.541,-1.5584,-1.6151,-1.6379,-1.6978,-1.7907,-1.8447,-1.8939,-1.9423,-1.9683,-1.9798,-1.9798,-1.9798,-2.0075,-2.0668,-2.0882,-2.1418,-2.2322,-2.2573,-2.2736,-2.3075,-2.3125,-2.3125,-2.3125,-2.3125,-2.3125,-2.3125,-2.3125,-2.314,-2.3427,-2.3778,-2.4268,-2.5008,-2.5372,-2.5837,-2.6314,-2.6521,-2.5894,-2.4756,-2.3274,-2.1966,-2.1226,-2.0834,-2.0634,-2.0576,-2.0576,-2.0439,-2.0148,-2.0014,-1.9975,-1.958,-1.9492,-1.9407,-1.9291,-1.8975,-1.8857,-1.8799,-1.8477,-1.8262,-1.8203,-1.8174,-1.8213,-1.8262,-1.8115,-1.8008,-1.8008,-1.8008,-1.8008,-1.8008,-1.8008,-1.8008,-1.8008,-1.8008,-1.8008,-1.8008,-1.8047,-1.8037,-1.8018,-1.8008,-1.8008,-2.6708,-2.6624,-2.5819,-2.5373,-2.5089,-2.4266,-2.3767,-2.3551,-2.3187,-2.268,-2.2053,-2.139,-2.0782,-2.0194,-1.9901,-1.9798,-1.9798,-1.9798,-1.9319,-1.8501,-1.8394,-1.8447,-1.8394,-1.8543,-1.8727,-1.8555,-1.8124,-1.7413,-1.6549,-1.6208,-1.5864,-1.5478,-1.542,-1.542,-1.542,-1.542,-1.5758,-1.6436,-1.6754,-1.7468,-1.8501,-1.898,-1.9319,-1.9747,-1.9798,-1.9798,-1.9798,-1.9798,-1.9974,-2.0313,-2.0539,-2.1104,-2.1907,-2.202,-2.2159,-2.246,-2.2711,-2.2824,-2.2836,-2.3,-2.3125,-2.3125,-2.3125,-2.3138,-2.3201,-2.354,-2.3904,-2.4469,-2.4782,-2.5178,-2.5518,-2.5438,-2.5099,-2.4564,-2.3559,-2.22,-2.0999,-2.0604,-2.0634,-2.0537,-2.042,-2.0109,-1.9868,-1.9597,-1.9529,-1.9141,-1.9051,-1.8953,-1.8821,-1.8564,-1.8477,-1.8389,-1.8232,-1.8096,-1.8037,-1.8018,-1.8018,-1.8047,-1.8037,-1.8008,-1.8008,-1.8008,-1.8008,-1.8008,-1.8008,-1.8008,-1.8008,-1.8008,-1.8008,-1.8008,-1.8008,-1.8008,-1.8008,-1.8008,-1.8008,-2.6708,-2.6657,-2.6191,-2.5652,-2.5182,-2.4576,-2.4074,-2.3638,-2.3551,-2.3157,-2.2498,-2.1755,-2.1191,-2.062,-1.9839,-1.9572,-1.9723,-1.9572,-1.9496,-1.9407,-1.9368,-1.9342,-1.9294,-1.8886,-1.8608,-1.8232,-1.7302,-1.6652,-1.6322,-1.5921,-1.541,-1.542,-1.542,-1.5468,-1.5526,-1.5526,-1.5979,-1.681,-1.7357,-1.8058,-1.8821,-1.9371,-1.9747,-1.9798,-1.9798,-1.9798,-1.9798,-1.9798,-1.9798,-1.9886,-2.03,-2.0803,-2.1317,-2.1443,-2.1468,-2.1619,-2.202,-2.2209,-2.2372,-2.2611,-2.2924,-2.2987,-2.2927,-2.3125,-2.3078,-2.3213,-2.3489,-2.4017,-2.3991,-2.4045,-2.4157,-2.3863,-2.3814,-2.4051,-2.3128,-2.2052,-2.0864,-2.0459,-2.0428,-2.0409,-2.0127,-1.9759,-1.9548,-1.9297,-1.9056,-1.8723,-1.8587,-1.8468,-1.8252,-1.8164,-1.8057,-1.8018,-1.8037,-1.8027,-1.8008,-1.8008,-1.7998,-1.7969,-1.7939,-1.7871,-1.7949,-1.7978,-1.7891,-1.791,-1.792,-1.7949,-1.7959,-1.793,-1.7969,-1.8008,-1.8008,-1.8008,-1.8008,-1.7998,-1.8008,-2.6708,-2.6657,-2.6191,-2.5689,-2.5182,-2.4632,-2.4101,-2.3638,-2.3565,-2.2951,-2.2034,-2.1347,-2.0731,-1.9991,-1.9117,-1.8832,-1.907,-1.8832,-1.8618,-1.8631,-1.8618,-1.8746,-1.8911,-1.8768,-1.8112,-1.7302,-1.7135,-1.6754,-1.5806,-1.5979,-1.5864,-1.542,-1.5468,-1.57,-1.6093,-1.6208,-1.6912,-1.795,-1.8232,-1.8715,-1.9371,-1.9631,-1.9798,-1.9798,-1.9798,-1.9798,-1.9798,-1.9798,-1.9798,-1.9798,-1.9924,-2.03,-2.0815,-2.0878,-2.1016,-2.1368,-2.1581,-2.1707,-2.1732,-2.187,-2.2121,-2.2472,-2.2439,-2.2518,-2.304,-2.3065,-2.3414,-2.3729,-2.3477,-2.3171,-2.3459,-2.298,-2.2432,-2.1734,-2.1239,-2.0706,-2.0206,-1.9805,-1.9713,-1.9881,-1.9634,-1.9234,-1.8827,-1.8653,-1.8652,-1.8301,-1.8193,-1.8183,-1.8018,-1.8008,-1.8008,-1.8008,-1.8018,-1.8018,-1.8008,-1.8008,-1.7988,-1.7939,-1.7832,-1.7646,-1.7773,-1.79,-1.7754,-1.7637,-1.7703,-1.7723,-1.7715,-1.7734,-1.7842,-1.7852,-1.7998,-1.7988,-1.7988,-1.7988,-1.7998,-2.6708,-2.6657,-2.6083,-2.5428,-2.4724,-2.4112,-2.3434,-2.287,-2.2787,-2.2435,-2.1612,-2.0798,-2.0224,-1.9747,-1.8707,-1.8367,-1.8593,-1.8355,-1.8229,-1.8157,-1.7979,-1.8228,-1.8585,-1.846,-1.7784,-1.7024,-1.6743,-1.6187,-1.5584,-1.5874,-1.5758,-1.5584,-1.569,-1.6093,-1.6436,-1.6866,-1.7512,-1.8436,-1.865,-1.8943,-1.9747,-1.9798,-1.9798,-1.9798,-1.9798,-1.9798,-1.9798,-1.9798,-1.9798,-1.9798,-1.9823,-1.9962,-2.0303,-2.0288,-2.0451,-2.079,-2.1004,-2.1129,-2.1204,-2.1343,-2.1631,-2.1895,-2.1958,-2.2259,-2.2589,-2.2573,-2.2628,-2.2873,-2.2305,-2.1932,-2.1789,-2.1363,-2.0699,-2.0052,-1.9483,-1.933,-1.96,-1.9453,-1.9482,-1.9535,-1.9305,-1.8936,-1.8383,-1.8395,-1.8261,-1.8115,-1.8047,-1.8018,-1.8008,-1.7998,-1.7949,-1.7891,-1.7871,-1.7842,-1.7725,-1.7676,-1.749,-1.748,-1.7412,-1.7275,-1.7314,-1.75,-1.7393,-1.7227,-1.737,-1.7409,-1.7399,-1.7353,-1.7468,-1.7566,-1.7764,-1.7784,-1.7696,-1.7821,-1.7793,-2.6607,-2.664,-2.5913,-2.5061,-2.4209,-2.3503,-2.2789,-2.1843,-2.1814,-2.1719,-2.1322,-2.0302,-1.9798,-1.9727,-1.8382,-1.8016,-1.8116,-1.7928,-1.7928,-1.7763,-1.7542,-1.7666,-1.8203,-1.7665,-1.7133,-1.672,-1.581,-1.5515,-1.5332,-1.54,-1.5477,-1.5524,-1.6028,-1.6448,-1.672,-1.7279,-1.7989,-1.8596,-1.879,-1.9089,-1.9683,-1.9798,-1.9798,-1.9798,-1.9798,-1.9798,-1.9798,-1.9798,-1.9798,-1.9798,-1.9798,-1.9823,-1.9836,-1.9823,-1.9849,-1.9962,-2.0351,-2.063,-2.0693,-2.0953,-2.1305,-2.1436,-2.1592,-2.1939,-2.1993,-2.1638,-2.1368,-2.1764,-2.0865,-2.0237,-1.9786,-1.9384,-1.9152,-1.8783,-1.8574,-1.876,-1.9033,-1.916,-1.9262,-1.9436,-1.888,-1.8723,-1.8586,-1.837,-1.8018,-1.8037,-1.793,-1.7793,-1.7725,-1.7627,-1.7617,-1.7627,-1.7627,-1.7637,-1.7471,-1.7305,-1.7041,-1.6855,-1.6797,-1.6699,-1.6611,-1.6709,-1.6748,-1.6758,-1.6963,-1.6943,-1.6738,-1.6797,-1.6998,-1.7129,-1.7307,-1.7147,-1.7014,-1.7334,-1.7504,-2.6167,-2.6623,-2.5913,-2.5061,-2.4257,-2.4003,-2.3067,-2.1689,-2.165,-2.1306,-2.0732,-1.974,-1.9259,-1.9096,-1.7696,-1.7099,-1.7463,-1.7174,-1.6886,-1.6848,-1.672,-1.6657,-1.6884,-1.6452,-1.5807,-1.5311,-1.5345,-1.5262,-1.5106,-1.5318,-1.5511,-1.5649,-1.5928,-1.6245,-1.6974,-1.7543,-1.8223,-1.8881,-1.9228,-1.949,-1.9683,-1.9798,-1.9798,-1.9798,-1.9798,-1.9798,-1.9798,-1.9798,-1.9798,-1.9798,-1.9798,-1.9798,-1.9798,-1.9798,-1.9798,-1.9823,-1.9899,-2.0012,-2.0024,-2.0188,-2.0376,-2.079,-2.0536,-2.0685,-2.1512,-2.0505,-2.0217,-2.0288,-1.9448,-1.8533,-1.8167,-1.8173,-1.8174,-1.8115,-1.8096,-1.8144,-1.8271,-1.8311,-1.8369,-1.838,-1.8242,-1.8144,-1.8154,-1.8047,-1.791,-1.7939,-1.7773,-1.7568,-1.7412,-1.7275,-1.7266,-1.7285,-1.7246,-1.7207,-1.6973,-1.6777,-1.6523,-1.6328,-1.625,-1.6191,-1.6103,-1.6172,-1.6299,-1.6409,-1.6562,-1.6441,-1.623,-1.654,-1.677,-1.6787,-1.6805,-1.6741,-1.6722,-1.7007,-1.7096,-2.5321,-2.5575,-2.4864,-2.4033,-2.3227,-2.2849,-2.1972,-2.0933,-2.0752,-2.0415,-1.9803,-1.8983,-1.8493,-1.8109,-1.7071,-1.6722,-1.6848,-1.6697,-1.6534,-1.6467,-1.6191,-1.5855,-1.5544,-1.5405,-1.5026,-1.4977,-1.4795,-1.4928,-1.5252,-1.5318,-1.5471,-1.586,-1.6142,-1.661,-1.7118,-1.7689,-1.8351,-1.8958,-1.9485,-1.9813,-1.9825,-1.9798,-1.9798,-1.9798,-1.9798,-1.9798,-1.9798,-1.9798,-1.9798,-1.9798,-1.9798,-1.9798,-1.9798,-1.9798,-1.9798,-1.9798,-1.9798,-1.9798,-1.9798,-1.9811,-1.9962,-2.0225,-1.9613,-2.001,-2.0147,-1.9274,-1.8789,-1.9107,-1.8434,-1.7279,-1.7125,-1.7236,-1.7402,-1.7412,-1.7422,-1.7412,-1.7471,-1.7744,-1.7997,-1.7967,-1.7811,-1.7568,-1.7434,-1.7453,-1.7441,-1.7314,-1.7266,-1.708,-1.708,-1.6953,-1.6894,-1.6885,-1.6763,-1.6709,-1.6455,-1.6221,-1.5977,-1.584,-1.5781,-1.5732,-1.5674,-1.5801,-1.5967,-1.6037,-1.6077,-1.5969,-1.5811,-1.6146,-1.6335,-1.6223,-1.6198,-1.6311,-1.6403,-1.6545,-1.6617,-2.4404,-2.4425,-2.362,-2.2841,-2.2052,-2.1405,-2.0665,-1.9858,-1.9705,-1.962,-1.8983,-1.838,-1.799,-1.7421,-1.6803,-1.6522,-1.6534,-1.6547,-1.6534,-1.6461,-1.5913,-1.5504,-1.5097,-1.4898,-1.505,-1.5852,-1.4827,-1.48,-1.539,-1.5431,-1.5508,-1.6037,-1.6599,-1.6823,-1.7123,-1.771,-1.8182,-1.8593,-1.9215,-1.947,-1.9371,-1.9346,-1.9334,-1.9409,-1.9409,-1.9497,-1.956,-1.9623,-1.9685,-1.9786,-1.9798,-1.9798,-1.9798,-1.9798,-1.9798,-1.9798,-1.9798,-1.9798,-1.9798,-1.9798,-1.9811,-1.9734,-1.9165,-1.9189,-1.951,-1.8441,-1.7788,-1.776,-1.744,-1.6697,-1.6641,-1.689,-1.6816,-1.6733,-1.6694,-1.6655,-1.6792,-1.7327,-1.7586,-1.7895,-1.737,-1.6925,-1.6761,-1.6703,-1.666,-1.6709,-1.667,-1.6631,-1.6631,-1.6533,-1.6426,-1.6328,-1.624,-1.6201,-1.5986,-1.5928,-1.5654,-1.5586,-1.5488,-1.5459,-1.542,-1.5547,-1.5684,-1.5576,-1.5518,-1.5488,-1.5537,-1.5782,-1.5811,-1.5596,-1.5703,-1.5936,-1.6009,-1.6105,-1.6117,-2.3934,-2.4408,-2.3295,-2.2524,-2.2032,-2.1579,-2.0736,-1.9807,-1.9705,-1.9654,-1.9406,-1.8535,-1.8066,-1.7706,-1.6921,-1.6522,-1.6534,-1.6534,-1.6534,-1.6436,-1.5952,-1.5543,-1.5322,-1.4971,-1.5118,-1.5223,-1.4686,-1.4682,-1.5284,-1.5239,-1.5543,-1.6122,-1.6397,-1.6524,-1.6765,-1.7192,-1.7589,-1.7962,-1.8494,-1.8748,-1.8593,-1.8398,-1.8385,-1.8618,-1.8656,-1.8819,-1.9083,-1.9133,-1.9346,-1.9736,-1.9786,-1.9761,-1.9685,-1.9685,-1.971,-1.9798,-1.9798,-1.9798,-1.9695,-1.9798,-1.9798,-1.9798,-1.9463,-1.9073,-1.8899,-1.7965,-1.7159,-1.6759,-1.6656,-1.6182,-1.6243,-1.656,-1.6835,-1.6709,-1.6476,-1.6394,-1.6534,-1.6704,-1.6998,-1.7443,-1.686,-1.6344,-1.6225,-1.6191,-1.6272,-1.6328,-1.624,-1.6201,-1.6182,-1.5977,-1.5742,-1.5664,-1.5586,-1.5566,-1.5508,-1.5547,-1.5478,-1.5488,-1.5439,-1.5439,-1.542,-1.542,-1.541,-1.5312,-1.5352,-1.5439,-1.5488,-1.5537,-1.5527,-1.5498,-1.5557,-1.5635,-1.5684,-1.58,-1.5878,-2.2904,-2.2959,-2.2363,-2.1762,-2.1205,-2.0964,-2.0426,-1.9792,-1.969,-1.953,-1.9118,-1.8458,-1.7961,-1.7558,-1.6879,-1.6522,-1.6534,-1.6534,-1.6534,-1.638,-1.6194,-1.5864,-1.5652,-1.5264,-1.5342,-1.5318,-1.4869,-1.4949,-1.5774,-1.5531,-1.5776,-1.6224,-1.6422,-1.6465,-1.6535,-1.6754,-1.7099,-1.7408,-1.7794,-1.8084,-1.8154,-1.7937,-1.8034,-1.8106,-1.8179,-1.8355,-1.8505,-1.8593,-1.8706,-1.8907,-1.8957,-1.8982,-1.8995,-1.9058,-1.9233,-1.9635,-1.9761,-1.9567,-1.9411,-1.9475,-1.9475,-1.8715,-1.8715,-1.8501,-1.795,-1.7135,-1.6425,-1.6029,-1.5858,-1.5723,-1.5742,-1.6056,-1.6115,-1.6055,-1.5923,-1.5933,-1.5994,-1.5914,-1.6284,-1.6748,-1.6198,-1.5817,-1.5677,-1.5718,-1.5945,-1.5957,-1.585,-1.5801,-1.5781,-1.5625,-1.542,-1.542,-1.542,-1.5371,-1.5342,-1.5312,-1.5206,-1.5216,-1.5254,-1.5254,-1.5283,-1.5225,-1.5146,-1.5059,-1.5156,-1.5244,-1.541,-1.5449,-1.542,-1.541,-1.5478,-1.5508,-1.5459,-1.5488,-1.5576,-2.1928,-2.1582,-2.1413,-2.0927,-2.0333,-2.0227,-2.0015,-1.9762,-1.9705,-1.9479,-1.902,-1.8433,-1.7867,-1.7394,-1.6879,-1.6534,-1.6534,-1.6534,-1.6534,-1.6479,-1.6466,-1.6194,-1.5903,-1.5787,-1.5818,-1.5796,-1.5472,-1.556,-1.61,-1.5852,-1.6001,-1.6312,-1.6504,-1.6534,-1.6559,-1.6584,-1.6873,-1.7049,-1.7225,-1.7476,-1.7765,-1.7865,-1.7865,-1.7865,-1.7877,-1.7865,-1.8016,-1.8041,-1.8141,-1.8254,-1.8292,-1.8254,-1.8216,-1.8204,-1.8606,-1.9296,-1.9459,-1.9152,-1.9083,-1.8955,-1.8851,-1.8251,-1.7786,-1.7578,-1.7135,-1.6415,-1.5526,-1.542,-1.543,-1.5449,-1.5488,-1.5449,-1.5469,-1.5478,-1.5488,-1.5449,-1.5518,-1.5488,-1.5527,-1.5674,-1.5396,-1.5377,-1.5399,-1.5458,-1.5663,-1.5723,-1.5625,-1.5605,-1.5576,-1.5537,-1.542,-1.542,-1.5391,-1.5312,-1.5254,-1.5166,-1.5021,-1.4801,-1.4827,-1.4814,-1.4893,-1.4961,-1.4844,-1.4697,-1.4785,-1.4883,-1.5117,-1.5303,-1.5283,-1.5293,-1.5371,-1.542,-1.542,-1.542,-1.5488,-2.1642,-2.1521,-2.0765,-2.0382,-2.0246,-1.9945,-1.9762,-1.9726,-1.9705,-1.969,-1.9493,-1.8574,-1.8013,-1.7666,-1.6879,-1.6522,-1.6534,-1.6534,-1.6534,-1.6534,-1.6479,-1.6423,-1.638,-1.6367,-1.6275,-1.6238,-1.6225,-1.6367,-1.638,-1.592,-1.5964,-1.638,-1.6534,-1.6534,-1.6534,-1.6534,-1.6559,-1.6635,-1.666,-1.671,-1.6785,-1.6823,-1.6835,-1.681,-1.6861,-1.7049,-1.7413,-1.7488,-1.7626,-1.8041,-1.8129,-1.8179,-1.8204,-1.8204,-1.8216,-1.8355,-1.843,-1.8557,-1.8635,-1.8469,-1.8116,-1.7794,-1.7684,-1.728,-1.6585,-1.6026,-1.542,-1.542,-1.542,-1.542,-1.542,-1.542,-1.542,-1.542,-1.542,-1.542,-1.542,-1.542,-1.542,-1.542,-1.538,-1.5371,-1.5332,-1.5352,-1.5439,-1.542,-1.541,-1.5381,-1.5303,-1.5215,-1.5146,-1.5088,-1.5049,-1.498,-1.4912,-1.4863,-1.4739,-1.4492,-1.445,-1.4434,-1.4502,-1.4561,-1.4375,-1.4287,-1.4365,-1.4449,-1.4646,-1.4798,-1.5037,-1.5225,-1.5381,-1.542,-1.542,-1.542,-1.542,-2.146,-2.1197,-2.0567,-2.0158,-1.9945,-1.9782,-1.9705,-1.9705,-1.9705,-1.9705,-1.9493,-1.8574,-1.7787,-1.7229,-1.6637,-1.6522,-1.6534,-1.6534,-1.6534,-1.6534,-1.6534,-1.6534,-1.6479,-1.6479,-1.6534,-1.6534,-1.6534,-1.6423,-1.638,-1.6293,-1.6293,-1.6436,-1.6534,-1.6534,-1.6534,-1.6534,-1.6534,-1.6547,-1.6534,-1.6534,-1.6534,-1.6534,-1.6534,-1.6534,-1.6534,-1.6697,-1.6835,-1.6898,-1.6974,-1.725,-1.725,-1.7237,-1.7237,-1.7225,-1.7237,-1.725,-1.725,-1.7269,-1.7371,-1.7478,-1.715,-1.6499,-1.6364,-1.639,-1.5924,-1.5603,-1.5381,-1.542,-1.542,-1.5391,-1.5371,-1.542,-1.542,-1.54,-1.5312,-1.54,-1.54,-1.541,-1.542,-1.542,-1.5361,-1.5148,-1.506,-1.5186,-1.5205,-1.5215,-1.5117,-1.501,-1.4873,-1.4697,-1.4629,-1.458,-1.4561,-1.4531,-1.4473,-1.4414,-1.4394,-1.4198,-1.4189,-1.4199,-1.417,-1.4121,-1.3945,-1.3828,-1.3838,-1.3962,-1.4128,-1.4478,-1.4844,-1.5146,-1.541,-1.542,-1.542,-1.542,-1.5352,-2.1368,-2.0959,-2.0483,-2.0054,-1.9726,-1.9705,-1.9705,-1.9705,-1.9705,-1.9705,-1.942,-1.8574,-1.7517,-1.668,-1.6522,-1.6534,-1.6534,-1.6534,-1.6534,-1.6534,-1.6534,-1.6534,-1.6534,-1.6534,-1.6534,-1.6534,-1.6534,-1.6534,-1.6534,-1.6479,-1.6436,-1.6534,-1.6534,-1.6534,-1.6534,-1.6534,-1.6534,-1.6534,-1.6534,-1.6534,-1.6534,-1.6534,-1.6534,-1.6534,-1.6534,-1.6534,-1.6534,-1.6547,-1.6559,-1.6597,-1.6647,-1.6685,-1.666,-1.6697,-1.6685,-1.6598,-1.6511,-1.6197,-1.6195,-1.6158,-1.5758,-1.5216,-1.4723,-1.5304,-1.5157,-1.5088,-1.5088,-1.499,-1.5,-1.5019,-1.5078,-1.5049,-1.5078,-1.5059,-1.5078,-1.5225,-1.5303,-1.5127,-1.5002,-1.5011,-1.4904,-1.4664,-1.4644,-1.4846,-1.4971,-1.5,-1.4873,-1.4668,-1.4463,-1.4248,-1.4258,-1.4248,-1.4258,-1.4145,-1.4023,-1.3975,-1.3955,-1.3906,-1.3896,-1.3828,-1.3711,-1.3652,-1.3535,-1.3447,-1.3338,-1.353,-1.3731,-1.4251,-1.4727,-1.5008,-1.5223,-1.5361,-1.542,-1.5352,-1.5294,-2.1368,-2.0975,-2.0516,-2.0104,-1.9705,-1.9705,-1.9705,-1.9705,-1.9705,-1.969,-1.9493,-1.8612,-1.7585,-1.6837,-1.668,-1.665,-1.6509,-1.6522,-1.6522,-1.6522,-1.6534,-1.6534,-1.6534,-1.6534,-1.6534,-1.6534,-1.6534,-1.6534,-1.6534,-1.6534,-1.6534,-1.6534,-1.6534,-1.6534,-1.6534,-1.6534,-1.6534,-1.6534,-1.6534,-1.6534,-1.6534,-1.6534,-1.6534,-1.6534,-1.6534,-1.6534,-1.6534,-1.6534,-1.6534,-1.6534,-1.6534,-1.6534,-1.6534,-1.6534,-1.6534,-1.6436,-1.6051,-1.5608,-1.5337,-1.53,-1.5301,-1.4986,-1.4672,-1.4389,-1.4434,-1.4253,-1.4204,-1.4365,-1.4473,-1.434,-1.4282,-1.4223,-1.457,-1.4593,-1.4651,-1.4795,-1.4785,-1.458,-1.4486,-1.4528,-1.447,-1.4305,-1.4131,-1.4301,-1.4476,-1.457,-1.4375,-1.417,-1.4053,-1.3896,-1.3975,-1.4004,-1.398,-1.3906,-1.3613,-1.3535,-1.3506,-1.3408,-1.335,-1.3242,-1.3105,-1.3076,-1.3203,-1.2916,-1.2819,-1.3067,-1.3283,-1.3451,-1.3815,-1.4583,-1.4978,-1.4879,-1.4817,-1.4746,-1.4864,-2.1764,-2.1337,-2.091,-2.033,-1.9705,-1.9705,-1.9705,-1.9705,-1.969,-1.9479,-1.9207,-1.8727,-1.8171,-1.7626,-1.7463,-1.7271,-1.7034,-1.6993,-1.6795,-1.6595,-1.6534,-1.6534,-1.6534,-1.6534,-1.6534,-1.6534,-1.6534,-1.6534,-1.6534,-1.6534,-1.6534,-1.6534,-1.6534,-1.6534,-1.6534,-1.6534,-1.6534,-1.6534,-1.6534,-1.6534,-1.6534,-1.6534,-1.6534,-1.6534,-1.6534,-1.6534,-1.6534,-1.6534,-1.6534,-1.6534,-1.6534,-1.6534,-1.6534,-1.6534,-1.6534,-1.6436,-1.5908,-1.5276,-1.4732,-1.4537,-1.4289,-1.4114,-1.3906,-1.3828,-1.3951,-1.4048,-1.4077,-1.4097,-1.4029,-1.3961,-1.3859,-1.4014,-1.4184,-1.416,-1.4189,-1.4291,-1.4336,-1.416,-1.4111,-1.4204,-1.4165,-1.4048,-1.3863,-1.3708,-1.3902,-1.4058,-1.3887,-1.3691,-1.3594,-1.3516,-1.3564,-1.3584,-1.3594,-1.3545,-1.3262,-1.3145,-1.3066,-1.292,-1.2822,-1.2764,-1.2706,-1.29,-1.2929,-1.2569,-1.2197,-1.2175,-1.2241,-1.2313,-1.2824,-1.3662,-1.3979,-1.4054,-1.4033,-1.4067,-1.4204,-2.2032,-2.1552,-2.1181,-2.0565,-1.9909,-1.9747,-1.9705,-1.9705,-1.9705,-1.9406,-1.8893,-1.8893,-1.8612,-1.821,-1.8052,-1.7894,-1.7544,-1.7353,-1.7076,-1.6837,-1.665,-1.6522,-1.6534,-1.6534,-1.6534,-1.6534,-1.6534,-1.6534,-1.6534,-1.6534,-1.6534,-1.6534,-1.6534,-1.6534,-1.6534,-1.6534,-1.6534,-1.6534,-1.6534,-1.6534,-1.6534,-1.6534,-1.6534,-1.6534,-1.6534,-1.6534,-1.6534,-1.6534,-1.6534,-1.6534,-1.6534,-1.6534,-1.6534,-1.6534,-1.6534,-1.625,-1.5776,-1.5141,-1.4652,-1.3962,-1.3514,-1.3412,-1.3361,-1.3467,-1.3672,-1.3769,-1.3633,-1.3672,-1.3711,-1.3708,-1.3461,-1.3539,-1.3708,-1.3694,-1.3601,-1.3691,-1.3926,-1.3896,-1.3867,-1.3887,-1.376,-1.3574,-1.3506,-1.333,-1.3428,-1.3564,-1.3437,-1.3281,-1.3203,-1.3125,-1.3086,-1.3086,-1.3076,-1.2998,-1.29,-1.2939,-1.2861,-1.2412,-1.2337,-1.2404,-1.2463,-1.255,-1.251,-1.2187,-1.1774,-1.1316,-1.1336,-1.1524,-1.2069,-1.2685,-1.2924,-1.3165,-1.3459,-1.3485,-1.3364,-2.2049,-2.1598,-2.1181,-2.0715,-2.0261,-1.9874,-1.9705,-1.9705,-1.969,-1.9406,-1.9006,-1.8968,-1.8727,-1.8341,-1.838,-1.8263,-1.8027,-1.7666,-1.7394,-1.7242,-1.6837,-1.6607,-1.6565,-1.6565,-1.6534,-1.6534,-1.6534,-1.6534,-1.6534,-1.6534,-1.6534,-1.6534,-1.6534,-1.6534,-1.6534,-1.6534,-1.6534,-1.6534,-1.6534,-1.6534,-1.6534,-1.6534,-1.6534,-1.6534,-1.6534,-1.6534,-1.6534,-1.6534,-1.6534,-1.6534,-1.6534,-1.6534,-1.6534,-1.6534,-1.6479,-1.6324,-1.5332,-1.4789,-1.4571,-1.3525,-1.3115,-1.3018,-1.3037,-1.3066,-1.2998,-1.2988,-1.3076,-1.3223,-1.3115,-1.3047,-1.2969,-1.2998,-1.3202,-1.328,-1.3203,-1.3203,-1.3457,-1.3555,-1.3496,-1.3486,-1.3193,-1.2939,-1.2949,-1.2939,-1.2959,-1.2988,-1.293,-1.2891,-1.2881,-1.2891,-1.2881,-1.2891,-1.2891,-1.2891,-1.2881,-1.2822,-1.2598,-1.2153,-1.1849,-1.1855,-1.1715,-1.1633,-1.1584,-1.1575,-1.1216,-1.0669,-1.0669,-1.0744,-1.1092,-1.1382,-1.2012,-1.2364,-1.2666,-1.2708,-1.2409,-2.2209,-2.2003,-2.1291,-2.0894,-2.0665,-2.0015,-1.9705,-1.9705,-1.969,-1.9603,-1.9457,-1.9442,-1.9369,-1.9207,-1.9095,-1.8945,-1.8612,-1.8535,-1.8263,-1.7747,-1.7229,-1.7105,-1.6909,-1.6637,-1.6534,-1.6534,-1.6534,-1.6534,-1.6534,-1.6534,-1.6534,-1.6534,-1.6534,-1.6534,-1.6534,-1.6534,-1.6534,-1.6534,-1.6534,-1.6534,-1.6534,-1.6534,-1.6534,-1.6534,-1.6534,-1.6534,-1.6534,-1.6534,-1.6534,-1.6534,-1.6534,-1.6534,-1.6534,-1.6534,-1.6324,-1.5908,-1.505,-1.4294,-1.3789,-1.3017,-1.2929,-1.2891,-1.2891,-1.2891,-1.2891,-1.2891,-1.2891,-1.2891,-1.2891,-1.2891,-1.291,-1.291,-1.3047,-1.3037,-1.2978,-1.2988,-1.3105,-1.3066,-1.3037,-1.3066,-1.29,-1.2891,-1.2891,-1.2891,-1.2891,-1.2891,-1.2891,-1.2832,-1.2774,-1.2881,-1.2881,-1.2891,-1.2891,-1.2891,-1.2832,-1.2403,-1.211,-1.1675,-1.134,-1.1141,-1.0989,-1.0795,-1.0677,-1.072,-1.0364,-1.0012,-0.9909,-0.9844,-0.9698,-1.0009,-1.0681,-1.1022,-1.1174,-1.1106,-1.0891,-2.2327,-2.2225,-2.1507,-2.1118,-2.0862,-2.0085,-1.9705,-1.9705,-1.9705,-1.9705,-1.969,-1.969,-1.969,-1.969,-1.9654,-1.9617,-1.9169,-1.893,-1.8574,-1.8106,-1.7558,-1.7201,-1.6866,-1.671,-1.6522,-1.6534,-1.6534,-1.6534,-1.6534,-1.6534,-1.6534,-1.6534,-1.6534,-1.6534,-1.6534,-1.6534,-1.6534,-1.6534,-1.6534,-1.6534,-1.6534,-1.6534,-1.6534,-1.6534,-1.6534,-1.6534,-1.6534,-1.6534,-1.6534,-1.6534,-1.6534,-1.6534,-1.6534,-1.6436,-1.6182,-1.5632,-1.4778,-1.3931,-1.32,-1.2978,-1.2891,-1.2891,-1.2891,-1.2891,-1.2891,-1.2891,-1.2891,-1.2891,-1.2891,-1.2891,-1.2891,-1.2891,-1.2891,-1.2891,-1.2891,-1.291,-1.291,-1.2891,-1.2891,-1.2891,-1.2891,-1.2891,-1.2891,-1.2891,-1.2891,-1.2891,-1.2891,-1.2725,-1.2569,-1.2618,-1.251,-1.2461,-1.2314,-1.2107,-1.1891,-1.1683,-1.1373,-1.1154,-1.0839,-1.0494,-1.028,-1.0072,-0.9917,-0.9814,-0.9614,-0.9413,-0.9061,-0.8911,-0.9092,-0.9227,-0.9439,-0.9631,-0.9626,-0.9826,-1.0013,-2.2327,-2.2237,-2.1794,-2.1337,-2.0894,-2.0085,-1.9705,-1.9705,-1.9705,-1.9705,-1.9705,-1.9705,-1.9705,-1.9705,-1.9705,-1.969,-1.9566,-1.9169,-1.8779,-1.821,-1.7787,-1.7271,-1.6866,-1.6637,-1.6522,-1.6534,-1.6534,-1.6534,-1.6534,-1.6534,-1.6534,-1.6534,-1.6534,-1.6534,-1.6534,-1.6534,-1.6534,-1.6534,-1.6534,-1.6534,-1.6534,-1.6534,-1.6534,-1.6534,-1.6534,-1.6534,-1.6534,-1.6534,-1.6534,-1.6534,-1.6534,-1.6534,-1.6479,-1.6479,-1.6095,-1.541,-1.4318,-1.3563,-1.3065,-1.2939,-1.2891,-1.2891,-1.2891,-1.2891,-1.2891,-1.2891,-1.2891,-1.2891,-1.2891,-1.2891,-1.2891,-1.2891,-1.2891,-1.2891,-1.2891,-1.2891,-1.2891,-1.2891,-1.2891,-1.2891,-1.2891,-1.2891,-1.2832,-1.2832,-1.2676,-1.251,-1.2304,-1.1891,-1.1783,-1.203,-1.1931,-1.1584,-1.1375,-1.1074,-1.0914,-1.0965,-1.0738,-1.0529,-1.0061,-0.974,-0.9569,-0.9465,-0.9413,-0.9309,-0.9054,-0.8857,-0.8804,-0.8804,-0.8824,-0.8905,-0.8991,-0.9085,-0.9332,-0.9659,-0.988,-2.2327,-2.2225,-2.1493,-2.1086,-2.0862,-2.007,-1.9705,-1.9705,-1.9705,-1.9705,-1.9705,-1.9705,-1.9705,-1.9705,-1.9705,-1.9705,-1.9654,-1.9566,-1.9457,-1.893,-1.8131,-1.7827,-1.7381,-1.6837,-1.6607,-1.6534,-1.6534,-1.6534,-1.6534,-1.6534,-1.6534,-1.6534,-1.6534,-1.6534,-1.6534,-1.6534,-1.6534,-1.6534,-1.6534,-1.6534,-1.6534,-1.6534,-1.6534,-1.6534,-1.6534,-1.6534,-1.6534,-1.6534,-1.6534,-1.6534,-1.6479,-1.6479,-1.6479,-1.6095,-1.5499,-1.4411,-1.36,-1.3065,-1.2929,-1.2891,-1.2891,-1.2891,-1.2891,-1.2891,-1.2891,-1.2891,-1.2891,-1.2891,-1.2891,-1.2891,-1.2891,-1.2891,-1.2891,-1.2891,-1.2891,-1.2891,-1.2891,-1.2891,-1.2891,-1.2891,-1.2891,-1.2891,-1.2832,-1.2559,-1.2353,-1.2089,-1.1724,-1.1325,-1.1015,-1.1316,-1.1166,-1.0813,-1.0669,-1.0364,-1.0415,-1.0415,-1.0187,-0.9864,-0.9488,-0.9204,-0.9159,-0.9061,-0.9008,-0.8956,-0.8857,-0.8857,-0.8804,-0.8804,-0.8804,-0.8804,-0.8878,-0.8931,-0.9051,-0.9399,-0.9599,-2.1397,-2.1316,-2.0846,-2.0594,-2.048,-2.0119,-1.9889,-1.9726,-1.9705,-1.9705,-1.9705,-1.9705,-1.9705,-1.9705,-1.9705,-1.9705,-1.9705,-1.9639,-1.9406,-1.8703,-1.8419,-1.7787,-1.7312,-1.6909,-1.6607,-1.6534,-1.6534,-1.6534,-1.6534,-1.6534,-1.6534,-1.6534,-1.6534,-1.6534,-1.6534,-1.6534,-1.6534,-1.6534,-1.6534,-1.6534,-1.6534,-1.6534,-1.6534,-1.6534,-1.6534,-1.6479,-1.6479,-1.6479,-1.6479,-1.6436,-1.638,-1.6139,-1.5964,-1.5365,-1.4778,-1.3826,-1.3334,-1.3027,-1.2891,-1.2891,-1.2891,-1.2891,-1.2891,-1.2891,-1.2891,-1.2891,-1.2891,-1.2891,-1.2891,-1.2891,-1.2891,-1.2891,-1.2891,-1.2891,-1.2891,-1.2891,-1.2891,-1.2891,-1.2891,-1.2891,-1.2891,-1.2891,-1.2725,-1.2353,-1.208,-1.1922,-1.1665,-1.1316,-1.0864,-1.0669,-1.0364,-0.9961,-0.9865,-0.9769,-0.9814,-0.9865,-0.9599,-0.9384,-0.9197,-0.8956,-0.8804,-0.8804,-0.8857,-0.8857,-0.8804,-0.8804,-0.8804,-0.8804,-0.8804,-0.8804,-0.8804,-0.8851,-0.8958,-0.9165,-0.9285,-2.0018,-2.0052,-1.9951,-1.9832,-1.978,-1.9867,-1.9756,-1.9576,-1.951,-1.9681,-1.9675,-1.9705,-1.9705,-1.9705,-1.9705,-1.9705,-1.9705,-1.969,-1.9369,-1.8263,-1.8185,-1.7787,-1.7188,-1.6552,-1.6522,-1.6534,-1.6534,-1.6534,-1.6534,-1.6534,-1.6534,-1.6534,-1.6534,-1.6534,-1.6534,-1.6534,-1.6534,-1.6534,-1.6534,-1.6534,-1.6534,-1.6534,-1.6534,-1.6534,-1.6479,-1.6479,-1.6423,-1.6423,-1.6423,-1.6151,-1.592,-1.5543,-1.5039,-1.4595,-1.405,-1.36,-1.3152,-1.2978,-1.2891,-1.2891,-1.2891,-1.2891,-1.2891,-1.2891,-1.2891,-1.2891,-1.2891,-1.2891,-1.2891,-1.2891,-1.2891,-1.2891,-1.2891,-1.2891,-1.2891,-1.2891,-1.2891,-1.2891,-1.2891,-1.2822,-1.255,-1.2501,-1.2363,-1.199,-1.1225,-1.1416,-1.1116,-1.0762,-1.0517,-1.0064,-0.9865,-0.9361,-0.9316,-0.9316,-0.9211,-0.9159,-0.9008,-0.885,-0.8804,-0.8804,-0.8804,-0.8804,-0.8804,-0.8804,-0.8804,-0.8804,-0.8804,-0.8804,-0.8804,-0.8804,-0.8804,-0.8804,-0.8905,-0.8984,-0.9045,-1.9985,-1.9934,-1.94,-1.8946,-1.8594,-1.8416,-1.8308,-1.8238,-1.8732,-1.9211,-1.9615,-1.9675,-1.9705,-1.9705,-1.9705,-1.9705,-1.9705,-1.969,-1.953,-1.893,-1.8458,-1.7867,-1.7463,-1.6752,-1.6565,-1.6534,-1.6534,-1.6534,-1.6534,-1.6534,-1.6534,-1.6534,-1.6534,-1.6534,-1.6534,-1.6534,-1.6534,-1.6534,-1.6534,-1.6534,-1.6534,-1.6534,-1.6534,-1.6479,-1.6479,-1.6194,-1.6051,-1.582,-1.5555,-1.5152,-1.5062,-1.4698,-1.4236,-1.392,-1.36,-1.32,-1.3017,-1.2929,-1.2891,-1.2891,-1.2891,-1.2891,-1.2891,-1.2891,-1.2891,-1.2891,-1.2891,-1.2891,-1.2891,-1.2891,-1.2891,-1.2891,-1.2891,-1.2891,-1.2891,-1.2891,-1.2891,-1.2891,-1.2891,-1.2608,-1.2276,-1.2021,-1.1931,-1.1434,-1.0669,-1.0115,-0.9666,-0.9361,-0.9458,-0.9263,-0.9614,-0.9256,-0.9061,-0.8962,-0.8804,-0.8804,-0.8804,-0.8804,-0.8804,-0.8804,-0.8804,-0.8804,-0.8804,-0.8804,-0.8804,-0.8804,-0.8804,-0.8804,-0.8804,-0.8804,-0.8804,-0.8804,-0.8804,-0.8905,-0.8884,-1.9005,-1.899,-1.8949,-1.8554,-1.8105,-1.816,-1.8051,-1.7822,-1.8085,-1.8478,-1.8912,-1.9375,-1.969,-1.9675,-1.9705,-1.9615,-1.963,-1.9705,-1.9258,-1.8817,-1.8401,-1.7827,-1.7312,-1.6837,-1.6637,-1.6534,-1.6534,-1.6534,-1.6534,-1.6534,-1.6534,-1.6534,-1.6534,-1.6534,-1.6534,-1.6534,-1.6534,-1.6534,-1.6534,-1.6534,-1.6534,-1.6534,-1.6534,-1.6479,-1.6194,-1.592,-1.5688,-1.541,-1.5017,-1.4652,-1.4514,-1.3967,-1.36,-1.3372,-1.319,-1.3017,-1.2929,-1.2891,-1.2891,-1.2891,-1.2891,-1.2891,-1.2891,-1.2891,-1.2891,-1.2891,-1.2891,-1.2891,-1.2891,-1.2891,-1.2891,-1.2891,-1.2891,-1.2891,-1.2891,-1.2891,-1.2891,-1.2891,-1.2881,-1.2774,-1.2335,-1.1796,-1.1657,-1.1325,-1.0568,-1.002,-0.9361,-0.8956,-0.891,-0.8804,-0.9061,-0.9159,-0.8962,-0.8857,-0.8804,-0.8804,-0.8804,-0.8804,-0.8804,-0.8804,-0.8804,-0.8804,-0.8804,-0.8804,-0.8804,-0.8804,-0.8804,-0.8804,-0.8804,-0.8804,-0.8804,-0.8804,-0.8804,-0.8804,-0.8811,-1.7839,-1.789,-1.8441,-1.8286,-1.7807,-1.825,-1.8064,-1.7509,-1.7533,-1.7563,-1.7805,-1.8882,-1.9375,-1.9435,-1.945,-1.94,-1.926,-1.8936,-1.8549,-1.8222,-1.7873,-1.7464,-1.7066,-1.6595,-1.6522,-1.6534,-1.6534,-1.6534,-1.6534,-1.6534,-1.6534,-1.6534,-1.6534,-1.6534,-1.6534,-1.6534,-1.6534,-1.6534,-1.6534,-1.6534,-1.6534,-1.6534,-1.6534,-1.6293,-1.5964,-1.5632,-1.5365,-1.5005,-1.4652,-1.4247,-1.392,-1.3515,-1.32,-1.3065,-1.3017,-1.2891,-1.2891,-1.2891,-1.2891,-1.2891,-1.2891,-1.2891,-1.2891,-1.2891,-1.2891,-1.2891,-1.2891,-1.2891,-1.2891,-1.2891,-1.2891,-1.2891,-1.2891,-1.2891,-1.2891,-1.2891,-1.2891,-1.2822,-1.2715,-1.2657,-1.2012,-1.1423,-1.1199,-1.0864,-1.0372,-0.9865,-0.9562,-0.9263,-0.9008,-0.8857,-0.891,-0.8956,-0.8857,-0.8804,-0.8804,-0.8804,-0.8804,-0.8804,-0.8804,-0.8804,-0.8804,-0.8804,-0.8804,-0.8804,-0.8804,-0.8804,-0.8804,-0.8804,-0.8804,-0.8804,-0.8804,-0.8804,-0.8804,-0.8804,-0.8804,-1.7789,-1.7805,-1.7693,-1.7363,-1.7029,-1.6905,-1.6548,-1.6308,-1.6697,-1.6906,-1.71,-1.7608,-1.8104,-1.8104,-1.8071,-1.8078,-1.8116,-1.7959,-1.7777,-1.7455,-1.7227,-1.7103,-1.6905,-1.6544,-1.6509,-1.6534,-1.6534,-1.6534,-1.6534,-1.6534,-1.6534,-1.6534,-1.6534,-1.6534,-1.6534,-1.6534,-1.6534,-1.6534,-1.6534,-1.6534,-1.6479,-1.6479,-1.6534,-1.6293,-1.5908,-1.5377,-1.488,-1.4283,-1.3742,-1.3372,-1.32,-1.3055,-1.2968,-1.2891,-1.2891,-1.2891,-1.2891,-1.2891,-1.2891,-1.2891,-1.2891,-1.2891,-1.2891,-1.2891,-1.2891,-1.2891,-1.2891,-1.2891,-1.2891,-1.2891,-1.2891,-1.2891,-1.2891,-1.2891,-1.2891,-1.2891,-1.2891,-1.2491,-1.2159,-1.158,-1.0847,-1.0562,-1.0407,-1.0012,-0.9465,-0.9106,-0.9159,-0.891,-0.891,-0.8857,-0.8804,-0.8804,-0.8804,-0.8804,-0.8804,-0.8804,-0.8804,-0.8804,-0.8804,-0.8804,-0.8804,-0.8804,-0.8804,-0.8804,-0.8804,-0.8804,-0.8804,-0.8804,-0.8804,-0.8804,-0.8804,-0.8804,-0.8804,-0.8804,-0.8804]},{"header":{"parameterUnit":"m.s-1","parameterCategory":1,"la1":31.0,"la2":29.5877,"lo1":-88.7671,"lo2":-86.6584,"dy":0.0162,"dx":0.0185,"nx":115,"ny":88,"refTime":"2024-08-13T06:00:00:Z","depth":0,"parameterNumber":3,"parameterNumberName":"V-component_of_WINDS"},"data":[0.0,0.0,0.0,0.0,0.0,0.0,0.0,0.0,0.0,0.0,0.0,0.0,0.0,0.0,0.0,0.0,0.0,0.0,0.0,0.0,0.0,0.0,0.0,0.0,0.0,0.0,0.0,0.0,0.0,0.0,0.0,0.0,0.0,0.0,0.0,0.0,0.0,0.0,0.0,0.0,0.0,0.0,0.0,0.0,0.0,0.0,0.0,0.0,0.0,0.0,0.0,0.0,0.0,0.0,0.0,0.0,0.0,0.0,0.0,0.0,0.0,0.0,0.0,0.0,0.0,0.0,0.0,0.0,0.0,0.0,0.0,0.0,0.0,0.0,0.0,0.0,0.0,0.0,0.0,0.0,0.0,0.0,0.0,0.0,0.0,0.0,0.0,0.0,0.0,0.0,0.0,0.0,0.0,0.0,0.0,0.0,0.0,0.0,0.0,0.0,0.0,0.0,0.0,0.0,0.0,0.0,0.0,0.0,0.0,0.0,0.0,0.0,0.0,0.0,0.0,0.0,0.0,0.0,0.0,0.0,0.0,0.0,0.0,0.0,0.0,0.0,0.0,0.0,0.0,0.0,0.0,0.0,0.0,0.0,0.0,0.0,0.0,0.0,0.0,0.0,0.0,0.0,0.0,0.0,0.0,0.0,0.0,0.0,0.0,0.0,0.0,0.0,0.0,0.0,0.0,0.0,0.0,0.0,0.0,0.0,0.0,0.0,0.0,0.0,0.0,0.0,0.0,0.0,0.0,0.0,0.0,0.0,0.0,0.0,0.0,0.0,0.0,0.0,0.0,0.0,0.0,0.0,0.0,0.0,0.0,0.0,0.0,0.0,0.0,0.0,0.0,0.0,0.0,0.0,0.0,0.0,0.0,0.0,0.0,0.0,0.0,0.0,0.0,0.0,0.0,0.0,0.0,0.0,0.0,0.0,0.0,0.0,0.0,0.0,0.0,0.0,0.0,0.0,0.0,0.0,0.0,0.0,0.0,0.0,0.0,0.0,0.0,0.0,0.0,0.0,0.0,0.0,0.0,0.0,0.0,0.0,0.0,0.0,0.0,0.0,0.0,0.0,0.0,0.0,0.0,0.0,0.0,0.0,0.0,0.0,0.0,0.0,0.0,0.0,0.0,0.0,0.0,0.0,0.0,0.0,0.0,0.0,0.0,0.0,0.0,0.0,0.0,0.0,0.0,0.0,0.0,0.0,0.0,0.0,0.0,0.0,0.0,0.0,0.0,0.0,0.0,0.0,0.0,0.0,0.0,0.0,0.0,0.0,0.0,0.0,0.0,0.0,0.0,0.0,0.0,0.0,0.0,0.0,0.0,0.0,0.0,0.0,0.0,0.0,0.0,0.0,0.0,0.0,0.0,0.0,0.0,0.0,0.0,0.0,0.0,0.0,0.0,0.0,0.0,0.0,0.0,0.0,0.0,0.0,0.0,0.0,0.0,0.0,0.0,0.0,0.0,0.0,0.0,0.0,0.0,0.0,0.0,0.0,0.0,0.0,0.0,0.0,0.0,0.0,0.0,0.0,0.0,0.0,0.0,0.0,0.0,0.0,0.0,0.0,0.0,0.0,0.0,0.0,0.0,0.0,0.0,0.0,0.0,0.0,0.0,0.0,0.0,0.0,0.0,0.0,0.0,0.0,0.0,0.0,0.0,0.0,0.0,0.0,0.0,0.0,0.0,0.0,0.0,0.0,0.0,0.0,0.0,0.0,0.0,0.0,0.0,0.0,0.0,0.0,0.0,0.0,0.0,0.0,0.0,0.0,0.0,0.0,0.0,0.0,0.0,0.0,0.0,0.0,0.0,0.0,0.0,0.0,0.0,0.0,0.0,0.0,0.0,0.0,0.0,0.0,0.0,0.0,0.0,0.0,0.0,0.0,0.0,0.0,0.0,0.0,0.0,0.0,0.0,0.0,0.0,0.0,0.0,0.0,0.0,0.0,0.0,0.0,0.0,0.0,0.0,0.0,0.0,0.0,0.0,0.0,0.0,0.0,0.0,0.0,0.0,0.0,0.0,0.0,0.0,0.0,0.0,0.0,0.0,0.0,0.0,0.0,0.0,0.0,0.0,0.0,0.0,0.0,0.0,0.0,0.0,0.0,0.0,0.0,0.0,0.0,0.0,0.0,0.0,0.0,0.0,0.0,0.0,0.0,0.0,0.0,0.0,0.0,0.0,0.0,0.0,0.0,0.0,0.0,0.0,0.0,0.0,0.0,0.0,0.0,0.0,0.0,0.0,0.0,0.0,0.0,0.0,0.0,0.0,0.0,0.0,0.0,0.0,0.0,0.0,0.0,0.0,0.0,0.0,0.0,0.0,0.0,0.0,0.0,0.0,0.0,0.0,0.0,0.0,0.0,0.0,0.0,0.0,0.0,0.0,0.0,0.0,0.0,0.0,0.0,0.0,0.0,0.0,0.0,0.0,0.0,0.0,0.0,0.0,0.0,0.0,0.0,0.0,0.0,0.0,0.0,0.0,0.0,0.0,0.0,0.0,0.0,0.0,0.0,0.0,0.0,0.0,0.0,0.0,0.0,0.0,0.0,0.0,0.0,0.0,0.0,0.0,0.0,0.0,0.0,0.0,0.0,0.0,0.0,0.0,0.0,0.0,0.0,0.0,0.0,0.0,0.0,0.0,0.0,0.0,0.0,0.0,0.0,0.0,0.0,0.0,0.0,0.0,0.0,0.0,0.0,0.0,0.0,0.0,0.0,0.0,0.0,0.0,0.0,0.0,0.0,0.0,0.0,0.0,0.0,0.0,0.0,0.0,0.0,0.0,0.0,0.0,0.0,0.0,0.0,0.0,0.0,0.0,0.0,0.0,0.0,0.0,0.0,0.0,0.0,0.0,0.0,0.0,0.0,0.0,0.0,0.0,0.0,0.0,0.0,0.0,0.0,0.0,0.0,0.0,0.0,0.0,0.0,0.0,0.0,0.0,0.0,0.0,0.0,0.0,0.0,0.0,0.0,0.0,0.0,0.0,0.0,0.0,0.0,0.0,0.0,0.0,0.0,0.0,0.0,0.0,0.0,0.0,0.0,0.0,0.0,0.0,0.0,0.0,0.0,0.0,0.0,0.0,0.0,0.0,0.0,0.0,0.0,0.0,0.0,0.0,0.0,0.0,0.0,0.0,0.0,0.0,0.0,0.0,0.0,0.0,0.0,0.0,0.0,0.0,0.0,0.0,0.0,0.0,0.0,0.0,0.0,0.0,0.0,0.0,0.0,0.0,0.0,0.0,0.0,0.0,0.0,0.0,0.0,0.0,0.0,0.0,0.0,0.0,0.0,0.0,0.0,0.0,0.0,0.0,0.0,0.0,0.0,0.0,0.0,0.0,0.0,0.0,0.0,0.0,0.0,0.0,0.0,0.0,0.0,0.0,0.0,0.0,0.0,0.0,0.0,0.0,0.0,0.0,0.0,0.0,0.0,0.0,0.0,0.0,0.0,0.0,0.0,0.0,0.0,0.0,0.0,0.0,0.0,0.0,0.0,0.0,0.0,0.0,0.0,0.0,0.0,0.0,0.0,0.0,0.0,0.0,0.0,0.0,0.0,0.0,0.0,0.0,0.0,0.0,0.0,0.0,0.0,0.0,0.0,0.0,0.0,0.0,0.0,0.0,0.0,0.0,0.0,0.0,0.0,0.0,0.0,0.0,0.0,0.0,0.0,0.0,0.0,0.0,0.0,0.0,0.0,0.0,0.0,0.0,0.0,0.0,0.0,0.0,0.0,0.0,0.0,0.0,0.0,0.0,0.0,0.0,0.0,0.0,0.0,0.0,0.0,0.0,0.0,0.0,0.0,0.0,0.0,0.0,0.0,0.0,0.0,0.0,0.0,0.0,0.0,0.0,0.0,0.0,0.0,0.0,0.0,0.0,0.0,0.0,0.0,0.0,0.0,0.0,0.0,0.0,0.0,0.0,0.0,0.0,0.0,0.0,0.0,0.0,0.0,0.0,0.0,0.0,0.0,0.0,0.0,0.0,0.0,0.0,0.0,0.0,0.0,0.0,0.0,0.0,0.0,0.0,0.0,0.0,0.0,0.0,0.0,0.0,0.0,0.0,0.0,0.0,0.0,0.0,0.0,0.0,0.0,0.0,0.0,0.0,0.0,0.0,0.0,0.0,0.0,0.0,0.0,0.0,0.0,0.0,0.0,0.0,0.0,0.0,0.0,0.0,0.0,0.0,0.0,0.0,0.0,0.0,0.0,0.0,0.0,0.0,0.0,0.0,0.0,0.0,0.0,0.0,0.0,0.0,0.0,0.0,0.0,-2.2566,0.0,0.0,0.0,0.0,0.0,0.0,0.0,0.0,0.0,0.0,0.0,0.0,0.0,0.0,0.0,0.0,0.0,0.0,0.0,0.0,0.0,0.0,0.0,0.0,0.0,0.0,0.0,0.0,0.0,0.0,0.0,0.0,0.0,0.0,0.0,0.0,0.0,0.0,0.0,0.0,0.0,0.0,0.0,0.0,0.0,0.0,0.0,0.0,0.0,0.0,0.0,0.0,0.0,0.0,0.0,0.0,0.0,0.0,0.0,0.0,0.0,0.0,0.0,0.0,0.0,0.0,0.0,0.0,0.0,0.0,0.0,0.0,0.0,0.0,0.0,0.0,0.0,0.0,0.0,0.0,0.0,0.0,0.0,0.0,0.0,0.0,0.0,0.0,0.0,0.0,0.0,0.0,0.0,0.0,0.0,0.0,0.0,0.0,0.0,0.0,0.0,0.0,0.0,0.0,0.0,0.0,0.0,0.0,0.0,0.0,-2.5416,-2.5439,-2.5369,-2.4307,-2.2125,0.0,0.0,0.0,0.0,0.0,0.0,0.0,0.0,0.0,0.0,0.0,0.0,0.0,0.0,0.0,0.0,0.0,0.0,0.0,0.0,0.0,0.0,0.0,0.0,0.0,0.0,0.0,0.0,0.0,0.0,0.0,0.0,0.0,0.0,0.0,0.0,0.0,0.0,0.0,0.0,0.0,0.0,0.0,0.0,0.0,0.0,0.0,0.0,0.0,0.0,0.0,0.0,0.0,0.0,0.0,0.0,0.0,0.0,0.0,0.0,0.0,0.0,0.0,0.0,0.0,0.0,0.0,0.0,0.0,0.0,0.0,0.0,0.0,0.0,0.0,0.0,0.0,0.0,0.0,0.0,0.0,0.0,0.0,0.0,0.0,0.0,0.0,0.0,0.0,0.0,0.0,0.0,0.0,0.0,0.0,0.0,0.0,0.0,0.0,0.0,0.0,0.0,0.0,0.0,0.0,0.0,0.0,0.0,0.0,0.0,0.0,0.0,-2.5629,-2.4396,-2.2098,0.0,0.0,0.0,0.0,0.0,0.0,0.0,0.0,0.0,0.0,0.0,0.0,0.0,0.0,0.0,0.0,0.0,0.0,0.0,0.0,0.0,0.0,0.0,0.0,0.0,0.0,0.0,0.0,0.0,0.0,0.0,0.0,0.0,0.0,0.0,0.0,0.0,0.0,0.0,0.0,0.0,0.0,0.0,0.0,0.0,0.0,0.0,0.0,0.0,0.0,0.0,0.0,0.0,0.0,0.0,0.0,0.0,0.0,0.0,0.0,0.0,0.0,0.0,0.0,0.0,0.0,0.0,0.0,0.0,0.0,0.0,0.0,0.0,0.0,0.0,0.0,0.0,0.0,0.0,0.0,0.0,0.0,0.0,0.0,0.0,0.0,0.0,0.0,0.0,0.0,0.0,0.0,0.0,0.0,0.0,0.0,0.0,0.0,0.0,0.0,0.0,0.0,0.0,0.0,0.0,0.0,0.0,0.0,0.0,0.0,-2.5897,-2.75,-2.6755,0.0,-2.298,0.0,0.0,0.0,0.0,0.0,0.0,0.0,0.0,0.0,0.0,0.0,0.0,0.0,0.0,0.0,0.0,0.0,0.0,0.0,0.0,0.0,0.0,0.0,0.0,0.0,0.0,0.0,0.0,0.0,0.0,0.0,0.0,0.0,0.0,0.0,0.0,0.0,0.0,0.0,0.0,0.0,0.0,0.0,0.0,0.0,0.0,0.0,0.0,0.0,0.0,0.0,0.0,0.0,0.0,0.0,0.0,0.0,0.0,0.0,0.0,0.0,0.0,0.0,0.0,0.0,0.0,0.0,0.0,0.0,0.0,0.0,0.0,0.0,0.0,0.0,0.0,0.0,0.0,0.0,0.0,0.0,0.0,0.0,0.0,0.0,0.0,0.0,0.0,0.0,0.0,0.0,0.0,0.0,0.0,0.0,0.0,0.0,0.0,0.0,0.0,0.0,0.0,0.0,0.0,0.0,0.0,0.0,0.0,0.0,0.0,0.0,-2.6491,-2.4427,-2.2816,0.0,0.0,0.0,0.0,0.0,0.0,0.0,0.0,0.0,0.0,0.0,0.0,0.0,0.0,0.0,0.0,0.0,0.0,0.0,0.0,0.0,0.0,0.0,0.0,0.0,0.0,0.0,0.0,0.0,0.0,0.0,0.0,0.0,0.0,0.0,0.0,0.0,0.0,0.0,0.0,0.0,0.0,0.0,0.0,0.0,0.0,0.0,0.0,0.0,0.0,0.0,0.0,0.0,0.0,0.0,0.0,0.0,0.0,0.0,0.0,0.0,0.0,0.0,0.0,0.0,0.0,0.0,0.0,0.0,0.0,0.0,0.0,0.0,0.0,0.0,0.0,0.0,0.0,0.0,0.0,0.0,0.0,0.0,0.0,0.0,0.0,0.0,0.0,0.0,0.0,0.0,0.0,0.0,0.0,0.0,0.0,0.0,0.0,0.0,0.0,0.0,0.0,0.0,0.0,0.0,0.0,0.0,0.0,0.0,0.0,-2.4787,0.0,-2.4675,-2.2367,-2.097,-2.0735,0.0,0.0,0.0,0.0,0.0,0.0,0.0,0.0,0.0,0.0,0.0,0.0,0.0,0.0,0.0,0.0,0.0,0.0,0.0,0.0,0.0,0.0,0.0,0.0,0.0,0.0,0.0,0.0,0.0,0.0,0.0,0.0,0.0,0.0,0.0,0.0,0.0,0.0,0.0,0.0,0.0,0.0,0.0,0.0,0.0,0.0,0.0,0.0,0.0,0.0,0.0,0.0,0.0,0.0,0.0,0.0,0.0,0.0,0.0,0.0,0.0,0.0,0.0,0.0,0.0,0.0,0.0,0.0,0.0,0.0,0.0,0.0,0.0,0.0,0.0,0.0,0.0,0.0,0.0,0.0,0.0,0.0,0.0,0.0,0.0,0.0,0.0,0.0,0.0,0.0,0.0,0.0,0.0,0.0,0.0,0.0,0.0,0.0,0.0,0.0,0.0,0.0,0.0,0.0,0.0,0.0,0.0,0.0,0.0,-2.3406,-2.2629,-2.2529,-2.1565,-2.0782,0.0,0.0,0.0,0.0,0.0,0.0,0.0,0.0,0.0,0.0,0.0,0.0,0.0,0.0,0.0,0.0,0.0,0.0,0.0,0.0,0.0,0.0,0.0,0.0,0.0,0.0,0.0,0.0,0.0,0.0,0.0,0.0,0.0,0.0,0.0,0.0,0.0,0.0,0.0,0.0,0.0,0.0,0.0,0.0,0.0,0.0,0.0,0.0,0.0,0.0,0.0,0.0,0.0,0.0,0.0,0.0,0.0,0.0,0.0,0.0,0.0,0.0,0.0,0.0,0.0,0.0,0.0,0.0,0.0,0.0,0.0,0.0,0.0,0.0,0.0,0.0,0.0,0.0,0.0,0.0,0.0,0.0,0.0,0.0,0.0,0.0,0.0,0.0,0.0,0.0,0.0,0.0,0.0,0.0,0.0,0.0,0.0,0.0,0.0,0.0,0.0,0.0,0.0,0.0,0.0,0.0,0.0,0.0,0.0,-2.0024,-1.9486,-1.9035,0.0,-1.7937,-1.7585,0.0,0.0,0.0,0.0,0.0,0.0,0.0,0.0,0.0,0.0,0.0,0.0,0.0,0.0,0.0,0.0,0.0,0.0,0.0,0.0,0.0,0.0,0.0,0.0,0.0,0.0,0.0,0.0,0.0,0.0,0.0,0.0,0.0,0.0,0.0,0.0,0.0,0.0,0.0,0.0,0.0,0.0,0.0,0.0,0.0,0.0,0.0,0.0,0.0,0.0,0.0,0.0,0.0,0.0,0.0,0.0,0.0,0.0,0.0,0.0,0.0,0.0,0.0,0.0,0.0,0.0,0.0,0.0,0.0,0.0,0.0,0.0,0.0,0.0,0.0,0.0,0.0,0.0,0.0,0.0,0.0,0.0,0.0,0.0,0.0,0.0,0.0,0.0,0.0,0.0,0.0,0.0,0.0,0.0,0.0,0.0,0.0,0.0,0.0,0.0,0.0,0.0,0.0,0.0,0.0,0.0,0.0,0.0,0.0,-1.6231,0.0,-1.611,0.0,-1.5427,-1.5433,0.0,0.0,0.0,0.0,0.0,0.0,0.0,0.0,0.0,0.0,0.0,0.0,0.0,0.0,0.0,0.0,0.0,0.0,0.0,0.0,0.0,0.0,0.0,0.0,0.0,0.0,0.0,0.0,0.0,0.0,0.0,0.0,0.0,0.0,0.0,0.0,0.0,0.0,0.0,0.0,0.0,0.0,0.0,0.0,0.0,0.0,0.0,0.0,0.0,0.0,0.0,0.0,0.0,0.0,0.0,0.0,0.0,0.0,0.0,0.0,0.0,0.0,0.0,0.0,0.0,0.0,0.0,0.0,0.0,0.0,0.0,0.0,0.0,0.0,0.0,0.0,0.0,0.0,0.0,0.0,0.0,0.0,0.0,0.0,0.0,0.0,0.0,0.0,0.0,0.0,0.0,0.0,0.0,0.0,0.0,0.0,0.0,0.0,0.0,0.0,0.0,0.0,0.0,0.0,0.0,0.0,0.0,0.0,-1.5207,-1.3857,-1.441,-1.3982,-1.2518,-1.426,-1.4526,0.0,0.0,0.0,0.0,0.0,0.0,0.0,0.0,0.0,0.0,0.0,0.0,0.0,0.0,0.0,0.0,0.0,0.0,0.0,0.0,0.0,0.0,0.0,0.0,0.0,0.0,0.0,0.0,0.0,0.0,0.0,0.0,0.0,0.0,0.0,0.0,0.0,0.0,0.0,0.0,0.0,0.0,0.0,0.0,0.0,0.0,0.0,0.0,0.0,0.0,0.0,0.0,0.0,0.0,0.0,0.0,0.0,0.0,0.0,0.0,0.0,0.0,0.0,0.0,0.0,0.0,0.0,0.0,0.0,0.0,0.0,0.0,0.0,0.0,0.0,0.0,0.0,0.0,0.0,0.0,0.0,0.0,0.0,0.0,0.0,0.0,0.0,0.0,0.0,0.0,0.0,0.0,0.0,0.0,0.0,0.0,0.0,0.0,0.0,0.0,0.0,0.0,0.0,0.0,0.0,0.0,0.0,0.0,0.0,-1.0981,-1.1558,-1.1482,-1.0728,-1.1807,-1.2228,0.0,0.0,0.0,0.0,0.0,0.0,0.0,0.0,0.0,0.0,0.0,0.0,0.0,0.0,0.0,0.0,0.0,0.0,0.0,0.0,0.0,0.0,0.0,0.0,0.0,0.0,0.0,0.0,0.0,0.0,0.0,0.0,0.0,0.0,0.0,0.0,0.0,0.0,0.0,0.0,0.0,0.0,0.0,0.0,0.0,0.0,0.0,0.0,0.0,0.0,0.0,0.0,0.0,0.0,0.0,0.0,0.0,0.0,0.0,0.0,0.0,0.0,0.0,0.0,0.0,0.0,0.0,0.0,0.0,0.0,0.0,0.0,0.0,0.0,0.0,0.0,0.0,0.0,0.0,0.0,0.0,0.0,0.0,0.0,0.0,0.0,0.0,0.0,0.0,0.0,0.0,0.0,0.0,0.0,0.0,0.0,0.0,0.0,0.0,0.0,0.0,0.0,0.0,0.0,0.0,0.0,0.0,0.0,0.0,-1.024,-1.0863,-1.0922,-1.023,-1.0905,-1.1193,-1.1072,0.0,0.0,0.0,0.0,0.0,0.0,0.0,0.0,0.0,0.0,0.0,0.0,0.0,0.0,0.0,0.0,0.0,0.0,0.0,0.0,0.0,0.0,0.0,0.0,0.0,0.0,0.0,0.0,0.0,0.0,0.0,0.0,0.0,0.0,0.0,0.0,0.0,0.0,0.0,0.0,0.0,0.0,0.0,0.0,0.0,0.0,0.0,0.0,0.0,0.0,0.0,0.0,0.0,0.0,0.0,0.0,0.0,0.0,0.0,0.0,0.0,0.0,0.0,0.0,0.0,0.0,0.0,0.0,0.0,0.0,0.0,0.0,0.0,0.0,0.0,0.0,0.0,0.0,0.0,0.0,0.0,0.0,0.0,0.0,0.0,0.0,0.0,0.0,0.0,0.0,0.0,0.0,0.0,0.0,0.0,0.0,0.0,0.0,0.0,0.0,0.0,0.0,0.0,0.0,0.0,0.0,0.0,0.0,-1.112,-1.2006,-1.1968,-1.091,-1.1467,-1.1498,0.0,0.0,0.0,0.0,0.0,0.0,0.0,0.0,0.0,0.0,0.0,0.0,0.0,0.0,0.0,0.0,0.0,0.0,0.0,0.0,0.0,0.0,0.0,0.0,0.0,0.0,0.0,0.0,0.0,0.0,0.0,0.0,0.0,0.0,0.0,0.0,0.0,0.0,0.0,0.0,0.0,0.0,0.0,0.0,0.0,0.0,0.0,0.0,0.0,0.0,0.0,0.0,0.0,0.0,0.0,0.0,0.0,0.0,0.0,0.0,0.0,0.0,0.0,0.0,0.0,0.0,0.0,0.0,0.0,0.0,0.0,0.0,0.0,0.0,0.0,0.0,0.0,0.0,0.0,0.0,0.0,0.0,0.0,0.0,0.0,0.0,0.0,0.0,0.0,0.0,0.0,0.0,0.0,0.0,0.0,0.0,0.0,0.0,0.0,0.0,0.0,0.0,0.0,0.0,0.0,0.0,0.0,0.0,0.0,-1.2883,-1.4159,-1.4279,-1.2997,-1.3534,-1.3214,0.0,0.0,0.0,0.0,0.0,0.0,0.0,0.0,0.0,0.0,0.0,0.0,0.0,0.0,0.0,0.0,0.0,0.0,0.0,0.0,0.0,0.0,0.0,0.0,0.0,0.0,0.0,0.0,0.0,0.0,0.0,0.0,0.0,0.0,0.0,0.0,0.0,0.0,0.0,0.0,0.0,0.0,0.0,0.0,0.0,0.0,0.0,0.0,0.0,0.0,0.0,0.0,0.0,0.0,0.0,0.0,0.0,0.0,0.0,0.0,0.0,0.0,0.0,0.0,0.0,0.0,0.0,0.0,0.0,0.0,0.0,0.0,0.0,0.0,0.0,0.0,0.0,0.0,0.0,0.0,0.0,0.0,0.0,0.0,0.0,0.0,0.0,0.0,0.0,0.0,0.0,0.0,0.0,0.0,0.0,0.0,0.0,0.0,0.0,0.0,0.0,0.0,0.0,0.0,0.0,0.0,0.0,0.0,-1.4077,-1.3991,-1.5375,-1.5728,-1.4942,-1.4654,-1.3831,0.0,0.0,0.0,0.0,0.0,0.0,0.0,0.0,0.0,0.0,0.0,0.0,0.0,0.0,0.0,0.0,0.0,0.0,0.0,0.0,0.0,0.0,0.0,0.0,0.0,0.0,0.0,0.0,0.0,0.0,0.0,0.0,0.0,0.0,0.0,0.0,0.0,0.0,0.0,0.0,0.0,0.0,0.0,0.0,0.0,0.0,0.0,0.0,0.0,0.0,0.0,0.0,0.0,0.0,0.0,0.0,0.0,0.0,0.0,0.0,0.0,0.0,0.0,0.0,0.0,0.0,0.0,0.0,0.0,0.0,0.0,0.0,0.0,0.0,0.0,0.0,0.0,0.0,0.0,0.0,0.0,0.0,0.0,0.0,0.0,0.0,0.0,0.0,0.0,0.0,0.0,0.0,0.0,0.0,0.0,0.0,0.0,0.0,0.0,0.0,0.0,0.0,0.0,0.0,0.0,0.0,0.0,0.0,-1.4072,-1.4883,-1.6231,-1.695,-1.6817,-1.5437,-1.4081,0.0,0.0,0.0,0.0,0.0,0.0,0.0,0.0,0.0,0.0,0.0,0.0,0.0,0.0,0.0,0.0,0.0,0.0,0.0,0.0,0.0,0.0,0.0,0.0,0.0,0.0,0.0,0.0,0.0,0.0,0.0,0.0,0.0,0.0,0.0,0.0,0.0,0.0,0.0,0.0,0.0,0.0,0.0,0.0,0.0,0.0,0.0,0.0,0.0,0.0,0.0,0.0,0.0,0.0,0.0,0.0,0.0,0.0,0.0,0.0,0.0,0.0,0.0,0.0,0.0,0.0,0.0,0.0,0.0,0.0,0.0,0.0,0.0,0.0,0.0,0.0,0.0,0.0,0.0,0.0,0.0,0.0,0.0,0.0,0.0,0.0,0.0,0.0,0.0,0.0,0.0,0.0,0.0,0.0,0.0,0.0,0.0,0.0,0.0,0.0,0.0,0.0,0.0,0.0,0.0,0.0,0.0,0.0,-1.5656,-1.6279,-1.8218,-1.9036,-1.87,-1.7471,-1.5907,0.0,0.0,0.0,0.0,0.0,0.0,0.0,0.0,0.0,0.0,0.0,0.0,0.0,0.0,0.0,0.0,0.0,0.0,0.0,0.0,0.0,0.0,0.0,0.0,0.0,0.0,0.0,0.0,0.0,0.0,0.0,0.0,0.0,0.0,0.0,0.0,0.0,0.0,0.0,0.0,0.0,0.0,0.0,0.0,0.0,0.0,0.0,0.0,-2.3242,0.0,0.0,0.0,0.0,0.0,0.0,0.0,0.0,0.0,0.0,0.0,0.0,0.0,0.0,0.0,0.0,0.0,0.0,0.0,0.0,0.0,0.0,0.0,0.0,0.0,0.0,0.0,0.0,0.0,0.0,0.0,0.0,0.0,0.0,0.0,0.0,0.0,0.0,0.0,0.0,0.0,0.0,0.0,0.0,0.0,0.0,0.0,0.0,0.0,0.0,0.0,0.0,0.0,0.0,0.0,0.0,0.0,0.0,0.0,-1.5963,-1.7278,-1.8824,-1.9551,-1.9309,-1.9078,-1.7791,0.0,0.0,0.0,0.0,0.0,0.0,0.0,0.0,0.0,0.0,0.0,0.0,0.0,0.0,0.0,0.0,0.0,0.0,0.0,0.0,0.0,0.0,0.0,0.0,0.0,0.0,0.0,0.0,0.0,0.0,0.0,0.0,0.0,0.0,0.0,0.0,0.0,0.0,0.0,0.0,0.0,0.0,0.0,0.0,0.0,0.0,0.0,0.0,0.0,0.0,0.0,0.0,0.0,0.0,0.0,0.0,0.0,0.0,0.0,0.0,0.0,0.0,0.0,0.0,0.0,0.0,0.0,0.0,0.0,0.0,0.0,0.0,0.0,0.0,0.0,0.0,0.0,0.0,0.0,0.0,0.0,0.0,0.0,0.0,0.0,0.0,0.0,0.0,0.0,0.0,0.0,0.0,0.0,0.0,0.0,0.0,0.0,0.0,0.0,0.0,0.0,0.0,0.0,0.0,0.0,0.0,0.0,-1.4598,-1.5692,-1.7891,-1.909,-1.9727,-1.9868,-2.0801,-2.0079,-1.749,0.0,0.0,0.0,0.0,0.0,0.0,0.0,0.0,0.0,0.0,0.0,0.0,0.0,0.0,0.0,0.0,0.0,0.0,0.0,0.0,0.0,0.0,0.0,0.0,0.0,0.0,0.0,0.0,0.0,0.0,0.0,0.0,0.0,0.0,0.0,0.0,0.0,0.0,-2.0076,-1.9404,0.0,0.0,0.0,0.0,0.0,0.0,0.0,0.0,-2.2807,0.0,0.0,0.0,0.0,0.0,0.0,0.0,0.0,0.0,0.0,0.0,0.0,0.0,0.0,0.0,0.0,0.0,0.0,0.0,0.0,0.0,0.0,0.0,0.0,0.0,0.0,0.0,0.0,0.0,0.0,0.0,0.0,0.0,0.0,0.0,0.0,0.0,0.0,0.0,0.0,0.0,0.0,0.0,0.0,0.0,0.0,0.0,0.0,0.0,0.0,0.0,0.0,0.0,0.0,0.0,0.0,-1.4272,-1.4345,-1.5544,-1.7852,-2.0136,-2.1673,-2.2372,-2.3826,-2.3433,-2.0921,0.0,0.0,0.0,0.0,0.0,0.0,0.0,0.0,0.0,0.0,0.0,0.0,0.0,0.0,0.0,0.0,0.0,0.0,0.0,0.0,0.0,0.0,0.0,0.0,0.0,0.0,0.0,0.0,0.0,0.0,0.0,0.0,0.0,0.0,0.0,0.0,0.0,0.0,0.0,-1.9697,-1.9912,0.0,0.0,0.0,0.0,0.0,0.0,0.0,0.0,-2.1926,0.0,0.0,0.0,0.0,0.0,0.0,0.0,0.0,0.0,0.0,0.0,0.0,0.0,0.0,0.0,0.0,0.0,0.0,0.0,0.0,0.0,0.0,0.0,0.0,0.0,0.0,0.0,0.0,0.0,0.0,0.0,0.0,0.0,0.0,0.0,0.0,0.0,0.0,0.0,0.0,0.0,0.0,0.0,0.0,0.0,0.0,0.0,0.0,0.0,0.0,0.0,0.0,0.0,0.0,0.0,-1.4275,-1.5007,-1.6617,-1.9131,-2.1265,-2.2899,-2.3989,-2.4245,-2.3789,0.0,0.0,0.0,0.0,0.0,0.0,0.0,0.0,0.0,0.0,0.0,0.0,0.0,0.0,0.0,0.0,0.0,0.0,0.0,0.0,0.0,0.0,0.0,0.0,0.0,0.0,0.0,0.0,0.0,0.0,0.0,0.0,0.0,0.0,0.0,0.0,0.0,0.0,0.0,0.0,-1.9305,-1.9516,-2.1063,0.0,0.0,0.0,0.0,0.0,0.0,-2.2757,-2.2526,0.0,0.0,0.0,0.0,0.0,0.0,0.0,0.0,0.0,0.0,0.0,0.0,0.0,0.0,0.0,0.0,0.0,0.0,0.0,0.0,0.0,0.0,0.0,0.0,0.0,0.0,0.0,0.0,0.0,0.0,0.0,0.0,0.0,0.0,0.0,0.0,0.0,0.0,0.0,0.0,0.0,0.0,0.0,0.0,0.0,0.0,0.0,0.0,0.0,0.0,0.0,0.0,0.0,0.0,0.0,-1.4401,-1.5947,-1.8077,-2.07,-2.2658,-2.4286,-2.559,-2.4802,-2.4152,0.0,0.0,0.0,0.0,0.0,0.0,0.0,0.0,0.0,0.0,0.0,0.0,0.0,0.0,0.0,0.0,0.0,0.0,0.0,0.0,0.0,0.0,0.0,0.0,0.0,0.0,0.0,0.0,0.0,0.0,0.0,0.0,0.0,0.0,0.0,0.0,0.0,0.0,0.0,0.0,0.0,-1.9992,-2.1102,-2.2226,0.0,0.0,0.0,0.0,-2.3676,-2.3793,0.0,0.0,0.0,0.0,0.0,0.0,0.0,0.0,0.0,0.0,0.0,0.0,0.0,0.0,0.0,0.0,0.0,0.0,0.0,0.0,0.0,0.0,0.0,0.0,0.0,0.0,0.0,0.0,0.0,0.0,0.0,0.0,0.0,0.0,0.0,0.0,0.0,0.0,0.0,0.0,0.0,0.0,0.0,0.0,0.0,0.0,0.0,0.0,0.0,0.0,0.0,0.0,0.0,0.0,0.0,0.0,-1.4409,-1.6668,-1.9264,-2.2095,-2.4504,-2.6433,-2.7898,-2.7796,-2.6893,0.0,0.0,0.0,0.0,0.0,0.0,0.0,0.0,0.0,0.0,0.0,0.0,0.0,0.0,0.0,0.0,0.0,0.0,0.0,0.0,0.0,0.0,0.0,0.0,0.0,0.0,0.0,0.0,0.0,0.0,0.0,0.0,0.0,0.0,0.0,0.0,0.0,0.0,0.0,0.0,0.0,-2.3283,-2.1168,-2.2582,-2.3891,0.0,0.0,0.0,-2.4621,-2.5866,0.0,0.0,0.0,0.0,0.0,0.0,0.0,0.0,0.0,0.0,0.0,0.0,0.0,0.0,0.0,0.0,0.0,0.0,0.0,0.0,0.0,0.0,0.0,0.0,0.0,0.0,0.0,0.0,0.0,0.0,0.0,0.0,0.0,0.0,0.0,0.0,0.0,0.0,0.0,0.0,0.0,0.0,0.0,0.0,0.0,0.0,0.0,0.0,0.0,0.0,0.0,0.0,0.0,0.0,0.0,-1.6425,-1.7792,-1.9902,-2.2417,-2.5326,-2.7157,-2.845,-2.913,-2.8135,-2.6913,0.0,0.0,0.0,0.0,0.0,0.0,0.0,0.0,0.0,0.0,0.0,0.0,0.0,0.0,0.0,0.0,0.0,0.0,0.0,0.0,0.0,0.0,0.0,0.0,0.0,0.0,0.0,0.0,0.0,0.0,0.0,0.0,0.0,0.0,0.0,0.0,0.0,0.0,0.0,0.0,0.0,0.0,-2.1706,-2.3424,0.0,0.0,0.0,-2.6511,-2.6249,0.0,0.0,0.0,0.0,0.0,0.0,0.0,0.0,0.0,0.0,0.0,0.0,0.0,0.0,0.0,0.0,0.0,0.0,0.0,0.0,0.0,0.0,0.0,0.0,0.0,0.0,0.0,0.0,0.0,0.0,0.0,0.0,0.0,0.0,0.0,0.0,0.0,0.0,0.0,0.0,0.0,0.0,0.0,0.0,0.0,0.0,0.0,0.0,0.0,0.0,0.0,0.0,0.0,0.0,0.0,0.0,0.0,-2.1052,-2.3202,-2.5593,-2.8162,-2.9326,-2.9989,-3.0104,-2.841,0.0,0.0,0.0,0.0,0.0,0.0,0.0,0.0,0.0,0.0,0.0,0.0,0.0,0.0,0.0,0.0,0.0,0.0,0.0,0.0,0.0,0.0,0.0,0.0,0.0,0.0,0.0,-2.1143,0.0,0.0,0.0,0.0,0.0,0.0,0.0,0.0,0.0,0.0,0.0,0.0,0.0,0.0,-2.2154,-2.2823,-2.4583,-2.6181,0.0,0.0,-2.8344,-2.7783,-2.8054,-2.8108,0.0,0.0,0.0,0.0,0.0,0.0,0.0,0.0,0.0,0.0,0.0,0.0,0.0,0.0,0.0,0.0,0.0,0.0,0.0,0.0,0.0,0.0,0.0,0.0,0.0,0.0,0.0,0.0,0.0,0.0,0.0,0.0,0.0,0.0,0.0,0.0,0.0,0.0,0.0,0.0,0.0,0.0,0.0,0.0,0.0,0.0,0.0,0.0,0.0,0.0,0.0,0.0,0.0,0.0,0.0,-2.2888,-2.5847,-2.8099,-2.9641,-3.0413,-3.0915,-3.1072,-2.9651,-2.811,0.0,0.0,0.0,0.0,0.0,0.0,0.0,0.0,0.0,0.0,0.0,0.0,0.0,0.0,0.0,0.0,0.0,0.0,0.0,0.0,0.0,0.0,0.0,0.0,0.0,0.0,0.0,0.0,0.0,0.0,0.0,0.0,0.0,0.0,0.0,0.0,0.0,0.0,0.0,0.0,0.0,-2.4593,-2.4785,-2.5948,-2.7293,0.0,0.0,-2.9226,-2.8907,-3.0185,-3.0541,-2.8583,0.0,0.0,0.0,0.0,0.0,0.0,0.0,0.0,0.0,0.0,0.0,0.0,0.0,0.0,0.0,0.0,0.0,0.0,0.0,0.0,0.0,0.0,0.0,0.0,0.0,0.0,0.0,0.0,0.0,0.0,0.0,0.0,0.0,0.0,0.0,0.0,0.0,0.0,0.0,0.0,0.0,0.0,0.0,0.0,0.0,0.0,0.0,0.0,0.0,0.0,0.0,0.0,0.0,-2.4554,-2.5577,-2.7938,-2.9909,-3.137,-3.0768,-3.0369,-3.0211,-2.8901,-2.7284,0.0,0.0,0.0,0.0,0.0,0.0,0.0,0.0,0.0,0.0,0.0,0.0,0.0,0.0,0.0,0.0,0.0,0.0,0.0,0.0,0.0,0.0,0.0,0.0,0.0,0.0,0.0,0.0,-2.1619,-2.1063,-2.0599,0.0,0.0,0.0,0.0,0.0,0.0,0.0,0.0,0.0,0.0,-2.5738,-2.6099,-2.7767,0.0,0.0,-3.0306,-3.0661,-3.054,-3.0423,-3.0171,-2.9743,-2.9035,0.0,0.0,0.0,0.0,0.0,0.0,0.0,0.0,0.0,0.0,0.0,0.0,0.0,0.0,0.0,0.0,0.0,0.0,0.0,0.0,0.0,0.0,0.0,0.0,0.0,0.0,0.0,0.0,0.0,0.0,0.0,0.0,0.0,0.0,0.0,0.0,0.0,0.0,0.0,0.0,0.0,0.0,0.0,0.0,0.0,0.0,0.0,0.0,0.0,0.0,0.0,0.0,-2.6742,-2.7667,-2.9737,-3.1207,-3.2128,-3.0826,-2.9902,-2.942,-2.8322,-2.6911,0.0,0.0,0.0,0.0,0.0,0.0,0.0,0.0,0.0,0.0,0.0,0.0,0.0,0.0,0.0,0.0,0.0,0.0,0.0,0.0,0.0,0.0,0.0,0.0,0.0,0.0,0.0,0.0,-2.2071,-2.1409,-2.0745,0.0,0.0,0.0,0.0,0.0,0.0,0.0,0.0,0.0,0.0,-2.7242,-2.7803,-2.9304,-3.0404,-3.0644,-3.1161,-3.1467,-3.1467,-3.0926,-3.0537,-3.0776,0.0,0.0,0.0,0.0,0.0,0.0,0.0,0.0,0.0,0.0,0.0,0.0,0.0,0.0,0.0,0.0,0.0,0.0,0.0,0.0,0.0,0.0,0.0,0.0,0.0,0.0,0.0,0.0,0.0,0.0,0.0,0.0,0.0,0.0,0.0,0.0,0.0,0.0,0.0,0.0,0.0,0.0,0.0,0.0,0.0,0.0,0.0,0.0,0.0,0.0,0.0,0.0,0.0,0.0,-2.881,-3.11,-3.2035,-3.1462,-3.06,-2.9782,-2.9013,-2.8197,-2.7435,-2.6607,0.0,0.0,0.0,0.0,0.0,0.0,0.0,0.0,0.0,0.0,0.0,0.0,0.0,0.0,0.0,0.0,0.0,0.0,0.0,0.0,0.0,0.0,0.0,0.0,0.0,0.0,-2.2651,-2.1487,-2.0774,0.0,0.0,0.0,0.0,0.0,0.0,0.0,0.0,0.0,0.0,-2.8283,-2.9296,-3.009,-3.0254,-3.0613,-3.1366,-3.1511,-3.1497,-3.1569,-3.2048,-3.2258,0.0,0.0,0.0,0.0,0.0,0.0,0.0,0.0,0.0,0.0,0.0,0.0,0.0,0.0,0.0,0.0,0.0,0.0,0.0,0.0,0.0,0.0,0.0,0.0,0.0,0.0,0.0,-1.7351,-1.7617,0.0,0.0,0.0,0.0,0.0,0.0,0.0,0.0,0.0,0.0,0.0,-2.6752,-2.7198,0.0,0.0,0.0,0.0,0.0,0.0,0.0,0.0,0.0,0.0,0.0,0.0,-2.9644,-3.028,-3.1418,-3.1898,-3.1624,-2.9361,-2.8163,-2.818,-2.7171,-2.64,-2.5998,0.0,0.0,0.0,0.0,0.0,0.0,0.0,0.0,0.0,0.0,0.0,0.0,0.0,0.0,0.0,0.0,0.0,0.0,0.0,0.0,0.0,0.0,0.0,0.0,0.0,-2.3198,0.0,0.0,0.0,0.0,0.0,0.0,0.0,0.0,0.0,0.0,0.0,-2.811,-2.9237,-3.0007,-3.0639,-3.1028,-3.1471,-3.1871,0.0,0.0,0.0,0.0,0.0,0.0,0.0,0.0,0.0,0.0,0.0,0.0,0.0,0.0,-3.3125,-3.0911,-3.0163,-2.9864,-2.9864,0.0,0.0,0.0,0.0,0.0,0.0,0.0,0.0,0.0,0.0,0.0,0.0,0.0,0.0,0.0,0.0,-2.0936,0.0,0.0,0.0,0.0,0.0,0.0,0.0,0.0,-2.6365,-2.7397,-2.8426,-2.9548,-2.9765,0.0,-3.147,-3.0907,0.0,0.0,0.0,0.0,0.0,0.0,0.0,0.0,-3.0162,-3.0648,-3.1243,-3.1433,-3.1101,-2.8694,-2.7466,-2.7606,-2.6722,-2.6032,-2.5593,-2.5135,-2.4464,0.0,0.0,0.0,0.0,0.0,0.0,0.0,0.0,0.0,0.0,0.0,0.0,0.0,0.0,0.0,0.0,0.0,0.0,0.0,0.0,0.0,0.0,0.0,-2.3095,0.0,0.0,0.0,0.0,0.0,0.0,0.0,0.0,0.0,-2.7612,-2.8828,-3.0168,-3.1316,-3.1962,-3.2323,-3.2243,0.0,0.0,0.0,0.0,0.0,0.0,0.0,-3.3335,-3.3769,-3.3679,-3.3619,-3.3799,-3.4382,-3.4756,-3.4532,0.0,0.0,-3.2647,-3.2048,-3.1884,-3.1898,-3.2197,-3.2198,-3.1279,-3.2154,-3.2781,0.0,0.0,0.0,0.0,0.0,0.0,0.0,0.0,-1.9912,-2.1182,0.0,-2.2555,0.0,0.0,0.0,0.0,0.0,0.0,0.0,0.0,-2.8405,-2.9685,-3.0276,-3.0878,-3.119,-3.1247,-3.2076,-3.2092,-3.1246,-3.0423,0.0,0.0,0.0,0.0,0.0,0.0,-3.0273,-3.0102,-3.0693,-3.0697,-3.0031,-2.8637,-2.7709,-2.7289,-2.6923,-2.637,-2.571,-2.5659,-2.5143,-2.4001,-2.3667,0.0,0.0,0.0,0.0,0.0,0.0,0.0,0.0,0.0,0.0,0.0,0.0,0.0,0.0,0.0,0.0,0.0,0.0,0.0,0.0,-2.3483,0.0,0.0,0.0,0.0,0.0,0.0,0.0,0.0,0.0,0.0,-3.0103,-3.134,-3.2708,-3.3391,0.0,0.0,0.0,0.0,-3.3514,-3.3529,-3.3559,-3.3574,-3.3574,-3.4083,-3.4502,-3.4502,0.0,0.0,-3.4622,-3.5055,-3.528,-3.4651,-3.507,-3.5489,-3.5415,-3.4816,-3.4427,-3.4412,-3.4252,-3.3892,-3.3151,-3.3604,-3.418,-1.5663,0.0,0.0,0.0,0.0,-1.7564,-1.857,-1.944,-2.2218,-2.3212,-2.2972,-2.368,0.0,0.0,0.0,0.0,0.0,0.0,-2.597,-2.7254,-2.8259,-2.9275,-3.0309,-3.0931,-3.119,-3.1247,-3.2331,-3.2597,-3.2181,-3.2508,-3.1758,-2.9978,0.0,0.0,0.0,0.0,-3.0574,-3.091,-3.0969,-3.0716,-3.0097,-2.8657,-2.7561,-2.6873,-2.6758,-2.659,-2.6387,-2.6387,-2.5982,-2.516,-2.5004,0.0,0.0,0.0,0.0,0.0,0.0,0.0,0.0,0.0,0.0,0.0,0.0,0.0,0.0,0.0,0.0,0.0,0.0,0.0,-2.2814,-2.3736,-2.4394,0.0,0.0,0.0,0.0,0.0,0.0,0.0,0.0,0.0,-3.4617,-3.4228,-3.3984,0.0,0.0,-3.4247,-3.3589,-3.3888,-3.4188,-3.4203,0.0,0.0,0.0,-3.5085,-3.522,-3.5205,-3.537,-3.5429,-3.5235,-3.537,-3.5444,-3.5235,-3.537,-3.5489,-3.5489,-3.5355,-3.5205,-3.5205,-3.5179,-3.5075,-3.4797,-3.4951,-3.494,-1.7316,-1.6693,-1.6365,-1.6857,-1.7833,-1.8931,-1.9928,-2.0877,-2.3345,-2.4191,-2.3798,-2.4543,-2.4376,-2.3493,-2.3402,0.0,0.0,0.0,-2.6572,-2.7546,-2.841,-2.9226,-2.9978,-3.0816,-3.1173,-3.123,-3.2154,-3.2581,-3.2517,-3.3225,-3.2818,-3.1427,0.0,0.0,-3.0829,-3.0685,-3.078,-3.1108,-3.0954,-3.0527,-2.9813,-2.8562,-2.7526,-2.6758,-2.6708,-2.6708,-2.6708,-2.6708,-2.6488,-2.6065,-2.553,-2.4746,0.0,0.0,0.0,0.0,0.0,0.0,0.0,0.0,0.0,0.0,0.0,-1.9914,0.0,0.0,0.0,0.0,-2.0801,-2.2615,-2.4473,-2.5568,0.0,0.0,0.0,0.0,0.0,0.0,0.0,-3.4353,-3.537,-3.6133,-3.671,-3.624,-3.5677,-3.5383,-3.5305,-3.5059,-3.4415,0.0,-3.4891,-3.4891,-3.5235,-3.5489,-3.5489,-3.5489,-3.5489,-3.5489,-3.5489,-3.5489,-3.5489,-3.5489,-3.5489,-3.5489,-3.5489,-3.5489,-3.5489,-3.5489,-3.5489,-3.5489,-3.5489,-3.5489,-3.5489,-3.5489,-3.534,-1.8562,-1.8494,-1.7764,-1.8157,-1.9312,-1.9783,-2.0664,-2.2002,-2.3636,-2.4279,-2.4337,-2.5021,-2.4654,-2.3568,-2.3667,0.0,0.0,-2.6677,-2.704,-2.771,-2.8857,-2.9406,-2.9556,-3.0658,-3.119,-3.1247,-3.1777,-3.2232,-3.2517,-3.2965,-3.3045,-3.2724,-3.2945,-3.2717,-3.2051,-3.128,-3.0941,-3.0979,-3.0747,-3.0225,-2.949,-2.8504,-2.7626,-2.6826,-2.6776,-2.6776,-2.6708,-2.6708,-2.6708,-2.6607,-2.5527,-2.4837,-2.4634,0.0,0.0,0.0,0.0,0.0,0.0,0.0,0.0,0.0,0.0,0.0,0.0,0.0,0.0,0.0,-2.2382,0.0,-2.7539,-2.8412,0.0,0.0,0.0,-3.2486,-3.3992,-3.5171,-3.595,-3.6017,0.0,0.0,0.0,0.0,-3.769,-3.6904,-3.6706,-3.6446,-3.5797,-3.5638,-3.5619,-3.5574,-3.5554,-3.5489,-3.5489,-3.5489,-3.5489,-3.5489,-3.5569,-3.5604,-3.5554,-3.5604,-3.5619,-3.5489,-3.5489,-3.5489,-3.5489,-3.5489,-3.5489,-3.5489,-3.5489,-3.5489,-3.5489,-3.5489,-3.5489,-1.8562,-1.8514,-1.8076,-1.8439,-1.9365,-2.0083,-2.0997,-2.199,-2.3623,-2.4279,-2.4292,-2.4465,-2.4676,-2.4956,-2.5512,-2.6367,-2.7385,-2.7335,-2.7694,-2.8319,-2.9042,-2.9629,-3.0123,-3.0838,-3.119,-3.123,-3.1674,-3.2109,-3.2517,-3.2983,-3.3317,-3.3513,-3.3592,-3.3032,-3.188,-3.1223,-3.1129,-3.1603,-3.0928,-3.0404,-3.0024,-2.9414,-2.8627,-2.7554,-2.7554,-2.7283,-2.6725,-2.6708,-2.6556,-2.6191,-2.5884,-2.511,-2.3806,-2.3324,0.0,0.0,0.0,0.0,0.0,0.0,0.0,0.0,0.0,-2.0139,-1.8516,0.0,-2.1215,0.0,-2.4245,-2.693,-2.9063,-3.0302,0.0,0.0,-3.4287,-3.4797,-3.6646,-3.6712,-3.6983,-3.803,-3.8424,-3.882,-3.9241,-3.9441,-3.9262,-3.8453,-3.7831,-3.7456,-3.7235,-3.6707,-3.6322,-3.6275,-3.5831,-3.5504,-3.5489,-3.5489,-3.5489,-3.5489,-3.5943,-3.6165,-3.5604,-3.6022,-3.6165,-3.5683,-3.5489,-3.5489,-3.5489,-3.5489,-3.5489,-3.5489,-3.5489,-3.5489,-3.5489,-3.5489,-3.5489,-1.8562,-1.8594,-1.8574,-1.911,-1.9955,-2.0398,-2.129,-2.2506,-2.3399,-2.378,-2.378,-2.3767,-2.4394,-2.5398,-2.5837,-2.6602,-2.756,-2.756,-2.7894,-2.8511,-2.915,-2.9717,-3.0293,-3.0918,-3.119,-3.123,-3.1603,-3.2022,-3.2517,-3.2983,-3.339,-3.3807,-3.3807,-3.3408,-3.268,-3.2009,-3.1823,-3.2125,-3.1194,-3.0595,-3.0418,-2.9815,-2.8956,-2.7858,-2.7789,-2.7469,-2.6725,-2.6505,-2.6262,-2.6013,-2.554,-2.4996,-2.4337,-2.38,-2.3193,0.0,0.0,0.0,0.0,0.0,0.0,0.0,0.0,0.0,0.0,0.0,-2.3587,0.0,0.0,0.0,-3.1772,-3.3185,-3.4829,-3.694,-3.6852,-3.7236,-3.8663,-3.8487,-3.8565,-3.9354,-3.9445,-3.9598,-4.0037,-4.0087,-3.9952,-3.9489,-3.9102,-3.8557,-3.7921,-3.7397,-3.704,-3.6676,-3.6212,-3.5846,-3.5554,-3.5782,-3.6006,-3.6054,-3.6646,-3.6859,-3.6117,-3.6337,-3.6384,-3.5668,-3.5489,-3.5489,-3.5489,-3.5489,-3.5489,-3.5489,-3.5489,-3.5489,-3.5489,-3.5489,-3.5489,-1.8405,-1.8586,-1.9075,-1.9824,-2.059,-2.0719,-2.1678,-2.3125,-2.3125,-2.3125,-2.3125,-2.3198,-2.4034,-2.5398,-2.5508,-2.6269,-2.756,-2.7675,-2.8042,-2.8638,-2.9225,-2.9848,-3.0435,-3.0834,-3.1055,-3.1077,-3.1465,-3.1917,-3.2376,-3.2929,-3.3354,-3.366,-3.3642,-3.3642,-3.3623,-3.28,-3.2407,-3.2517,-3.1444,-3.0898,-3.082,-3.0128,-2.9162,-2.8027,-2.7872,-2.7449,-2.6623,-2.6239,-2.5983,-2.5909,-2.5132,-2.4905,-2.5349,-2.4427,-2.4073,0.0,-2.4059,0.0,0.0,0.0,0.0,0.0,0.0,0.0,0.0,-2.5182,-2.6517,-2.9051,-3.1027,-3.3023,-3.4904,-3.6294,-3.7605,-3.8879,-3.9032,-3.9315,-4.002,-4.0087,-4.0087,-4.0087,-4.0087,-4.0087,-4.0087,-4.0087,-4.0087,-4.007,-4.002,-3.9558,-3.843,-3.8035,-3.7674,-3.6948,-3.6722,-3.6337,-3.5894,-3.6165,-3.6615,-3.6783,-3.744,-3.7632,-3.6737,-3.6661,-3.6508,-3.5718,-3.54,-3.5325,-3.5355,-3.528,-3.519,-3.5021,-3.51,-3.5205,-3.5429,-3.5489,-3.5489,-1.7398,-1.8184,-1.8952,-1.9814,-2.0655,-2.1365,-2.2187,-2.3125,-2.3125,-2.3125,-2.3125,-2.3767,-2.4553,-2.5398,-2.6014,-2.6759,-2.7625,-2.8091,-2.8638,-2.9271,-2.9865,-3.0435,-3.0982,-3.0543,-3.0311,-3.0349,-3.0711,-3.1165,-3.1611,-3.2691,-3.3063,-3.2826,-3.2834,-3.2852,0.0,0.0,0.0,0.0,-3.1777,-3.1585,-3.16,-3.1127,-3.0183,-2.8822,-2.8336,0.0,-2.622,-2.6162,-2.5942,-2.555,-2.5812,0.0,0.0,0.0,0.0,0.0,0.0,0.0,0.0,0.0,0.0,0.0,-2.7536,-2.6826,-2.5685,-2.7826,-3.0294,-3.2522,-3.4041,-3.5561,-3.7215,-3.8084,-3.8884,-3.9749,-3.9885,-3.9952,-4.007,-4.0087,-4.0087,-4.0087,-4.0087,-4.0087,-4.0087,-4.0087,-4.0087,-4.0087,-4.007,-4.002,-3.9662,-3.9086,-3.8635,-3.8398,-3.7329,-3.6584,-3.6384,-3.6507,-3.6779,-3.744,-3.8189,-3.8084,-3.6977,-3.7097,-3.7024,-3.5721,-3.504,-3.4637,-3.4483,-3.4125,-3.3841,-3.3419,-3.363,-3.4203,-3.525,-3.5489,-3.5489,-1.7139,0.0,-1.9431,-2.0204,0.0,-2.1928,-2.2689,-2.3125,-2.3125,-2.3305,-2.3708,-2.4118,-2.4908,-2.596,-2.6351,-2.7071,-2.8042,-2.8367,-2.8966,-2.9832,-2.9789,-3.0068,-3.0632,-2.9905,-2.9533,-2.957,-3.0196,-3.0592,-3.0831,-3.1841,-3.221,-3.2008,-3.2008,-3.1931,-3.1728,-3.0742,-3.0601,-3.1349,-3.162,-3.1696,-3.1507,-3.1329,-3.0666,-2.9583,0.0,0.0,0.0,0.0,0.0,0.0,0.0,0.0,0.0,0.0,0.0,-2.6078,-2.6093,-2.6378,-2.7036,-2.7096,-2.7784,-2.94,-2.9864,-2.947,-2.8158,-3.0789,-3.2955,-3.4146,-3.6036,-3.7584,-3.8344,-3.9063,-3.9679,-4.007,-4.0087,-4.0087,-4.0087,-4.0087,-4.0087,-4.0087,-4.0087,-4.0087,-4.0087,-4.0087,-4.0087,-4.0054,-3.9749,-3.9546,-3.958,-3.9564,-3.9268,-3.8447,-3.674,-3.5711,-3.6021,-3.6137,-3.6457,-3.729,-3.7989,-3.7982,-3.7068,-3.6804,-3.6269,-3.4832,-3.4218,-3.3978,-3.3903,-3.3664,-3.3455,-3.3212,-3.3333,-3.3664,-3.4397,-3.4517,-3.4517,-1.7001,-1.8144,-1.9879,-2.0546,-2.0583,-2.2226,-2.3047,-2.3153,0.0,0.0,0.0,-2.4567,-2.5356,-2.651,-2.6759,-2.7464,-2.8511,-2.8732,-2.9361,-3.0243,-2.9633,-2.9599,-3.0074,-2.9194,-2.8772,-2.8844,-2.9595,-2.9986,-3.0052,-3.0939,-3.1311,-3.1201,-3.1114,-3.0792,-3.0273,-2.9808,-2.9798,-3.0179,-3.0922,-3.1202,-3.0987,-3.1004,-3.0678,-2.9993,-2.9367,-2.8657,-2.7834,-2.6926,-2.6442,-2.6427,-2.6104,-2.6198,-2.6722,-2.6767,-2.7006,-2.7515,-2.756,-2.7874,-2.8547,-2.8697,-2.9325,-3.0597,-3.121,-3.1345,-3.0881,-3.3089,-3.4607,-3.4847,-3.7083,-3.8632,-3.8887,-3.9478,-3.9935,-4.0054,-4.0087,-4.0087,-4.0087,-4.0087,-4.0087,-4.007,-3.9952,-3.9918,-3.9867,-3.9748,-3.9698,-3.9614,-3.914,-3.8802,-3.887,-3.9225,-3.9026,-3.7738,-3.6252,-3.5259,-3.5687,-3.5899,-3.6259,-3.7333,-3.7718,-3.7685,-3.7008,-3.6242,-3.5187,-3.3895,-3.3425,-3.3335,-3.332,-3.317,-3.317,-3.3155,-3.3261,-3.3322,-3.3382,-3.3427,-3.3622,-1.6437,-1.8144,-1.989,-2.0269,-1.9929,-2.1679,-2.2802,-2.3385,-2.3882,-2.4221,-2.435,-2.5618,-2.6283,-2.6549,-2.7715,-2.8319,-2.8559,-2.9585,-3.0107,0.0,-3.0101,-3.0032,-3.0023,-2.8653,-2.7977,-2.8047,-2.8841,-2.9249,-2.9425,-3.0675,-3.1054,-3.0381,-3.0028,-2.9168,-2.8019,-2.8995,-2.9127,-2.8268,-2.8999,-2.9675,-3.0243,-3.026,-2.9945,-2.9343,-2.8802,-2.7912,-2.6673,-2.6595,-2.6582,-2.6597,-2.704,-2.735,-2.7425,-2.741,-2.747,-2.761,-2.756,-2.7874,-2.8562,-2.9131,-2.9998,-3.124,-3.1495,-3.1719,-3.2198,-3.3108,-3.416,-3.5411,-3.6511,-3.7549,-3.874,-3.9091,-3.9394,-3.9969,-4.007,-4.007,-4.0037,-4.0037,-4.002,-3.9986,-3.9512,-3.9172,-3.912,-3.8664,-3.8345,-3.8261,-3.8193,-3.8058,-3.8007,-3.8142,-3.7834,-3.7118,-3.6626,-3.644,-3.6345,-3.6528,-3.6868,-3.8198,-3.7942,-3.7334,-3.6173,-3.5792,-3.5094,-3.3774,-3.3141,-3.2796,-3.2751,-3.2183,-3.2105,-3.2118,-3.2505,-3.2838,-3.2869,-3.3263,-3.3747,-1.6182,-1.7799,-1.9436,-1.9834,-1.9546,-2.151,-2.2548,-2.2933,-2.3946,-2.4844,-2.5536,-2.6244,-2.6901,-2.7585,-2.7839,-2.8262,-2.8902,-2.9041,-2.9261,-2.9543,-2.9084,-2.8873,-2.8718,-2.7723,-2.7199,-2.7233,-2.7806,-2.8115,-2.821,-2.9068,-2.9296,-2.8945,-2.8564,-2.7994,-2.7404,-2.7803,-2.7759,-2.7249,-2.8383,-2.9347,-3.0074,-2.9441,-2.9303,-2.9766,-2.8586,-2.7807,-2.7535,-2.7288,-2.7126,-2.7111,-2.741,-2.756,-2.756,-2.756,-2.756,-2.756,-2.756,-2.7874,-2.8562,-2.9535,-3.0507,-3.1377,-3.1467,-3.1601,-3.1885,-3.2997,-3.4022,-3.5048,-3.6144,-3.7219,-3.8248,-3.8396,-3.87,-3.9411,-3.9478,-3.9478,-3.9478,-3.9478,-3.9361,-3.8992,-3.8636,-3.8408,-3.8423,-3.8099,-3.7905,-3.7872,-3.7601,-3.7178,-3.6772,-3.6688,-3.673,-3.6649,-3.6124,-3.5761,-3.6021,-3.5794,-3.6022,-3.6827,-3.6772,-3.6229,-3.5232,-3.5029,-3.4663,-3.3803,-3.3277,-3.3106,-3.3091,-3.2843,-3.2641,-3.2664,-3.2879,-3.3145,-3.3235,-3.3684,-3.4207,-1.5875,-1.7357,-1.8951,-1.9584,-1.9645,-2.1297,-2.2207,-2.2577,-2.3758,-2.5048,-2.6199,-2.6286,-2.6956,-2.7979,-2.7612,-2.7894,-2.8617,-2.8438,-2.8553,-2.889,-2.818,-2.7789,-2.7705,-2.7063,-2.6708,-2.6758,-2.7115,-2.7303,-2.7365,-2.7707,-2.7823,-2.7736,-2.7439,-2.7255,-2.7147,-2.6841,-2.6708,-2.6776,-2.7858,-2.8839,-2.9512,-2.8493,-2.858,-2.9613,-2.8199,-2.752,-2.7994,-2.7633,-2.74,-2.7415,-2.7535,-2.756,-2.756,-2.756,-2.756,-2.756,-2.756,-2.7874,-2.8592,-2.9639,-3.0597,-3.1198,-3.1392,-3.1467,-3.1569,-3.2505,-3.3457,-3.4266,-3.5438,-3.6555,-3.7263,-3.754,-3.7939,-3.8633,-3.8751,-3.8751,-3.8751,-3.8751,-3.8584,-3.8002,-3.7761,-3.7674,-3.7621,-3.7483,-3.7313,-3.7212,-3.6874,-3.6282,-3.5757,-3.5639,-3.591,-3.6089,-3.5529,-3.5152,-3.547,-3.5258,-3.5182,-3.5577,-3.569,-3.5337,-3.4671,-3.4495,-3.4301,-3.3797,-3.361,-3.3543,-3.3563,-3.3547,-3.3479,-3.3479,-3.3649,-3.3887,-3.4087,-3.4447,-3.474,-1.5477,-1.6933,-1.8527,-1.9714,-2.0515,-2.0862,-2.1622,-2.2655,-2.3478,-2.4502,-2.5637,-2.5685,-2.6075,-2.6768,-2.7149,-2.739,-2.7598,-2.8493,-2.8887,-2.8839,-2.818,-2.7789,-2.7688,-2.7046,-2.6708,-2.6758,-2.7083,-2.7272,-2.7303,-2.7648,-2.7678,-2.7396,-2.7334,-2.7115,-2.6774,-2.6725,-2.6708,-2.6708,-2.6826,-2.7266,-2.7941,-2.7457,-2.762,-2.841,-2.7224,-2.6642,-2.6856,-2.6741,-2.6692,-2.6737,-2.726,-2.756,-2.756,-2.756,-2.756,-2.756,-2.756,-2.7874,-2.8562,-2.928,-2.9939,-3.0552,-3.118,-3.1452,-3.1467,-3.1642,-3.2,-3.2835,-3.403,-3.5103,-3.5844,-3.6446,-3.7084,-3.7793,-3.7894,-3.8007,-3.8007,-3.8007,-3.7939,-3.7929,-3.7242,-3.6898,-3.6831,-3.6418,-3.596,-3.6079,-3.6011,-3.5825,-3.5673,-3.5639,-3.5639,-3.5757,-3.5532,-3.5532,-3.5577,-3.5577,-3.547,-3.5577,-3.5639,-3.5266,-3.4731,-3.4541,-3.4414,-3.3941,-3.3639,-3.3673,-3.359,-3.3582,-3.3604,-3.3792,-3.4121,-3.4638,-3.5191,-3.529,-3.5078,-1.578,-1.7053,-1.8158,-1.9233,-2.019,-2.101,-2.1622,-2.2179,-2.3192,-2.4148,-2.4881,-2.4597,-2.5213,-2.6535,-2.6614,-2.6848,-2.7189,-2.7523,-2.7621,-2.7604,-2.7283,-2.7148,-2.7114,-2.686,-2.6708,-2.6691,-2.6873,-2.6922,-2.6971,-2.7115,-2.7115,-2.6954,-2.6922,-2.6873,-2.6691,-2.6708,-2.6708,-2.6708,-2.6708,-2.686,-2.7011,-2.6389,-2.6525,-2.7386,-2.6202,-2.5788,-2.6516,-2.6602,-2.6767,-2.7126,-2.749,-2.756,-2.756,-2.756,-2.756,-2.756,-2.756,-2.7874,-2.8547,-2.8846,-2.943,-3.0432,-3.0761,-3.1076,-3.1437,-3.1467,-3.164,-3.2007,-3.2826,-3.3674,-3.4392,-3.4758,-3.5366,-3.6355,-3.657,-3.6781,-3.7182,-3.7246,-3.7123,-3.6615,-3.631,-3.6079,-3.6067,-3.5836,-3.5639,-3.5639,-3.5639,-3.5639,-3.5639,-3.5639,-3.5639,-3.5639,-3.5639,-3.5639,-3.5622,-3.5639,-3.5622,-3.5622,-3.5639,-3.5374,-3.5136,-3.5094,-3.4935,-3.4237,-3.406,-3.3815,-3.3508,-3.3528,-3.3561,-3.3922,-3.42,-3.4594,-3.4752,-3.4515,-3.4257,-1.5737,-1.6781,-1.7715,-1.8744,-1.9901,-2.1002,-2.1568,-2.1838,-2.2891,-2.3747,-2.4224,-2.3804,-2.4366,-2.5592,-2.5701,-2.6006,-2.6536,-2.653,-2.659,-2.6708,-2.6708,-2.6708,-2.6708,-2.6708,-2.6708,-2.6708,-2.6691,-2.6691,-2.6708,-2.6708,-2.6708,-2.6708,-2.6708,-2.6708,-2.6708,-2.6708,-2.6708,-2.6708,-2.6708,-2.6708,-2.659,-2.5709,-2.5774,-2.6707,-2.5262,-2.4896,-2.5989,-2.6048,-2.6348,-2.7006,-2.7215,-2.7395,-2.756,-2.756,-2.756,-2.756,-2.756,-2.7784,-2.8293,-2.8487,-2.8981,-2.9864,-3.0118,-3.0537,-3.1076,-3.124,-3.1287,-3.1524,-3.2007,-3.2571,-3.3198,-3.3633,-3.428,-3.5053,-3.5383,-3.5869,-3.6139,-3.6312,-3.6248,-3.5723,-3.5723,-3.5639,-3.5639,-3.5639,-3.5639,-3.5639,-3.5639,-3.5639,-3.5639,-3.5639,-3.5639,-3.5605,-3.547,-3.5402,-3.5537,-3.5256,-3.5273,-3.5233,-3.5131,-3.4878,-3.5013,-3.4952,-3.4918,-3.3851,-3.4115,-3.409,-3.3648,-3.3515,-3.3609,-3.4176,-3.438,-3.4312,-3.4372,-3.3702,-3.3457,-1.5028,-1.5692,-1.7056,-1.8494,-1.985,-2.0547,-2.1161,-2.171,-2.2438,-2.3098,-2.3598,-2.364,-2.364,-2.3889,-2.4379,-2.4815,-2.5323,-2.5848,-2.6297,-2.6657,-2.6708,-2.6708,-2.6708,-2.6708,-2.6691,-2.6607,-2.6573,-2.6624,-2.6657,-2.6708,-2.6708,-2.6708,-2.6708,-2.6708,-2.6708,-2.6708,-2.6708,-2.6708,-2.6708,-2.6708,-2.6539,-2.5693,-2.5534,-2.5973,-2.4587,-2.4059,-2.4687,-2.4701,-2.5061,-2.5704,-2.6363,-2.6931,-2.7535,-2.756,-2.756,-2.756,-2.756,-2.7625,-2.7724,-2.8203,-2.8637,-2.8801,-2.9325,-2.9894,-3.0477,-3.0627,-3.0881,-3.1392,-3.1552,-3.1951,-3.2625,-3.3479,-3.4053,-3.3933,-3.4851,-3.5198,-3.4883,-3.5484,-3.5645,-3.5639,-3.5639,-3.5639,-3.5639,-3.5639,-3.5639,-3.5639,-3.5639,-3.5639,-3.5605,-3.5622,-3.5537,-3.5402,-3.5081,-3.4793,-3.5318,-3.4851,-3.4462,-3.4438,-3.4184,-3.3694,-3.3541,-3.3491,-3.3508,-3.3491,-3.3457,-3.3457,-3.3533,-3.3643,-3.3752,-3.3956,-3.3973,-3.3964,-3.3481,-3.3128,-3.2849,-1.5547,-1.6255,-1.7677,-1.8608,-1.9202,-2.0333,-2.093,-2.1224,-2.2221,-2.283,-2.3054,-2.3421,-2.3595,-2.3638,-2.3794,-2.4348,-2.5221,-2.5762,-2.6262,-2.6657,-2.6708,-2.6708,-2.6657,-2.6418,-2.6177,-2.604,-2.5859,-2.5944,-2.6262,-2.6539,-2.6708,-2.6708,-2.6708,-2.6708,-2.6708,-2.6708,-2.6708,-2.6708,-2.6708,-2.6556,-2.6245,-2.5561,-2.5171,-2.5017,-2.4143,-2.3924,-2.4552,-2.4582,-2.5121,-2.6198,-2.6482,-2.6901,-2.752,-2.756,-2.756,-2.756,-2.756,-2.756,-2.759,-2.7784,-2.8143,-2.8577,-2.8801,-2.9235,-2.9834,-3.0268,-3.0612,-3.0881,-3.133,-3.1682,-3.1838,-3.2336,-3.2917,-3.3547,-3.4053,-3.4657,-3.5098,-3.547,-3.5639,-3.5639,-3.5639,-3.5639,-3.5639,-3.5639,-3.5639,-3.5639,-3.5622,-3.5588,-3.552,-3.5233,-3.4895,-3.4827,-3.4592,-3.4253,-3.4117,-3.3981,-3.3744,-3.3728,-3.3558,-3.3474,-3.3339,-3.3237,-3.3254,-3.2763,-3.2679,-3.2544,-3.2568,-3.2686,-3.2971,-3.2659,-3.2744,-3.2971,-3.2388,-3.2181,-3.1938,-1.5806,-1.6652,-1.7852,-1.8489,-1.8821,-1.9978,-2.061,-2.0894,-2.1704,-2.2314,-2.274,-2.3157,-2.3421,-2.3551,-2.3595,-2.4074,-2.4894,-2.5335,-2.5746,-2.621,-2.621,-2.6193,-2.6158,-2.5888,-2.5677,-2.5575,-2.5529,-2.5635,-2.5997,-2.647,-2.6708,-2.6708,-2.6708,-2.6708,-2.6708,-2.6708,-2.6708,-2.6691,-2.6556,-2.6297,-2.5961,-2.5297,-2.4776,-2.4389,-2.3864,-2.3804,-2.4283,-2.4313,-2.4792,-2.5794,-2.6153,-2.6662,-2.7505,-2.756,-2.756,-2.756,-2.756,-2.756,-2.756,-2.756,-2.7769,-2.8203,-2.8293,-2.8547,-2.919,-2.9639,-3.0028,-3.0462,-3.0881,-3.1255,-3.1422,-3.1524,-3.1992,-3.313,-3.3633,-3.4235,-3.5161,-3.5453,-3.5577,-3.5639,-3.5639,-3.5639,-3.5622,-3.5639,-3.5504,-3.5318,-3.5172,-3.5104,-3.4817,-3.4506,-3.4134,-3.41,-3.3778,-3.3422,-3.3143,-3.2848,-3.2882,-3.2899,-3.2696,-3.278,-3.2865,-3.2814,-3.2662,-3.2154,-3.1833,-3.163,-3.1613,-3.1732,-3.1579,-3.1309,-3.1619,-3.2049,-3.1653,-3.136,-3.1376,-1.5806,-1.6482,-1.7302,-1.8004,-1.865,-1.9527,-2.0194,-2.0696,-2.0845,-2.1609,-2.2512,-2.2694,-2.3113,-2.3508,-2.3595,-2.3921,-2.4348,-2.4471,-2.4816,-2.5335,-2.5335,-2.5335,-2.5335,-2.5259,-2.5182,-2.5189,-2.5689,-2.5924,-2.6013,-2.6401,-2.6624,-2.6691,-2.6708,-2.6708,-2.6708,-2.6708,-2.6691,-2.659,-2.6262,-2.6013,-2.5852,-2.495,-2.443,-2.4307,-2.3837,-2.3625,-2.367,-2.3655,-2.4029,-2.4657,-2.53,-2.6213,-2.7275,-2.7485,-2.758,-2.756,-2.756,-2.756,-2.756,-2.756,-2.7575,-2.7679,-2.7619,-2.7949,-2.8472,-2.8727,-2.9235,-3.0178,-3.0537,-3.0791,-3.139,-3.1467,-3.1838,-3.2571,-3.3652,-3.443,-3.4733,-3.5207,-3.5639,-3.5639,-3.5639,-3.556,-3.5605,-3.5571,-3.5318,-3.4675,-3.431,-3.4107,-3.3769,-3.3558,-3.3423,-3.3271,-3.2889,-3.2432,-3.2053,-3.1765,-3.1918,-3.2002,-3.1732,-3.163,-3.1765,-3.1799,-3.1867,-3.1512,-3.1529,-3.1343,-3.136,-3.1444,-3.141,-3.1224,-3.1343,-3.1433,-3.1292,-3.119,-3.119,-1.5526,-1.5921,-1.7079,-1.7743,-1.8112,-1.9254,-1.9952,-2.0194,-2.0597,-2.1259,-2.2007,-2.2498,-2.3054,-2.3508,-2.3595,-2.3681,-2.3852,-2.3879,-2.4307,-2.5067,-2.5182,-2.5182,-2.5105,-2.4816,-2.4657,-2.4672,-2.4831,-2.5297,-2.5924,-2.6156,-2.6367,-2.6624,-2.6708,-2.6708,-2.6708,-2.6691,-2.659,-2.6227,-2.6085,-2.5652,-2.4989,-2.4592,-2.4241,-2.3879,-2.3666,-2.3595,-2.3595,-2.3595,-2.3924,-2.4522,-2.4776,-2.5525,-2.6602,-2.6901,-2.7096,-2.75,-2.756,-2.756,-2.756,-2.756,-2.756,-2.756,-2.756,-2.77,-2.7919,-2.8338,-2.8921,-2.9804,-3.0238,-3.0791,-3.136,-3.1467,-3.1834,-3.2555,-3.3393,-3.4151,-3.4638,-3.5194,-3.556,-3.5639,-3.5639,-3.5402,-3.5074,-3.5196,-3.4948,-3.3914,-3.3423,-3.3111,-3.3246,-3.2865,-3.2662,-3.256,-3.2002,-3.163,-3.1529,-3.1478,-3.1546,-3.163,-3.1376,-3.119,-3.119,-3.119,-3.119,-3.119,-3.119,-3.119,-3.119,-3.119,-3.119,-3.119,-3.1258,-3.1241,-3.1207,-3.119,-3.119,-1.542,-1.5526,-1.6687,-1.7357,-1.7731,-1.8874,-1.9592,-1.985,-2.0245,-2.0782,-2.139,-2.2053,-2.268,-2.3231,-2.3508,-2.3595,-2.3595,-2.3595,-2.3964,-2.4552,-2.4632,-2.4592,-2.4632,-2.4496,-2.4405,-2.4511,-2.4831,-2.5335,-2.5977,-2.6191,-2.6401,-2.6674,-2.6708,-2.6708,-2.6708,-2.6708,-2.6487,-2.6049,-2.5799,-2.5297,-2.4552,-2.4184,-2.3964,-2.3638,-2.3595,-2.3595,-2.3595,-2.3595,-2.3804,-2.4208,-2.4477,-2.5151,-2.6108,-2.6243,-2.6408,-2.6767,-2.7066,-2.72,-2.7215,-2.741,-2.756,-2.756,-2.756,-2.7575,-2.7649,-2.8053,-2.8487,-2.916,-2.9535,-3.0273,-3.1233,-3.1273,-3.1695,-3.2895,-3.3335,-3.4023,-3.4777,-3.5329,-3.556,-3.5571,-3.5368,-3.5006,-3.4762,-3.4287,-3.4168,-3.3152,-3.2504,-3.2176,-3.2435,-3.2154,-3.2002,-3.185,-3.1579,-3.1343,-3.1241,-3.1207,-3.1207,-3.1258,-3.1241,-3.119,-3.119,-3.119,-3.119,-3.119,-3.119,-3.119,-3.119,-3.119,-3.119,-3.119,-3.119,-3.119,-3.119,-3.119,-3.119,-1.542,-1.5468,-1.6208,-1.6978,-1.7633,-1.8436,-1.915,-1.9747,-1.985,-2.0308,-2.0979,-2.1472,-2.2136,-2.2801,-2.3228,-2.3325,-2.3505,-2.3325,-2.3338,-2.3438,-2.3495,-2.3568,-2.3933,-2.4282,-2.4471,-2.4752,-2.5411,-2.5888,-2.612,-2.6367,-2.6691,-2.6708,-2.6708,-2.6657,-2.6624,-2.6624,-2.6332,-2.5762,-2.5373,-2.4855,-2.4307,-2.3921,-2.3638,-2.3595,-2.3595,-2.3595,-2.3595,-2.3595,-2.3595,-2.3699,-2.4193,-2.4792,-2.5405,-2.5555,-2.5585,-2.5764,-2.6243,-2.6467,-2.6662,-2.6946,-2.732,-2.7395,-2.7445,-2.756,-2.7625,-2.7664,-2.7993,-2.8622,-2.8847,-2.9561,-3.092,-3.1099,-3.1602,-3.3103,-3.3494,-3.4119,-3.5244,-3.5436,-3.5205,-3.5172,-3.4861,-3.4397,-3.4202,-3.3423,-3.284,-3.2266,-3.1712,-3.151,-3.1455,-3.1461,-3.1275,-3.1207,-3.1241,-3.1224,-3.119,-3.119,-3.1173,-3.1123,-3.1072,-3.0954,-3.1089,-3.114,-3.0987,-3.1021,-3.1038,-3.1089,-3.1106,-3.1055,-3.1123,-3.119,-3.119,-3.119,-3.119,-3.1173,-3.119,-1.542,-1.5468,-1.6208,-1.6922,-1.7633,-1.8394,-1.9085,-1.9747,-1.9773,-2.0306,-2.1185,-2.1162,-2.1846,-2.32,-2.2483,-2.2443,-2.2727,-2.2443,-2.2188,-2.2203,-2.2188,-2.3046,-2.3989,-2.4348,-2.4816,-2.5411,-2.5524,-2.5799,-2.6436,-2.6332,-2.6401,-2.6708,-2.6657,-2.6521,-2.6262,-2.6191,-2.5672,-2.4934,-2.4752,-2.4389,-2.3921,-2.3709,-2.3595,-2.3595,-2.3595,-2.3595,-2.3595,-2.3595,-2.3595,-2.3595,-2.3744,-2.4193,-2.4807,-2.4881,-2.5046,-2.5465,-2.5719,-2.5869,-2.5899,-2.6063,-2.6363,-2.6782,-2.6861,-2.7075,-2.758,-2.761,-2.7904,-2.8531,-2.8991,-2.9658,-3.0572,-3.1055,-3.174,-3.2528,-3.3179,-3.3789,-3.4476,-3.4303,-3.3972,-3.392,-3.3837,-3.3482,-3.3107,-3.2802,-3.2307,-3.1698,-3.1354,-3.1179,-3.1207,-3.119,-3.119,-3.119,-3.1207,-3.1207,-3.119,-3.119,-3.1157,-3.1072,-3.0886,-3.0565,-3.0784,-3.1004,-3.0751,-3.0548,-3.0509,-3.0543,-3.0683,-3.0717,-3.0903,-3.092,-3.1173,-3.1157,-3.1157,-3.1157,-3.1173,-1.542,-1.5391,-1.5672,-1.6356,-1.7232,-1.7519,-1.8226,-1.9021,-1.912,-1.9502,-2.0154,-2.0439,-2.1034,-2.1931,-2.1806,-2.1889,-2.2158,-2.1874,-2.1724,-2.1734,-2.1907,-2.261,-2.3575,-2.4166,-2.4932,-2.5598,-2.5783,-2.6158,-2.659,-2.6418,-2.6487,-2.659,-2.6505,-2.6262,-2.6049,-2.5726,-2.5243,-2.4576,-2.4415,-2.4138,-2.3638,-2.3595,-2.3595,-2.3595,-2.3595,-2.3595,-2.3595,-2.3595,-2.3595,-2.3595,-2.3625,-2.3789,-2.4089,-2.4178,-2.4373,-2.4777,-2.5031,-2.5181,-2.527,-2.5435,-2.5779,-2.6093,-2.6168,-2.6527,-2.704,-2.7384,-2.7819,-2.8499,-2.9069,-2.9911,-3.0831,-3.1672,-3.218,-3.2403,-3.2748,-3.3313,-3.3947,-3.3694,-3.3406,-3.333,-3.3102,-3.2797,-3.2326,-3.2184,-3.1788,-3.1376,-3.1258,-3.1207,-3.119,-3.1173,-3.1089,-3.0987,-3.0954,-3.0903,-3.07,-3.0615,-3.0294,-3.0277,-3.0159,-2.9922,-2.9989,-3.0311,-3.0125,-2.9837,-2.9935,-3.0002,-2.9985,-3.0057,-3.0104,-3.0273,-3.0768,-3.0959,-3.0806,-3.0712,-3.0818,-1.5361,-1.5381,-1.4961,-1.5584,-1.6638,-1.6457,-1.7173,-1.8086,-1.8304,-1.8387,-1.8699,-1.9435,-2.0059,-2.0074,-2.1053,-2.147,-2.159,-2.1365,-2.1365,-2.1452,-2.1759,-2.2309,-2.2681,-2.3982,-2.4697,-2.5261,-2.6183,-2.6472,-2.6556,-2.6539,-2.6539,-2.6354,-2.6027,-2.5694,-2.5261,-2.5024,-2.476,-2.4234,-2.4158,-2.3998,-2.3666,-2.3595,-2.3595,-2.3595,-2.3595,-2.3595,-2.3595,-2.3595,-2.3595,-2.3595,-2.3595,-2.3625,-2.364,-2.3625,-2.3655,-2.3789,-2.4253,-2.4477,-2.4552,-2.4971,-2.539,-2.5433,-2.5506,-2.5801,-2.6444,-2.6961,-2.7473,-2.7982,-2.8851,-2.9722,-3.0909,-3.2261,-3.2513,-3.2208,-3.2171,-3.2493,-3.2966,-3.3186,-3.3195,-3.3161,-3.2536,-3.2266,-3.2029,-3.1658,-3.1207,-3.1241,-3.1055,-3.0818,-3.07,-3.0531,-3.0514,-3.0531,-3.0531,-3.0548,-3.026,-2.9973,-2.9516,-2.9194,-2.9093,-2.8924,-2.8772,-2.8941,-2.9008,-2.9025,-2.9087,-2.9053,-2.8991,-2.9093,-2.9293,-2.9668,-3.0129,-3.0153,-3.0071,-3.0023,-3.0015,-1.5107,-1.5371,-1.4961,-1.5584,-1.6671,-1.6729,-1.7225,-1.8119,-1.8166,-1.8359,-1.8831,-1.9062,-1.9684,-2.0568,-2.0356,-2.0378,-2.0812,-2.0468,-2.0124,-2.0257,-2.1115,-2.1512,-2.2003,-2.3387,-2.4341,-2.4863,-2.6051,-2.6303,-2.6032,-2.6135,-2.6202,-2.5412,-2.5122,-2.4544,-2.347,-2.3707,-2.3535,-2.3212,-2.3534,-2.3749,-2.3666,-2.3595,-2.3595,-2.3595,-2.3595,-2.3595,-2.3595,-2.3595,-2.3595,-2.3595,-2.3595,-2.3595,-2.3595,-2.3595,-2.3595,-2.3625,-2.3714,-2.3849,-2.3864,-2.4059,-2.4283,-2.4777,-2.4912,-2.5093,-2.5751,-2.6363,-2.6707,-2.7045,-2.7774,-2.909,-3.0235,-3.1162,-3.1478,-3.1376,-3.1343,-3.1427,-3.1647,-3.1715,-3.1816,-3.1675,-3.1596,-3.1427,-3.1444,-3.1258,-3.1021,-3.1072,-3.0784,-3.0429,-3.0159,-2.9922,-2.9905,-2.9939,-2.9871,-2.9803,-2.9397,-2.9059,-2.8619,-2.8281,-2.8146,-2.8044,-2.7892,-2.801,-2.823,-2.8279,-2.8258,-2.8193,-2.8112,-2.8361,-2.8612,-2.9076,-2.9403,-2.944,-2.9406,-2.931,-2.9168,-1.4619,-1.4766,-1.4355,-1.4945,-1.5963,-1.5925,-1.6407,-1.7256,-1.7413,-1.7747,-1.8226,-1.8412,-1.9067,-1.9937,-1.9812,-1.9929,-2.0079,-1.9899,-1.9705,-1.9888,-2.0538,-2.0945,-2.1395,-2.252,-2.3473,-2.3852,-2.4263,-2.4479,-2.4647,-2.4996,-2.4879,-2.419,-2.3932,-2.3394,-2.2512,-2.254,-2.2662,-2.2795,-2.3016,-2.3301,-2.3522,-2.3595,-2.3595,-2.3595,-2.3595,-2.3595,-2.3595,-2.3595,-2.3595,-2.3595,-2.3595,-2.3595,-2.3595,-2.3595,-2.3595,-2.3595,-2.3595,-2.3595,-2.3595,-2.361,-2.3789,-2.4103,-2.4329,-2.4711,-2.5328,-2.6047,-2.6709,-2.7035,-2.785,-2.89,-2.9512,-2.9854,-3.0142,-3.0159,-3.0176,-3.0159,-3.026,-3.0734,-3.1016,-3.0808,-3.0695,-3.0429,-3.0349,-3.0383,-3.0209,-2.9989,-2.9905,-2.9583,-2.9583,-2.9364,-2.9262,-2.9245,-2.918,-2.8941,-2.8501,-2.8095,-2.7672,-2.7435,-2.7334,-2.7249,-2.7148,-2.7368,-2.7655,-2.7637,-2.7568,-2.7383,-2.7385,-2.7687,-2.787,-2.7958,-2.8198,-2.8539,-2.8554,-2.8087,-2.7931,-1.4019,-1.4102,-1.3775,-1.4273,-1.5156,-1.5127,-1.5643,-1.6442,-1.6534,-1.6905,-1.7242,-1.7827,-1.8467,-1.8846,-1.9501,-1.969,-1.9705,-1.972,-1.9705,-1.9792,-2.0185,-2.0574,-2.1067,-2.1778,-2.2313,-2.2639,-2.2508,-2.2573,-2.3143,-2.3537,-2.3767,-2.301,-2.2535,-2.2123,-2.1916,-2.1773,-2.1764,-2.2158,-2.2399,-2.2695,-2.3086,-2.3158,-2.3143,-2.3131,-2.3131,-2.3236,-2.331,-2.3385,-2.346,-2.358,-2.3595,-2.3595,-2.3595,-2.3595,-2.3595,-2.3595,-2.3595,-2.3595,-2.3595,-2.3595,-2.361,-2.3623,-2.3987,-2.4342,-2.486,-2.5735,-2.6497,-2.7218,-2.7909,-2.8631,-2.8822,-2.9107,-2.9127,-2.913,-2.9062,-2.8994,-2.9231,-3.0163,-3.0306,-3.0079,-2.9935,-2.9763,-2.9474,-2.9372,-2.9149,-2.8941,-2.8873,-2.8805,-2.8805,-2.8636,-2.845,-2.8281,-2.8129,-2.8061,-2.7689,-2.7588,-2.7114,-2.6996,-2.6826,-2.6776,-2.6708,-2.6928,-2.7165,-2.6979,-2.6877,-2.6826,-2.6911,-2.7198,-2.7249,-2.7012,-2.7199,-2.7741,-2.745,-2.6803,-2.6956,-1.3818,-1.4092,-1.4206,-1.4697,-1.5356,-1.5822,-1.6128,-1.6473,-1.6534,-1.6565,-1.6795,-1.7666,-1.8145,-1.8496,-1.9295,-1.969,-1.9705,-1.9705,-1.9705,-1.9762,-2.0054,-2.0348,-2.0613,-2.1085,-2.1292,-2.0952,-2.1071,-2.1665,-2.2343,-2.3243,-2.2828,-2.1988,-2.1662,-2.1245,-2.0704,-2.058,-2.0961,-2.1311,-2.1654,-2.1951,-2.2158,-2.2219,-2.2204,-2.2188,-2.2233,-2.2428,-2.2742,-2.2903,-2.3056,-2.352,-2.358,-2.355,-2.346,-2.346,-2.349,-2.3595,-2.3595,-2.3595,-2.3681,-2.3595,-2.3595,-2.3595,-2.3822,-2.4085,-2.4519,-2.5187,-2.6048,-2.6561,-2.7314,-2.8027,-2.7992,-2.8395,-2.8868,-2.8941,-2.8827,-2.8829,-2.8929,-2.9079,-2.9293,-2.903,-2.9056,-2.9036,-2.8677,-2.8472,-2.8471,-2.8281,-2.8129,-2.8061,-2.8027,-2.7672,-2.7266,-2.7131,-2.6996,-2.6962,-2.686,-2.6928,-2.681,-2.6826,-2.6742,-2.6742,-2.6708,-2.6708,-2.6691,-2.6522,-2.659,-2.6742,-2.6826,-2.6911,-2.6894,-2.6843,-2.6945,-2.708,-2.6894,-2.6689,-2.6689,-1.3491,-1.3932,-1.4042,-1.4609,-1.5406,-1.5798,-1.6175,-1.6461,-1.6522,-1.668,-1.7063,-1.7747,-1.8277,-1.8664,-1.9332,-1.969,-1.9705,-1.9705,-1.9705,-1.9782,-1.9909,-2.0124,-2.0215,-2.0534,-2.0452,-2.042,-2.0654,-2.0765,-2.0933,-2.1573,-2.1516,-2.0859,-2.0553,-2.0243,-1.9882,-2.0055,-2.0378,-2.0654,-2.1019,-2.1362,-2.1635,-2.1663,-2.1684,-2.1674,-2.1665,-2.1874,-2.2054,-2.2158,-2.2293,-2.2532,-2.2592,-2.2622,-2.2637,-2.2712,-2.2921,-2.34,-2.355,-2.3736,-2.3864,-2.3837,-2.3837,-2.4389,-2.4389,-2.4552,-2.4934,-2.5524,-2.6033,-2.6415,-2.6655,-2.7232,-2.7266,-2.7671,-2.7772,-2.7807,-2.786,-2.7877,-2.7842,-2.7843,-2.7923,-2.8012,-2.8198,-2.81,-2.7709,-2.764,-2.7758,-2.7638,-2.7452,-2.7368,-2.7334,-2.7063,-2.6708,-2.6708,-2.6708,-2.6623,-2.6573,-2.6522,-2.6471,-2.6488,-2.642,-2.642,-2.6471,-2.637,-2.6234,-2.6082,-2.6251,-2.6404,-2.6691,-2.6759,-2.6708,-2.6691,-2.681,-2.686,-2.6776,-2.6691,-2.6708,-1.3372,-1.3815,-1.4039,-1.4721,-1.5531,-1.5732,-1.6064,-1.6436,-1.6534,-1.671,-1.7201,-1.7801,-1.8341,-1.8817,-1.9332,-1.9705,-1.9705,-1.9705,-1.9705,-1.9726,-1.9711,-1.9909,-1.9993,-1.9936,-1.9886,-2.0128,-2.0255,-2.0187,-2.0061,-2.0381,-2.0115,-1.9965,-1.9756,-1.9705,-1.9735,-1.9765,-2.0109,-2.0318,-2.0528,-2.0827,-2.1171,-2.1291,-2.1291,-2.1291,-2.1306,-2.1291,-2.147,-2.15,-2.162,-2.1754,-2.1799,-2.1754,-2.171,-2.1695,-2.2173,-2.2996,-2.3191,-2.3546,-2.3777,-2.383,-2.3912,-2.4665,-2.5051,-2.5221,-2.5524,-2.6016,-2.6624,-2.6708,-2.6725,-2.6759,-2.6826,-2.6759,-2.6793,-2.681,-2.6826,-2.6759,-2.6877,-2.6962,-2.703,-2.7148,-2.7351,-2.7317,-2.708,-2.7046,-2.7267,-2.7232,-2.7063,-2.7029,-2.6979,-2.6911,-2.6708,-2.6708,-2.6657,-2.6522,-2.642,-2.6268,-2.6149,-2.6027,-2.581,-2.5659,-2.5795,-2.5913,-2.571,-2.5456,-2.5609,-2.5778,-2.6184,-2.6505,-2.6471,-2.6488,-2.6623,-2.6708,-2.6708,-2.6708,-2.6691,-1.3721,-1.3909,-1.4949,-1.5499,-1.5676,-1.6151,-1.6436,-1.6479,-1.6534,-1.6522,-1.6723,-1.7626,-1.8171,-1.8535,-1.9332,-1.969,-1.9705,-1.9705,-1.9705,-1.9705,-1.9726,-1.9747,-1.9782,-1.9767,-1.9743,-1.9874,-1.9859,-1.9767,-1.9782,-2.0104,-2.007,-1.9782,-1.9705,-1.9705,-1.9705,-1.9705,-1.9735,-1.9824,-1.9854,-1.9914,-2.0004,-2.0049,-2.0064,-2.0034,-2.0094,-2.0318,-2.0752,-2.0842,-2.1006,-2.15,-2.1605,-2.1665,-2.1695,-2.1695,-2.171,-2.1874,-2.1964,-2.2214,-2.2909,-2.3218,-2.3716,-2.4492,-2.4907,-2.5379,-2.5908,-2.628,-2.6708,-2.6708,-2.6708,-2.6708,-2.6708,-2.6708,-2.6708,-2.6708,-2.6708,-2.6708,-2.6708,-2.6708,-2.6708,-2.6708,-2.7046,-2.6894,-2.6691,-2.6725,-2.6742,-2.6708,-2.6691,-2.664,-2.6505,-2.6353,-2.6234,-2.6133,-2.6065,-2.5947,-2.5828,-2.5744,-2.5658,-2.5484,-2.5283,-2.5,-2.5118,-2.522,-2.4898,-2.4746,-2.4881,-2.4901,-2.4989,-2.5375,-2.5914,-2.637,-2.664,-2.6708,-2.6708,-2.6708,-2.6708,-1.4003,-1.4365,-1.5219,-1.582,-1.6151,-1.638,-1.6534,-1.6534,-1.6534,-1.6534,-1.6723,-1.7626,-1.8419,-1.8968,-1.9566,-1.969,-1.9705,-1.9705,-1.9705,-1.9705,-1.9705,-1.9705,-1.9726,-1.9726,-1.9705,-1.9705,-1.9705,-1.9747,-1.9782,-1.9854,-1.9854,-1.9762,-1.9705,-1.9705,-1.9705,-1.9705,-1.9705,-1.972,-1.9705,-1.9705,-1.9705,-1.9705,-1.9705,-1.9705,-1.9705,-1.9899,-2.0064,-2.0139,-2.0228,-2.0557,-2.0557,-2.0543,-2.0543,-2.0528,-2.0543,-2.0557,-2.0557,-2.1326,-2.2638,-2.2778,-2.339,-2.4233,-2.4841,-2.536,-2.6114,-2.6488,-2.664,-2.6708,-2.6708,-2.6657,-2.6623,-2.6708,-2.6708,-2.6674,-2.6522,-2.6674,-2.6674,-2.6691,-2.6708,-2.6708,-2.6607,-2.6369,-2.6217,-2.6302,-2.6336,-2.6353,-2.6184,-2.5998,-2.5761,-2.5456,-2.5338,-2.5253,-2.522,-2.5169,-2.5067,-2.4966,-2.4932,-2.4842,-2.4825,-2.4594,-2.4543,-2.4458,-2.4154,-2.3951,-2.3968,-2.3941,-2.3866,-2.4702,-2.571,-2.6234,-2.6691,-2.6708,-2.6708,-2.6708,-2.6725,-1.4143,-1.4744,-1.5365,-1.5952,-1.6479,-1.6534,-1.6534,-1.6534,-1.6534,-1.6534,-1.6808,-1.7626,-1.8703,-1.953,-1.969,-1.9705,-1.9705,-1.9705,-1.9705,-1.9705,-1.9705,-1.9705,-1.9705,-1.9705,-1.9705,-1.9705,-1.9705,-1.9705,-1.9705,-1.9726,-1.9762,-1.9705,-1.9705,-1.9705,-1.9705,-1.9705,-1.9705,-1.9705,-1.9705,-1.9705,-1.9705,-1.9705,-1.9705,-1.9705,-1.9705,-1.9705,-1.9705,-1.972,-1.9735,-1.9779,-1.9839,-1.9884,-1.9854,-1.9899,-1.9884,-1.9957,-2.0029,-2.0731,-2.1886,-2.2445,-2.3036,-2.3885,-2.4625,-2.5096,-2.5731,-2.6133,-2.6133,-2.5964,-2.5981,-2.6015,-2.6116,-2.6065,-2.6116,-2.6082,-2.6116,-2.637,-2.6505,-2.6201,-2.6115,-2.6132,-2.5946,-2.5656,-2.5622,-2.5844,-2.593,-2.5981,-2.5761,-2.5406,-2.505,-2.4678,-2.4695,-2.4678,-2.4695,-2.4625,-2.4289,-2.4205,-2.4171,-2.4086,-2.4069,-2.3951,-2.3748,-2.3646,-2.3444,-2.3291,-2.3219,-2.3085,-2.308,-2.4315,-2.5507,-2.5863,-2.6235,-2.6607,-2.6708,-2.6725,-2.6758,-1.4143,-1.4755,-1.532,-1.592,-1.6534,-1.6534,-1.6534,-1.6534,-1.6534,-1.6522,-1.6723,-1.7585,-1.8612,-1.9369,-1.953,-1.9581,-1.9675,-1.969,-1.969,-1.969,-1.9705,-1.9705,-1.9705,-1.9705,-1.9705,-1.9705,-1.9705,-1.9705,-1.9705,-1.9705,-1.9705,-1.9705,-1.9705,-1.9705,-1.9705,-1.9705,-1.9705,-1.9705,-1.9705,-1.9705,-1.9705,-1.9705,-1.9705,-1.9705,-1.9705,-1.9705,-1.9705,-1.9705,-1.9705,-1.9705,-1.9705,-1.9705,-1.9705,-1.9705,-1.9705,-1.9762,-2.0,-2.0618,-2.1304,-2.1952,-2.2685,-2.3523,-2.4178,-2.4551,-2.5,-2.4811,-2.4726,-2.4881,-2.5067,-2.4963,-2.4862,-2.476,-2.5236,-2.5404,-2.5505,-2.5625,-2.5609,-2.5253,-2.5217,-2.5418,-2.5317,-2.5028,-2.4723,-2.4896,-2.52,-2.5236,-2.4898,-2.4543,-2.434,-2.4069,-2.4205,-2.4255,-2.4337,-2.4086,-2.3579,-2.3444,-2.3393,-2.3224,-2.3122,-2.2936,-2.2699,-2.2649,-2.2868,-2.283,-2.2773,-2.2519,-2.255,-2.3896,-2.4923,-2.5387,-2.5813,-2.6432,-2.6869,-2.7019,-2.6954,-1.36,-1.419,-1.4778,-1.5599,-1.6534,-1.6534,-1.6534,-1.6534,-1.6522,-1.671,-1.6993,-1.7463,-1.8013,-1.8574,-1.8727,-1.893,-1.9169,-1.9207,-1.9406,-1.9603,-1.9705,-1.9705,-1.9705,-1.9705,-1.9705,-1.9705,-1.9705,-1.9705,-1.9705,-1.9705,-1.9705,-1.9705,-1.9705,-1.9705,-1.9705,-1.9705,-1.9705,-1.9705,-1.9705,-1.9705,-1.9705,-1.9705,-1.9705,-1.9705,-1.9705,-1.9705,-1.9705,-1.9705,-1.9705,-1.9705,-1.9705,-1.9705,-1.9705,-1.9705,-1.9705,-1.9762,-2.0089,-2.055,-2.0943,-2.1552,-2.2322,-2.326,-2.3725,-2.3951,-2.4286,-2.4455,-2.4506,-2.454,-2.4421,-2.4303,-2.4496,-2.452,-2.4692,-2.4774,-2.4825,-2.4879,-2.4831,-2.4526,-2.4441,-2.4726,-2.4659,-2.4455,-2.4133,-2.3863,-2.4201,-2.4472,-2.4052,-2.3714,-2.3545,-2.341,-2.3494,-2.3528,-2.3545,-2.346,-2.297,-2.2767,-2.2632,-2.2491,-2.2321,-2.2332,-2.2343,-2.2344,-2.2508,-2.2443,-2.2581,-2.2659,-2.3022,-2.3779,-2.4503,-2.5163,-2.588,-2.6571,-2.6957,-2.7313,-2.7286,-1.3238,-1.3862,-1.4422,-1.5287,-1.6194,-1.6423,-1.6534,-1.6534,-1.6534,-1.6795,-1.7312,-1.7312,-1.7585,-1.7973,-1.8131,-1.8288,-1.865,-1.8855,-1.9132,-1.9369,-1.9581,-1.969,-1.9705,-1.9705,-1.9705,-1.9705,-1.9705,-1.9705,-1.9705,-1.9705,-1.9705,-1.9705,-1.9705,-1.9705,-1.9705,-1.9705,-1.9705,-1.9705,-1.9705,-1.9705,-1.9705,-1.9705,-1.9705,-1.9705,-1.9705,-1.9705,-1.9705,-1.9705,-1.9705,-1.9705,-1.9705,-1.9705,-1.9705,-1.9705,-1.9705,-1.9889,-2.0193,-2.0649,-2.1023,-2.1603,-2.2161,-2.2883,-2.3025,-2.3325,-2.368,-2.3849,-2.3613,-2.368,-2.3748,-2.3863,-2.3913,-2.3689,-2.3863,-2.396,-2.3676,-2.3714,-2.412,-2.4069,-2.4019,-2.4052,-2.3833,-2.3511,-2.3393,-2.3088,-2.3257,-2.3494,-2.3274,-2.3004,-2.2868,-2.2733,-2.2665,-2.2665,-2.2649,-2.2513,-2.2344,-2.2412,-2.2502,-2.2508,-2.2371,-2.2378,-2.2368,-2.2409,-2.2453,-2.2563,-2.2738,-2.2947,-2.3242,-2.3628,-2.434,-2.5167,-2.5922,-2.6696,-2.7291,-2.7648,-2.7707,-1.3248,-1.3826,-1.4422,-1.505,-1.5688,-1.6238,-1.6534,-1.6534,-1.6522,-1.6795,-1.7188,-1.7229,-1.7463,-1.7867,-1.7827,-1.7947,-1.8185,-1.8535,-1.8817,-1.8983,-1.9369,-1.9617,-1.9654,-1.9654,-1.9705,-1.9705,-1.9705,-1.9705,-1.9705,-1.9705,-1.9705,-1.9705,-1.9705,-1.9705,-1.9705,-1.9705,-1.9705,-1.9705,-1.9705,-1.9705,-1.9705,-1.9705,-1.9705,-1.9705,-1.9705,-1.9705,-1.9705,-1.9705,-1.9705,-1.9705,-1.9705,-1.9705,-1.9705,-1.9705,-1.9726,-1.9803,-2.0532,-2.0926,-2.1103,-2.1857,-2.2264,-2.2434,-2.2581,-2.2632,-2.2513,-2.2496,-2.2649,-2.2902,-2.2716,-2.2598,-2.2462,-2.2513,-2.2982,-2.3117,-2.2868,-2.2868,-2.3308,-2.3477,-2.3376,-2.3359,-2.2852,-2.2412,-2.2429,-2.2412,-2.2446,-2.2496,-2.2395,-2.2327,-2.231,-2.2327,-2.231,-2.2327,-2.2327,-2.2327,-2.231,-2.2321,-2.2381,-2.2382,-2.2522,-2.2652,-2.2746,-2.2832,-2.2857,-2.284,-2.2996,-2.3277,-2.3277,-2.3307,-2.42,-2.512,-2.6056,-2.6819,-2.7475,-2.7885,-2.787,-1.3017,-1.3286,-1.4294,-1.4835,-1.5152,-1.6064,-1.6534,-1.6534,-1.6522,-1.6595,-1.6765,-1.6752,-1.6837,-1.6993,-1.7118,-1.7284,-1.7585,-1.7666,-1.7947,-1.8458,-1.8968,-1.908,-1.9281,-1.9566,-1.9705,-1.9705,-1.9705,-1.9705,-1.9705,-1.9705,-1.9705,-1.9705,-1.9705,-1.9705,-1.9705,-1.9705,-1.9705,-1.9705,-1.9705,-1.9705,-1.9705,-1.9705,-1.9705,-1.9705,-1.9705,-1.9705,-1.9705,-1.9705,-1.9705,-1.9705,-1.9705,-1.9705,-1.9705,-1.9705,-1.9803,-2.0089,-2.0715,-2.1291,-2.1645,-2.2209,-2.2282,-2.2327,-2.2327,-2.2327,-2.2327,-2.2327,-2.2327,-2.2327,-2.2327,-2.2327,-2.2361,-2.2361,-2.2598,-2.2581,-2.2479,-2.2496,-2.2699,-2.2632,-2.2581,-2.2632,-2.2344,-2.2327,-2.2327,-2.2327,-2.2327,-2.2327,-2.2327,-2.2338,-2.2349,-2.231,-2.231,-2.2327,-2.2327,-2.2327,-2.2338,-2.249,-2.2538,-2.2547,-2.287,-2.3228,-2.33,-2.3283,-2.3294,-2.3253,-2.3414,-2.3588,-2.3631,-2.3765,-2.4309,-2.5089,-2.5786,-2.6447,-2.6976,-2.7489,-2.7827,-1.2891,-1.3027,-1.3967,-1.4514,-1.488,-1.5976,-1.6534,-1.6534,-1.6534,-1.6534,-1.6522,-1.6522,-1.6522,-1.6522,-1.6565,-1.6607,-1.7034,-1.7271,-1.7626,-1.8106,-1.8664,-1.902,-1.9317,-1.9479,-1.969,-1.9705,-1.9705,-1.9705,-1.9705,-1.9705,-1.9705,-1.9705,-1.9705,-1.9705,-1.9705,-1.9705,-1.9705,-1.9705,-1.9705,-1.9705,-1.9705,-1.9705,-1.9705,-1.9705,-1.9705,-1.9705,-1.9705,-1.9705,-1.9705,-1.9705,-1.9705,-1.9705,-1.9705,-1.9762,-1.9894,-2.028,-2.091,-2.1554,-2.2077,-2.2254,-2.2327,-2.2327,-2.2327,-2.2327,-2.2327,-2.2327,-2.2327,-2.2327,-2.2327,-2.2327,-2.2327,-2.2327,-2.2327,-2.2327,-2.2327,-2.2361,-2.2361,-2.2327,-2.2327,-2.2327,-2.2327,-2.2327,-2.2327,-2.2327,-2.2327,-2.2327,-2.2327,-2.2377,-2.2443,-2.2415,-2.2453,-2.248,-2.2561,-2.2651,-2.2721,-2.2807,-2.281,-2.2744,-2.3112,-2.357,-2.3643,-2.3584,-2.3649,-2.3692,-2.3795,-2.3896,-2.4074,-2.4317,-2.4479,-2.4679,-2.5079,-2.5758,-2.6447,-2.6998,-2.7512,-1.2891,-1.2968,-1.3552,-1.419,-1.4835,-1.5976,-1.6534,-1.6534,-1.6534,-1.6534,-1.6534,-1.6534,-1.6534,-1.6534,-1.6534,-1.6522,-1.6637,-1.7034,-1.7435,-1.7973,-1.8419,-1.893,-1.9317,-1.9566,-1.969,-1.9705,-1.9705,-1.9705,-1.9705,-1.9705,-1.9705,-1.9705,-1.9705,-1.9705,-1.9705,-1.9705,-1.9705,-1.9705,-1.9705,-1.9705,-1.9705,-1.9705,-1.9705,-1.9705,-1.9705,-1.9705,-1.9705,-1.9705,-1.9705,-1.9705,-1.9705,-1.9705,-1.9726,-1.9726,-1.9965,-2.0449,-2.1228,-2.1811,-2.218,-2.2299,-2.2327,-2.2327,-2.2327,-2.2327,-2.2327,-2.2327,-2.2327,-2.2327,-2.2327,-2.2327,-2.2327,-2.2327,-2.2327,-2.2327,-2.2327,-2.2327,-2.2327,-2.2327,-2.2327,-2.2327,-2.2327,-2.2327,-2.2338,-2.2338,-2.2405,-2.2453,-2.2544,-2.2721,-2.2755,-2.2625,-2.2678,-2.2857,-2.294,-2.3087,-2.3141,-2.3117,-2.3159,-2.3104,-2.3418,-2.3807,-2.3834,-2.3876,-2.3896,-2.3937,-2.4056,-2.417,-2.419,-2.419,-2.4245,-2.4465,-2.4704,-2.4961,-2.564,-2.6539,-2.7145,-1.2891,-1.3027,-1.4025,-1.456,-1.488,-1.5964,-1.6534,-1.6534,-1.6534,-1.6534,-1.6534,-1.6534,-1.6534,-1.6534,-1.6534,-1.6534,-1.6565,-1.6637,-1.6765,-1.7271,-1.8052,-1.838,-1.8803,-1.9369,-1.9617,-1.9705,-1.9705,-1.9705,-1.9705,-1.9705,-1.9705,-1.9705,-1.9705,-1.9705,-1.9705,-1.9705,-1.9705,-1.9705,-1.9705,-1.9705,-1.9705,-1.9705,-1.9705,-1.9705,-1.9705,-1.9705,-1.9705,-1.9705,-1.9705,-1.9705,-1.9726,-1.9726,-1.9726,-1.9965,-2.0382,-2.1165,-2.1764,-2.218,-2.2282,-2.2327,-2.2327,-2.2327,-2.2327,-2.2327,-2.2327,-2.2327,-2.2327,-2.2327,-2.2327,-2.2327,-2.2327,-2.2327,-2.2327,-2.2327,-2.2327,-2.2327,-2.2327,-2.2327,-2.2327,-2.2327,-2.2327,-2.2327,-2.2338,-2.2426,-2.2517,-2.2616,-2.2764,-2.2965,-2.3093,-2.2947,-2.3021,-2.3189,-2.3277,-2.3414,-2.3392,-2.3392,-2.3428,-2.3523,-2.3783,-2.3978,-2.4016,-2.4074,-2.4094,-2.4113,-2.417,-2.417,-2.419,-2.419,-2.419,-2.419,-2.4392,-2.4538,-2.4869,-2.5823,-2.6374,-1.2353,-1.2493,-1.3153,-1.3826,-1.4608,-1.5648,-1.625,-1.6479,-1.6534,-1.6534,-1.6534,-1.6534,-1.6534,-1.6534,-1.6534,-1.6534,-1.6534,-1.6552,-1.6795,-1.7517,-1.7787,-1.8419,-1.8893,-1.9281,-1.9617,-1.9705,-1.9705,-1.9705,-1.9705,-1.9705,-1.9705,-1.9705,-1.9705,-1.9705,-1.9705,-1.9705,-1.9705,-1.9705,-1.9705,-1.9705,-1.9705,-1.9705,-1.9705,-1.9705,-1.9705,-1.9726,-1.9726,-1.9726,-1.9726,-1.9762,-1.9782,-1.9929,-2.007,-2.0483,-2.091,-2.1598,-2.1974,-2.2225,-2.2327,-2.2327,-2.2327,-2.2327,-2.2327,-2.2327,-2.2327,-2.2327,-2.2327,-2.2327,-2.2327,-2.2327,-2.2327,-2.2327,-2.2327,-2.2327,-2.2327,-2.2327,-2.2327,-2.2327,-2.2327,-2.2327,-2.2327,-2.2327,-2.2377,-2.2517,-2.2599,-2.266,-2.2772,-2.2947,-2.3165,-2.3277,-2.3414,-2.361,-2.3671,-2.3732,-2.3692,-2.3671,-2.3759,-2.3824,-2.3959,-2.4113,-2.419,-2.419,-2.417,-2.417,-2.419,-2.419,-2.419,-2.419,-2.419,-2.419,-2.419,-2.4318,-2.4612,-2.5181,-2.5511,-1.1616,-1.1636,-1.1693,-1.2817,-1.4109,-1.5176,-1.5856,-1.6353,-1.6371,-1.6441,-1.6509,-1.6534,-1.6534,-1.6534,-1.6534,-1.6534,-1.6534,-1.6522,-1.6837,-1.7947,-1.8027,-1.8419,-1.9006,-1.9639,-1.969,-1.9705,-1.9705,-1.9705,-1.9705,-1.9705,-1.9705,-1.9705,-1.9705,-1.9705,-1.9705,-1.9705,-1.9705,-1.9705,-1.9705,-1.9705,-1.9705,-1.9705,-1.9705,-1.9705,-1.9726,-1.9726,-1.9747,-1.9747,-1.9747,-1.9945,-2.0104,-2.0348,-2.0699,-2.1039,-2.143,-2.1764,-2.2106,-2.2254,-2.2327,-2.2327,-2.2327,-2.2327,-2.2327,-2.2327,-2.2327,-2.2327,-2.2327,-2.2327,-2.2327,-2.2327,-2.2327,-2.2327,-2.2327,-2.2327,-2.2327,-2.2327,-2.2327,-2.2327,-2.2327,-2.2321,-2.2409,-2.2436,-2.2535,-2.2669,-2.3014,-2.2898,-2.3045,-2.3212,-2.3346,-2.3566,-2.3671,-2.3917,-2.3955,-2.3955,-2.3996,-2.4016,-2.4094,-2.4152,-2.419,-2.419,-2.419,-2.419,-2.419,-2.419,-2.419,-2.419,-2.419,-2.419,-2.419,-2.419,-2.419,-2.419,-2.4465,-2.4852,-2.485,-1.1596,-1.1683,-1.2478,-1.3328,-1.4139,-1.478,-1.5159,-1.5304,-1.5718,-1.612,-1.6459,-1.6509,-1.6534,-1.6534,-1.6534,-1.6534,-1.6534,-1.6522,-1.668,-1.7271,-1.7747,-1.8341,-1.8727,-1.9442,-1.9654,-1.9705,-1.9705,-1.9705,-1.9705,-1.9705,-1.9705,-1.9705,-1.9705,-1.9705,-1.9705,-1.9705,-1.9705,-1.9705,-1.9705,-1.9705,-1.9705,-1.9705,-1.9705,-1.9726,-1.9726,-1.9909,-2.0,-2.0158,-2.0364,-2.0665,-2.0731,-2.0991,-2.1306,-2.1538,-2.1764,-2.2077,-2.2209,-2.2282,-2.2327,-2.2327,-2.2327,-2.2327,-2.2327,-2.2327,-2.2327,-2.2327,-2.2327,-2.2327,-2.2327,-2.2327,-2.2327,-2.2327,-2.2327,-2.2327,-2.2327,-2.2327,-2.2327,-2.2327,-2.2327,-2.2398,-2.2493,-2.2608,-2.2678,-2.2933,-2.3277,-2.3544,-2.3774,-2.3917,-2.3858,-2.3976,-2.3795,-2.3958,-2.4074,-2.4132,-2.419,-2.419,-2.419,-2.419,-2.419,-2.419,-2.419,-2.419,-2.419,-2.419,-2.419,-2.419,-2.419,-2.419,-2.419,-2.419,-2.419,-2.419,-2.419,-2.4465,-2.441,-1.1028,-1.113,-1.184,-1.2693,-1.3458,-1.3935,-1.4423,-1.4888,-1.5243,-1.5505,-1.5869,-1.6258,-1.6522,-1.6509,-1.6534,-1.6459,-1.6471,-1.6534,-1.6964,-1.7394,-1.7693,-1.838,-1.8893,-1.9369,-1.9566,-1.9705,-1.9705,-1.9705,-1.9705,-1.9705,-1.9705,-1.9705,-1.9705,-1.9705,-1.9705,-1.9705,-1.9705,-1.9705,-1.9705,-1.9705,-1.9705,-1.9705,-1.9705,-1.9726,-1.9909,-2.0104,-2.0261,-2.0449,-2.0764,-2.1023,-2.1118,-2.1507,-2.1764,-2.1928,-2.2061,-2.2209,-2.2282,-2.2327,-2.2327,-2.2327,-2.2327,-2.2327,-2.2327,-2.2327,-2.2327,-2.2327,-2.2327,-2.2327,-2.2327,-2.2327,-2.2327,-2.2327,-2.2327,-2.2327,-2.2327,-2.2327,-2.2327,-2.2327,-2.231,-2.2349,-2.2483,-2.266,-2.2754,-2.2965,-2.3323,-2.3606,-2.3917,-2.4113,-2.4151,-2.419,-2.4074,-2.4016,-2.4132,-2.417,-2.419,-2.419,-2.419,-2.419,-2.419,-2.419,-2.419,-2.419,-2.419,-2.419,-2.419,-2.419,-2.419,-2.419,-2.419,-2.419,-2.419,-2.419,-2.419,-2.419,-2.4208,-1.0351,-1.0381,-1.0754,-1.1537,-1.2469,-1.2958,-1.3674,-1.4562,-1.4777,-1.4802,-1.494,-1.5844,-1.6258,-1.6308,-1.6321,-1.6351,-1.6304,-1.6173,-1.6849,-1.7597,-1.7951,-1.8484,-1.9037,-1.9603,-1.969,-1.9705,-1.9705,-1.9705,-1.9705,-1.9705,-1.9705,-1.9705,-1.9705,-1.9705,-1.9705,-1.9705,-1.9705,-1.9705,-1.9705,-1.9705,-1.9705,-1.9705,-1.9705,-1.9854,-2.007,-2.028,-2.0483,-2.0748,-2.1023,-2.1323,-2.1538,-2.184,-2.2077,-2.218,-2.2209,-2.2327,-2.2327,-2.2327,-2.2327,-2.2327,-2.2327,-2.2327,-2.2327,-2.2327,-2.2327,-2.2327,-2.2327,-2.2327,-2.2327,-2.2327,-2.2327,-2.2327,-2.2327,-2.2327,-2.2327,-2.2327,-2.2327,-2.2321,-2.236,-2.2371,-2.2591,-2.2785,-2.2961,-2.3165,-2.3432,-2.3671,-2.3816,-2.3976,-2.4094,-2.417,-2.4151,-2.4113,-2.417,-2.419,-2.419,-2.419,-2.419,-2.419,-2.419,-2.419,-2.419,-2.419,-2.419,-2.419,-2.419,-2.419,-2.419,-2.419,-2.419,-2.419,-2.419,-2.419,-2.419,-2.419,-2.419,-1.0322,-1.0332,-1.0789,-1.1383,-1.1979,-1.2452,-1.2987,-1.3563,-1.4072,-1.4249,-1.4412,-1.484,-1.5191,-1.5191,-1.523,-1.5372,-1.5748,-1.575,-1.6361,-1.7153,-1.7684,-1.8341,-1.9023,-1.9543,-1.9675,-1.9705,-1.9705,-1.9705,-1.9705,-1.9705,-1.9705,-1.9705,-1.9705,-1.9705,-1.9705,-1.9705,-1.9705,-1.9705,-1.9705,-1.9705,-1.9726,-1.9726,-1.9705,-1.9854,-2.0089,-2.0499,-2.0862,-2.1275,-2.1675,-2.1928,-2.2077,-2.2163,-2.2237,-2.2327,-2.2327,-2.2327,-2.2327,-2.2327,-2.2327,-2.2327,-2.2327,-2.2327,-2.2327,-2.2327,-2.2327,-2.2327,-2.2327,-2.2327,-2.2327,-2.2327,-2.2327,-2.2327,-2.2327,-2.2327,-2.2327,-2.2327,-2.2327,-2.2419,-2.2512,-2.2728,-2.3,-2.3176,-2.3374,-2.3588,-2.3876,-2.4036,-2.4016,-2.4151,-2.4151,-2.417,-2.419,-2.419,-2.419,-2.419,-2.419,-2.419,-2.419,-2.419,-2.419,-2.419,-2.419,-2.419,-2.419,-2.419,-2.419,-2.419,-2.419,-2.419,-2.419,-2.419,-2.419,-2.419,-2.419,-2.419,-2.419]}]]